<?xml version="1.0" encoding="UTF-8" standalone="no" ?>
<gpx xmlns="http://www.topografix.com/GPX/1/1" xmlns:xsi="http://www.w3.org/2001/XMLSchema-instance" xsi:schemaLocation="http://www.topografix.com/GPX/1/1 http://www.topografix.com/GPX/1/1/gpx.xsd" version="1.1" creator="VisuGPX - https://www.visugpx.com">
  <metadata>
    <name>Grosbois-Poule-les-Echarmeaux</name>
    <desc><![CDATA[Chemin de Compostelle 2015 : Grosbois-Poule-les-Echarmeaux]]></desc>
  </metadata>
  <trk>
    <name><![CDATA[25 Grosbois - Poule-les-Echarmeaux]]></name>
    <trkseg>
      <trkpt lat="46.23302" lon="4.58001">
        <ele>528</ele>
        <time>2015-07-08T06:44:18Z</time>
      </trkpt>
      <trkpt lat="46.23297" lon="4.57998">
        <ele>528</ele>
        <time>2015-07-08T06:44:21Z</time>
      </trkpt>
      <trkpt lat="46.23296" lon="4.5799">
        <ele>529</ele>
        <time>2015-07-08T06:44:25Z</time>
      </trkpt>
      <trkpt lat="46.23297" lon="4.57983">
        <ele>532</ele>
        <time>2015-07-08T06:44:30Z</time>
      </trkpt>
      <trkpt lat="46.23299" lon="4.57976">
        <ele>534</ele>
        <time>2015-07-08T06:44:34Z</time>
      </trkpt>
      <trkpt lat="46.23303" lon="4.57971">
        <ele>534</ele>
        <time>2015-07-08T06:44:38Z</time>
      </trkpt>
      <trkpt lat="46.23315" lon="4.57951">
        <ele>534</ele>
        <time>2015-07-08T06:44:54Z</time>
      </trkpt>
      <trkpt lat="46.23329" lon="4.57922">
        <ele>532</ele>
        <time>2015-07-08T06:45:15Z</time>
      </trkpt>
      <trkpt lat="46.23335" lon="4.57911">
        <ele>533</ele>
        <time>2015-07-08T06:45:24Z</time>
      </trkpt>
      <trkpt lat="46.23335" lon="4.57904">
        <ele>533</ele>
        <time>2015-07-08T06:45:28Z</time>
      </trkpt>
      <trkpt lat="46.23333" lon="4.57897">
        <ele>533</ele>
        <time>2015-07-08T06:45:32Z</time>
      </trkpt>
      <trkpt lat="46.23329" lon="4.57894">
        <ele>534</ele>
        <time>2015-07-08T06:45:36Z</time>
      </trkpt>
      <trkpt lat="46.2332" lon="4.57888">
        <ele>535</ele>
        <time>2015-07-08T06:45:44Z</time>
      </trkpt>
      <trkpt lat="46.23315" lon="4.57888">
        <ele>535</ele>
        <time>2015-07-08T06:45:48Z</time>
      </trkpt>
      <trkpt lat="46.23309" lon="4.57898">
        <ele>535</ele>
        <time>2015-07-08T06:45:54Z</time>
      </trkpt>
      <trkpt lat="46.23306" lon="4.57901">
        <ele>535</ele>
        <time>2015-07-08T06:45:55Z</time>
      </trkpt>
      <trkpt lat="46.23303" lon="4.579">
        <ele>535</ele>
        <time>2015-07-08T06:45:57Z</time>
      </trkpt>
      <trkpt lat="46.23297" lon="4.57906">
        <ele>537</ele>
        <time>2015-07-08T06:46:05Z</time>
      </trkpt>
      <trkpt lat="46.23294" lon="4.57913">
        <ele>537</ele>
        <time>2015-07-08T06:46:11Z</time>
      </trkpt>
      <trkpt lat="46.23289" lon="4.57916">
        <ele>537</ele>
        <time>2015-07-08T06:46:17Z</time>
      </trkpt>
      <trkpt lat="46.23287" lon="4.57919">
        <ele>538</ele>
        <time>2015-07-08T06:46:24Z</time>
      </trkpt>
      <trkpt lat="46.23282" lon="4.57924">
        <ele>538</ele>
        <time>2015-07-08T06:46:32Z</time>
      </trkpt>
      <trkpt lat="46.23278" lon="4.57927">
        <ele>538</ele>
        <time>2015-07-08T06:46:36Z</time>
      </trkpt>
      <trkpt lat="46.23263" lon="4.57947">
        <ele>540</ele>
        <time>2015-07-08T06:46:56Z</time>
      </trkpt>
      <trkpt lat="46.23258" lon="4.57948">
        <ele>540</ele>
        <time>2015-07-08T06:47:02Z</time>
      </trkpt>
      <trkpt lat="46.23255" lon="4.57953">
        <ele>540</ele>
        <time>2015-07-08T06:47:09Z</time>
      </trkpt>
      <trkpt lat="46.23253" lon="4.5796">
        <ele>540</ele>
        <time>2015-07-08T06:47:14Z</time>
      </trkpt>
      <trkpt lat="46.23249" lon="4.57964">
        <ele>541</ele>
        <time>2015-07-08T06:47:18Z</time>
      </trkpt>
      <trkpt lat="46.23247" lon="4.57978">
        <ele>541</ele>
        <time>2015-07-08T06:47:30Z</time>
      </trkpt>
      <trkpt lat="46.23242" lon="4.57981">
        <ele>542</ele>
        <time>2015-07-08T06:47:34Z</time>
      </trkpt>
      <trkpt lat="46.23218" lon="4.57999">
        <ele>545</ele>
        <time>2015-07-08T06:47:58Z</time>
      </trkpt>
      <trkpt lat="46.23213" lon="4.58002">
        <ele>545</ele>
        <time>2015-07-08T06:48:03Z</time>
      </trkpt>
      <trkpt lat="46.23192" lon="4.58016">
        <ele>552</ele>
        <time>2015-07-08T06:48:31Z</time>
      </trkpt>
      <trkpt lat="46.2318" lon="4.58011">
        <ele>553</ele>
        <time>2015-07-08T06:48:38Z</time>
      </trkpt>
      <trkpt lat="46.2318" lon="4.58003">
        <ele>553</ele>
        <time>2015-07-08T06:48:50Z</time>
      </trkpt>
      <trkpt lat="46.23188" lon="4.57995">
        <ele>553</ele>
        <time>2015-07-08T06:49:06Z</time>
      </trkpt>
      <trkpt lat="46.23222" lon="4.57947">
        <ele>559</ele>
        <time>2015-07-08T06:49:42Z</time>
      </trkpt>
      <trkpt lat="46.2323" lon="4.57938">
        <ele>559</ele>
        <time>2015-07-08T06:49:51Z</time>
      </trkpt>
      <trkpt lat="46.23243" lon="4.57919">
        <ele>559</ele>
        <time>2015-07-08T06:50:07Z</time>
      </trkpt>
      <trkpt lat="46.23261" lon="4.57885">
        <ele>559</ele>
        <time>2015-07-08T06:50:33Z</time>
      </trkpt>
      <trkpt lat="46.23268" lon="4.57859">
        <ele>558</ele>
        <time>2015-07-08T06:50:49Z</time>
      </trkpt>
      <trkpt lat="46.23282" lon="4.57834">
        <ele>558</ele>
        <time>2015-07-08T06:51:14Z</time>
      </trkpt>
      <trkpt lat="46.23287" lon="4.57832">
        <ele>558</ele>
        <time>2015-07-08T06:51:18Z</time>
      </trkpt>
      <trkpt lat="46.23307" lon="4.5783">
        <ele>559</ele>
        <time>2015-07-08T06:51:34Z</time>
      </trkpt>
      <trkpt lat="46.23316" lon="4.57829">
        <ele>559</ele>
        <time>2015-07-08T06:51:42Z</time>
      </trkpt>
      <trkpt lat="46.23338" lon="4.57819">
        <ele>557</ele>
        <time>2015-07-08T06:52:14Z</time>
      </trkpt>
      <trkpt lat="46.23345" lon="4.5781">
        <ele>556</ele>
        <time>2015-07-08T06:52:20Z</time>
      </trkpt>
      <trkpt lat="46.23352" lon="4.57801">
        <ele>556</ele>
        <time>2015-07-08T06:52:26Z</time>
      </trkpt>
      <trkpt lat="46.23381" lon="4.57766">
        <ele>560</ele>
        <time>2015-07-08T06:52:55Z</time>
      </trkpt>
      <trkpt lat="46.23391" lon="4.57766">
        <ele>561</ele>
        <time>2015-07-08T06:53:03Z</time>
      </trkpt>
      <trkpt lat="46.234" lon="4.57763">
        <ele>561</ele>
        <time>2015-07-08T06:53:11Z</time>
      </trkpt>
      <trkpt lat="46.23423" lon="4.57736">
        <ele>559</ele>
        <time>2015-07-08T06:53:33Z</time>
      </trkpt>
      <trkpt lat="46.23449" lon="4.57696">
        <ele>561</ele>
        <time>2015-07-08T06:54:06Z</time>
      </trkpt>
      <trkpt lat="46.23472" lon="4.57652">
        <ele>562</ele>
        <time>2015-07-08T06:54:41Z</time>
      </trkpt>
      <trkpt lat="46.2348" lon="4.57627">
        <ele>563</ele>
        <time>2015-07-08T06:54:58Z</time>
      </trkpt>
      <trkpt lat="46.2348" lon="4.57617">
        <ele>565</ele>
        <time>2015-07-08T06:55:14Z</time>
      </trkpt>
      <trkpt lat="46.23478" lon="4.57604">
        <ele>565</ele>
        <time>2015-07-08T06:55:35Z</time>
      </trkpt>
      <trkpt lat="46.23472" lon="4.57595">
        <ele>565</ele>
        <time>2015-07-08T06:55:43Z</time>
      </trkpt>
      <trkpt lat="46.23465" lon="4.57557">
        <ele>571</ele>
        <time>2015-07-08T06:56:18Z</time>
      </trkpt>
      <trkpt lat="46.23454" lon="4.5752">
        <ele>575</ele>
        <time>2015-07-08T06:56:44Z</time>
      </trkpt>
      <trkpt lat="46.23423" lon="4.57492">
        <ele>581</ele>
        <time>2015-07-08T06:57:20Z</time>
      </trkpt>
      <trkpt lat="46.23389" lon="4.57464">
        <ele>584</ele>
        <time>2015-07-08T06:57:55Z</time>
      </trkpt>
      <trkpt lat="46.23351" lon="4.57455">
        <ele>586</ele>
        <time>2015-07-08T06:58:32Z</time>
      </trkpt>
      <trkpt lat="46.23342" lon="4.57454">
        <ele>586</ele>
        <time>2015-07-08T06:58:43Z</time>
      </trkpt>
      <trkpt lat="46.23331" lon="4.57452">
        <ele>587</ele>
        <time>2015-07-08T06:58:50Z</time>
      </trkpt>
      <trkpt lat="46.23322" lon="4.57455">
        <ele>587</ele>
        <time>2015-07-08T06:59:00Z</time>
      </trkpt>
      <trkpt lat="46.23285" lon="4.5747">
        <ele>592</ele>
        <time>2015-07-08T06:59:33Z</time>
      </trkpt>
      <trkpt lat="46.23275" lon="4.57471">
        <ele>597</ele>
        <time>2015-07-08T06:59:41Z</time>
      </trkpt>
      <trkpt lat="46.23252" lon="4.5748">
        <ele>599</ele>
        <time>2015-07-08T07:00:12Z</time>
      </trkpt>
      <trkpt lat="46.23224" lon="4.57476">
        <ele>604</ele>
        <time>2015-07-08T07:00:41Z</time>
      </trkpt>
      <trkpt lat="46.23205" lon="4.57475">
        <ele>603</ele>
        <time>2015-07-08T07:00:58Z</time>
      </trkpt>
      <trkpt lat="46.23196" lon="4.57472">
        <ele>604</ele>
        <time>2015-07-08T07:01:09Z</time>
      </trkpt>
      <trkpt lat="46.23171" lon="4.57454">
        <ele>610</ele>
        <time>2015-07-08T07:01:43Z</time>
      </trkpt>
      <trkpt lat="46.23152" lon="4.57446">
        <ele>612</ele>
        <time>2015-07-08T07:01:56Z</time>
      </trkpt>
      <trkpt lat="46.23136" lon="4.5743">
        <ele>618</ele>
        <time>2015-07-08T07:02:21Z</time>
      </trkpt>
      <trkpt lat="46.23114" lon="4.57404">
        <ele>619</ele>
        <time>2015-07-08T07:02:48Z</time>
      </trkpt>
      <trkpt lat="46.23109" lon="4.57393">
        <ele>621</ele>
        <time>2015-07-08T07:02:57Z</time>
      </trkpt>
      <trkpt lat="46.23103" lon="4.57384">
        <ele>621</ele>
        <time>2015-07-08T07:03:05Z</time>
      </trkpt>
      <trkpt lat="46.23098" lon="4.57378">
        <ele>623</ele>
        <time>2015-07-08T07:03:19Z</time>
      </trkpt>
      <trkpt lat="46.23089" lon="4.57365">
        <ele>622</ele>
        <time>2015-07-08T07:03:48Z</time>
      </trkpt>
      <trkpt lat="46.23085" lon="4.5736">
        <ele>622</ele>
        <time>2015-07-08T07:03:52Z</time>
      </trkpt>
      <trkpt lat="46.23076" lon="4.57345">
        <ele>623</ele>
        <time>2015-07-08T07:04:04Z</time>
      </trkpt>
      <trkpt lat="46.23072" lon="4.57345">
        <ele>624</ele>
        <time>2015-07-08T07:04:53Z</time>
      </trkpt>
      <trkpt lat="46.23068" lon="4.57345">
        <ele>624</ele>
        <time>2015-07-08T07:05:22Z</time>
      </trkpt>
      <trkpt lat="46.23065" lon="4.57337">
        <ele>625</ele>
        <time>2015-07-08T07:05:51Z</time>
      </trkpt>
      <trkpt lat="46.23062" lon="4.57331">
        <ele>627</ele>
        <time>2015-07-08T07:05:57Z</time>
      </trkpt>
      <trkpt lat="46.23057" lon="4.57319">
        <ele>626</ele>
        <time>2015-07-08T07:06:09Z</time>
      </trkpt>
      <trkpt lat="46.23048" lon="4.57312">
        <ele>627</ele>
        <time>2015-07-08T07:06:16Z</time>
      </trkpt>
      <trkpt lat="46.23039" lon="4.57312">
        <ele>629</ele>
        <time>2015-07-08T07:06:30Z</time>
      </trkpt>
      <trkpt lat="46.23018" lon="4.57337">
        <ele>632</ele>
        <time>2015-07-08T07:07:00Z</time>
      </trkpt>
      <trkpt lat="46.22995" lon="4.57362">
        <ele>640</ele>
        <time>2015-07-08T07:07:33Z</time>
      </trkpt>
      <trkpt lat="46.22966" lon="4.57399">
        <ele>645</ele>
        <time>2015-07-08T07:08:08Z</time>
      </trkpt>
      <trkpt lat="46.22948" lon="4.57424">
        <ele>646</ele>
        <time>2015-07-08T07:08:41Z</time>
      </trkpt>
      <trkpt lat="46.2294" lon="4.57431">
        <ele>646</ele>
        <time>2015-07-08T07:09:07Z</time>
      </trkpt>
      <trkpt lat="46.22929" lon="4.57453">
        <ele>645</ele>
        <time>2015-07-08T07:09:27Z</time>
      </trkpt>
      <trkpt lat="46.22924" lon="4.57466">
        <ele>645</ele>
        <time>2015-07-08T07:09:35Z</time>
      </trkpt>
      <trkpt lat="46.22912" lon="4.57489">
        <ele>644</ele>
        <time>2015-07-08T07:09:57Z</time>
      </trkpt>
      <trkpt lat="46.22907" lon="4.5751">
        <ele>642</ele>
        <time>2015-07-08T07:10:12Z</time>
      </trkpt>
      <trkpt lat="46.22904" lon="4.57517">
        <ele>643</ele>
        <time>2015-07-08T07:10:40Z</time>
      </trkpt>
      <trkpt lat="46.22895" lon="4.57533">
        <ele>646</ele>
        <time>2015-07-08T07:10:55Z</time>
      </trkpt>
      <trkpt lat="46.22882" lon="4.57554">
        <ele>647</ele>
        <time>2015-07-08T07:11:16Z</time>
      </trkpt>
      <trkpt lat="46.22863" lon="4.57558">
        <ele>652</ele>
        <time>2015-07-08T07:11:41Z</time>
      </trkpt>
      <trkpt lat="46.22825" lon="4.5757">
        <ele>653</ele>
        <time>2015-07-08T07:12:20Z</time>
      </trkpt>
      <trkpt lat="46.22798" lon="4.57575">
        <ele>653</ele>
        <time>2015-07-08T07:12:54Z</time>
      </trkpt>
      <trkpt lat="46.22788" lon="4.57577">
        <ele>653</ele>
        <time>2015-07-08T07:13:02Z</time>
      </trkpt>
      <trkpt lat="46.22779" lon="4.57579">
        <ele>655</ele>
        <time>2015-07-08T07:13:15Z</time>
      </trkpt>
      <trkpt lat="46.2277" lon="4.57578">
        <ele>655</ele>
        <time>2015-07-08T07:13:24Z</time>
      </trkpt>
      <trkpt lat="46.22743" lon="4.57588">
        <ele>662</ele>
        <time>2015-07-08T07:13:58Z</time>
      </trkpt>
      <trkpt lat="46.22715" lon="4.57598">
        <ele>668</ele>
        <time>2015-07-08T07:14:35Z</time>
      </trkpt>
      <trkpt lat="46.22695" lon="4.57597">
        <ele>669</ele>
        <time>2015-07-08T07:15:01Z</time>
      </trkpt>
      <trkpt lat="46.22687" lon="4.57602">
        <ele>667</ele>
        <time>2015-07-08T07:15:13Z</time>
      </trkpt>
      <trkpt lat="46.22677" lon="4.57606">
        <ele>667</ele>
        <time>2015-07-08T07:15:20Z</time>
      </trkpt>
      <trkpt lat="46.22661" lon="4.57616">
        <ele>668</ele>
        <time>2015-07-08T07:15:41Z</time>
      </trkpt>
      <trkpt lat="46.22651" lon="4.57622">
        <ele>670</ele>
        <time>2015-07-08T07:15:52Z</time>
      </trkpt>
      <trkpt lat="46.22615" lon="4.5764">
        <ele>671</ele>
        <time>2015-07-08T07:16:27Z</time>
      </trkpt>
      <trkpt lat="46.22606" lon="4.57643">
        <ele>671</ele>
        <time>2015-07-08T07:16:35Z</time>
      </trkpt>
      <trkpt lat="46.22597" lon="4.57649">
        <ele>672</ele>
        <time>2015-07-08T07:16:44Z</time>
      </trkpt>
      <trkpt lat="46.22587" lon="4.57649">
        <ele>672</ele>
        <time>2015-07-08T07:16:50Z</time>
      </trkpt>
      <trkpt lat="46.22579" lon="4.57652">
        <ele>671</ele>
        <time>2015-07-08T07:16:57Z</time>
      </trkpt>
      <trkpt lat="46.22561" lon="4.5766">
        <ele>662</ele>
        <time>2015-07-08T07:17:27Z</time>
      </trkpt>
      <trkpt lat="46.22539" lon="4.57674">
        <ele>658</ele>
        <time>2015-07-08T07:17:54Z</time>
      </trkpt>
      <trkpt lat="46.22529" lon="4.57675">
        <ele>660</ele>
        <time>2015-07-08T07:18:04Z</time>
      </trkpt>
      <trkpt lat="46.22524" lon="4.57676">
        <ele>660</ele>
        <time>2015-07-08T07:18:09Z</time>
      </trkpt>
      <trkpt lat="46.22494" lon="4.57685">
        <ele>658</ele>
        <time>2015-07-08T07:18:40Z</time>
      </trkpt>
      <trkpt lat="46.22464" lon="4.57692">
        <ele>657</ele>
        <time>2015-07-08T07:19:29Z</time>
      </trkpt>
      <trkpt lat="46.22425" lon="4.577">
        <ele>656</ele>
        <time>2015-07-08T07:20:03Z</time>
      </trkpt>
      <trkpt lat="46.22387" lon="4.57717">
        <ele>656</ele>
        <time>2015-07-08T07:20:37Z</time>
      </trkpt>
      <trkpt lat="46.2235" lon="4.57737">
        <ele>656</ele>
        <time>2015-07-08T07:21:10Z</time>
      </trkpt>
      <trkpt lat="46.22331" lon="4.57738">
        <ele>656</ele>
        <time>2015-07-08T07:21:26Z</time>
      </trkpt>
      <trkpt lat="46.22328" lon="4.57739">
        <ele>656</ele>
        <time>2015-07-08T07:21:35Z</time>
      </trkpt>
      <trkpt lat="46.22322" lon="4.57738">
        <ele>656</ele>
        <time>2015-07-08T07:22:02Z</time>
      </trkpt>
      <trkpt lat="46.22307" lon="4.57734">
        <ele>655</ele>
        <time>2015-07-08T07:22:15Z</time>
      </trkpt>
      <trkpt lat="46.22298" lon="4.5773">
        <ele>655</ele>
        <time>2015-07-08T07:22:25Z</time>
      </trkpt>
      <trkpt lat="46.22266" lon="4.57714">
        <ele>653</ele>
        <time>2015-07-08T07:22:55Z</time>
      </trkpt>
      <trkpt lat="46.2224" lon="4.57695">
        <ele>650</ele>
        <time>2015-07-08T07:23:26Z</time>
      </trkpt>
      <trkpt lat="46.22235" lon="4.57682">
        <ele>649</ele>
        <time>2015-07-08T07:23:34Z</time>
      </trkpt>
      <trkpt lat="46.22231" lon="4.57678">
        <ele>649</ele>
        <time>2015-07-08T07:23:39Z</time>
      </trkpt>
      <trkpt lat="46.22195" lon="4.57659">
        <ele>647</ele>
        <time>2015-07-08T07:24:14Z</time>
      </trkpt>
      <trkpt lat="46.22158" lon="4.57641">
        <ele>647</ele>
        <time>2015-07-08T07:24:47Z</time>
      </trkpt>
      <trkpt lat="46.22149" lon="4.57635">
        <ele>646</ele>
        <time>2015-07-08T07:24:56Z</time>
      </trkpt>
      <trkpt lat="46.22148" lon="4.57631">
        <ele>647</ele>
        <time>2015-07-08T07:25:03Z</time>
      </trkpt>
      <trkpt lat="46.22145" lon="4.5763">
        <ele>646</ele>
        <time>2015-07-08T07:25:40Z</time>
      </trkpt>
      <trkpt lat="46.2214" lon="4.57629">
        <ele>646</ele>
        <time>2015-07-08T07:25:52Z</time>
      </trkpt>
      <trkpt lat="46.22134" lon="4.57618">
        <ele>647</ele>
        <time>2015-07-08T07:26:04Z</time>
      </trkpt>
      <trkpt lat="46.22127" lon="4.57608">
        <ele>646</ele>
        <time>2015-07-08T07:26:14Z</time>
      </trkpt>
      <trkpt lat="46.22115" lon="4.57591">
        <ele>647</ele>
        <time>2015-07-08T07:26:29Z</time>
      </trkpt>
      <trkpt lat="46.22109" lon="4.57582">
        <ele>646</ele>
        <time>2015-07-08T07:26:38Z</time>
      </trkpt>
      <trkpt lat="46.22102" lon="4.5757">
        <ele>646</ele>
        <time>2015-07-08T07:26:48Z</time>
      </trkpt>
      <trkpt lat="46.221" lon="4.57567">
        <ele>646</ele>
        <time>2015-07-08T07:27:54Z</time>
      </trkpt>
      <trkpt lat="46.22097" lon="4.57561">
        <ele>646</ele>
        <time>2015-07-08T07:28:00Z</time>
      </trkpt>
      <trkpt lat="46.22089" lon="4.5755">
        <ele>648</ele>
        <time>2015-07-08T07:28:10Z</time>
      </trkpt>
      <trkpt lat="46.22088" lon="4.57544">
        <ele>649</ele>
        <time>2015-07-08T07:28:19Z</time>
      </trkpt>
      <trkpt lat="46.22072" lon="4.57522">
        <ele>649</ele>
        <time>2015-07-08T07:28:36Z</time>
      </trkpt>
      <trkpt lat="46.22048" lon="4.57485">
        <ele>652</ele>
        <time>2015-07-08T07:29:08Z</time>
      </trkpt>
      <trkpt lat="46.22036" lon="4.5747">
        <ele>652</ele>
        <time>2015-07-08T07:29:21Z</time>
      </trkpt>
      <trkpt lat="46.22034" lon="4.57465">
        <ele>652</ele>
        <time>2015-07-08T07:29:23Z</time>
      </trkpt>
      <trkpt lat="46.22029" lon="4.57452">
        <ele>653</ele>
        <time>2015-07-08T07:29:33Z</time>
      </trkpt>
      <trkpt lat="46.22026" lon="4.57446">
        <ele>654</ele>
        <time>2015-07-08T07:29:35Z</time>
      </trkpt>
      <trkpt lat="46.22015" lon="4.57428">
        <ele>655</ele>
        <time>2015-07-08T07:29:49Z</time>
      </trkpt>
      <trkpt lat="46.22015" lon="4.57423">
        <ele>656</ele>
        <time>2015-07-08T07:29:56Z</time>
      </trkpt>
      <trkpt lat="46.2201" lon="4.57413">
        <ele>661</ele>
        <time>2015-07-08T07:30:29Z</time>
      </trkpt>
      <trkpt lat="46.22007" lon="4.57407">
        <ele>663</ele>
        <time>2015-07-08T07:30:34Z</time>
      </trkpt>
      <trkpt lat="46.22004" lon="4.574">
        <ele>663</ele>
        <time>2015-07-08T07:30:39Z</time>
      </trkpt>
      <trkpt lat="46.22" lon="4.57388">
        <ele>665</ele>
        <time>2015-07-08T07:30:48Z</time>
      </trkpt>
      <trkpt lat="46.21994" lon="4.57367">
        <ele>665</ele>
        <time>2015-07-08T07:31:03Z</time>
      </trkpt>
      <trkpt lat="46.21992" lon="4.57361">
        <ele>665</ele>
        <time>2015-07-08T07:31:08Z</time>
      </trkpt>
      <trkpt lat="46.21989" lon="4.57356">
        <ele>665</ele>
        <time>2015-07-08T07:31:15Z</time>
      </trkpt>
      <trkpt lat="46.21987" lon="4.57351">
        <ele>665</ele>
        <time>2015-07-08T07:31:18Z</time>
      </trkpt>
      <trkpt lat="46.2198" lon="4.57333">
        <ele>666</ele>
        <time>2015-07-08T07:31:30Z</time>
      </trkpt>
      <trkpt lat="46.21977" lon="4.57321">
        <ele>667</ele>
        <time>2015-07-08T07:31:42Z</time>
      </trkpt>
      <trkpt lat="46.21979" lon="4.57314">
        <ele>667</ele>
        <time>2015-07-08T07:31:47Z</time>
      </trkpt>
      <trkpt lat="46.21974" lon="4.57309">
        <ele>667</ele>
        <time>2015-07-08T07:31:52Z</time>
      </trkpt>
      <trkpt lat="46.21954" lon="4.57287">
        <ele>668</ele>
        <time>2015-07-08T07:32:16Z</time>
      </trkpt>
      <trkpt lat="46.21951" lon="4.57281">
        <ele>670</ele>
        <time>2015-07-08T07:32:53Z</time>
      </trkpt>
      <trkpt lat="46.21949" lon="4.57275">
        <ele>669</ele>
        <time>2015-07-08T07:32:57Z</time>
      </trkpt>
      <trkpt lat="46.21947" lon="4.57269">
        <ele>669</ele>
        <time>2015-07-08T07:33:01Z</time>
      </trkpt>
      <trkpt lat="46.21927" lon="4.57227">
        <ele>671</ele>
        <time>2015-07-08T07:33:31Z</time>
      </trkpt>
      <trkpt lat="46.21925" lon="4.57221">
        <ele>671</ele>
        <time>2015-07-08T07:33:36Z</time>
      </trkpt>
      <trkpt lat="46.21897" lon="4.57181">
        <ele>673</ele>
        <time>2015-07-08T07:34:08Z</time>
      </trkpt>
      <trkpt lat="46.21889" lon="4.57168">
        <ele>674</ele>
        <time>2015-07-08T07:34:18Z</time>
      </trkpt>
      <trkpt lat="46.21884" lon="4.57164">
        <ele>674</ele>
        <time>2015-07-08T07:34:22Z</time>
      </trkpt>
      <trkpt lat="46.21881" lon="4.57159">
        <ele>674</ele>
        <time>2015-07-08T07:34:28Z</time>
      </trkpt>
      <trkpt lat="46.21877" lon="4.57153">
        <ele>674</ele>
        <time>2015-07-08T07:34:33Z</time>
      </trkpt>
      <trkpt lat="46.21872" lon="4.57143">
        <ele>675</ele>
        <time>2015-07-08T07:34:41Z</time>
      </trkpt>
      <trkpt lat="46.21858" lon="4.5712">
        <ele>675</ele>
        <time>2015-07-08T07:34:58Z</time>
      </trkpt>
      <trkpt lat="46.21849" lon="4.57111">
        <ele>675</ele>
        <time>2015-07-08T07:35:07Z</time>
      </trkpt>
      <trkpt lat="46.21832" lon="4.57084">
        <ele>674</ele>
        <time>2015-07-08T07:35:35Z</time>
      </trkpt>
      <trkpt lat="46.21809" lon="4.57057">
        <ele>676</ele>
        <time>2015-07-08T07:36:00Z</time>
      </trkpt>
      <trkpt lat="46.21801" lon="4.57047">
        <ele>676</ele>
        <time>2015-07-08T07:36:11Z</time>
      </trkpt>
      <trkpt lat="46.21778" lon="4.57022">
        <ele>677</ele>
        <time>2015-07-08T07:38:15Z</time>
      </trkpt>
      <trkpt lat="46.2177" lon="4.57015">
        <ele>677</ele>
        <time>2015-07-08T07:38:25Z</time>
      </trkpt>
      <trkpt lat="46.2174" lon="4.5699">
        <ele>677</ele>
        <time>2015-07-08T07:38:55Z</time>
      </trkpt>
      <trkpt lat="46.21706" lon="4.5696">
        <ele>677</ele>
        <time>2015-07-08T07:39:29Z</time>
      </trkpt>
      <trkpt lat="46.2168" lon="4.5694">
        <ele>676</ele>
        <time>2015-07-08T07:39:59Z</time>
      </trkpt>
      <trkpt lat="46.2167" lon="4.56936">
        <ele>675</ele>
        <time>2015-07-08T07:40:08Z</time>
      </trkpt>
      <trkpt lat="46.2165" lon="4.5693">
        <ele>673</ele>
        <time>2015-07-08T07:40:29Z</time>
      </trkpt>
      <trkpt lat="46.21631" lon="4.56916">
        <ele>673</ele>
        <time>2015-07-08T07:40:51Z</time>
      </trkpt>
      <trkpt lat="46.21627" lon="4.5691">
        <ele>672</ele>
        <time>2015-07-08T07:41:10Z</time>
      </trkpt>
      <trkpt lat="46.2159" lon="4.56888">
        <ele>669</ele>
        <time>2015-07-08T07:41:41Z</time>
      </trkpt>
      <trkpt lat="46.21552" lon="4.56867">
        <ele>668</ele>
        <time>2015-07-08T07:42:13Z</time>
      </trkpt>
      <trkpt lat="46.21517" lon="4.56854">
        <ele>667</ele>
        <time>2015-07-08T07:42:44Z</time>
      </trkpt>
      <trkpt lat="46.21479" lon="4.56838">
        <ele>666</ele>
        <time>2015-07-08T07:43:18Z</time>
      </trkpt>
      <trkpt lat="46.21461" lon="4.56831">
        <ele>665</ele>
        <time>2015-07-08T07:43:37Z</time>
      </trkpt>
      <trkpt lat="46.21452" lon="4.56829">
        <ele>665</ele>
        <time>2015-07-08T07:43:45Z</time>
      </trkpt>
      <trkpt lat="46.21432" lon="4.56824">
        <ele>666</ele>
        <time>2015-07-08T07:44:03Z</time>
      </trkpt>
      <trkpt lat="46.214" lon="4.5681">
        <ele>671</ele>
        <time>2015-07-08T07:44:35Z</time>
      </trkpt>
      <trkpt lat="46.21364" lon="4.56783">
        <ele>674</ele>
        <time>2015-07-08T07:45:08Z</time>
      </trkpt>
      <trkpt lat="46.21351" lon="4.5677">
        <ele>675</ele>
        <time>2015-07-08T07:45:22Z</time>
      </trkpt>
      <trkpt lat="46.21346" lon="4.5677">
        <ele>675</ele>
        <time>2015-07-08T07:45:27Z</time>
      </trkpt>
      <trkpt lat="46.21343" lon="4.56765">
        <ele>675</ele>
        <time>2015-07-08T07:45:30Z</time>
      </trkpt>
      <trkpt lat="46.21334" lon="4.56756">
        <ele>675</ele>
        <time>2015-07-08T07:45:40Z</time>
      </trkpt>
      <trkpt lat="46.21332" lon="4.5675">
        <ele>675</ele>
        <time>2015-07-08T07:45:43Z</time>
      </trkpt>
      <trkpt lat="46.21331" lon="4.56743">
        <ele>675</ele>
        <time>2015-07-08T07:45:49Z</time>
      </trkpt>
      <trkpt lat="46.21325" lon="4.56732">
        <ele>675</ele>
        <time>2015-07-08T07:45:55Z</time>
      </trkpt>
      <trkpt lat="46.21319" lon="4.56725">
        <ele>674</ele>
        <time>2015-07-08T07:45:59Z</time>
      </trkpt>
      <trkpt lat="46.21315" lon="4.56722">
        <ele>674</ele>
        <time>2015-07-08T07:46:04Z</time>
      </trkpt>
      <trkpt lat="46.21311" lon="4.56722">
        <ele>675</ele>
        <time>2015-07-08T07:46:07Z</time>
      </trkpt>
      <trkpt lat="46.21307" lon="4.56715">
        <ele>675</ele>
        <time>2015-07-08T07:46:10Z</time>
      </trkpt>
      <trkpt lat="46.21299" lon="4.56697">
        <ele>675</ele>
        <time>2015-07-08T07:46:24Z</time>
      </trkpt>
      <trkpt lat="46.21286" lon="4.56683">
        <ele>676</ele>
        <time>2015-07-08T07:46:38Z</time>
      </trkpt>
      <trkpt lat="46.21282" lon="4.56685">
        <ele>676</ele>
        <time>2015-07-08T07:46:41Z</time>
      </trkpt>
      <trkpt lat="46.21277" lon="4.56684">
        <ele>676</ele>
        <time>2015-07-08T07:46:46Z</time>
      </trkpt>
      <trkpt lat="46.21275" lon="4.56676">
        <ele>676</ele>
        <time>2015-07-08T07:46:51Z</time>
      </trkpt>
      <trkpt lat="46.21269" lon="4.56657">
        <ele>677</ele>
        <time>2015-07-08T07:46:59Z</time>
      </trkpt>
      <trkpt lat="46.21271" lon="4.5665">
        <ele>677</ele>
        <time>2015-07-08T07:47:04Z</time>
      </trkpt>
      <trkpt lat="46.2127" lon="4.56645">
        <ele>677</ele>
        <time>2015-07-08T07:47:07Z</time>
      </trkpt>
      <trkpt lat="46.21247" lon="4.56603">
        <ele>678</ele>
        <time>2015-07-08T07:47:32Z</time>
      </trkpt>
      <trkpt lat="46.21246" lon="4.56597">
        <ele>679</ele>
        <time>2015-07-08T07:47:39Z</time>
      </trkpt>
      <trkpt lat="46.21242" lon="4.56593">
        <ele>679</ele>
        <time>2015-07-08T07:47:44Z</time>
      </trkpt>
      <trkpt lat="46.21239" lon="4.56588">
        <ele>679</ele>
        <time>2015-07-08T07:47:47Z</time>
      </trkpt>
      <trkpt lat="46.21236" lon="4.56576">
        <ele>680</ele>
        <time>2015-07-08T07:47:51Z</time>
      </trkpt>
      <trkpt lat="46.2123" lon="4.56526">
        <ele>684</ele>
        <time>2015-07-08T07:48:23Z</time>
      </trkpt>
      <trkpt lat="46.21225" lon="4.56491">
        <ele>687</ele>
        <time>2015-07-08T07:48:43Z</time>
      </trkpt>
      <trkpt lat="46.21225" lon="4.56483">
        <ele>687</ele>
        <time>2015-07-08T07:48:47Z</time>
      </trkpt>
      <trkpt lat="46.21222" lon="4.56459">
        <ele>689</ele>
        <time>2015-07-08T07:49:19Z</time>
      </trkpt>
      <trkpt lat="46.21219" lon="4.56444">
        <ele>690</ele>
        <time>2015-07-08T07:49:29Z</time>
      </trkpt>
      <trkpt lat="46.21218" lon="4.56436">
        <ele>689</ele>
        <time>2015-07-08T07:49:33Z</time>
      </trkpt>
      <trkpt lat="46.21216" lon="4.56429">
        <ele>689</ele>
        <time>2015-07-08T07:49:37Z</time>
      </trkpt>
      <trkpt lat="46.21215" lon="4.56422">
        <ele>689</ele>
        <time>2015-07-08T07:49:41Z</time>
      </trkpt>
      <trkpt lat="46.21214" lon="4.56415">
        <ele>689</ele>
        <time>2015-07-08T07:49:45Z</time>
      </trkpt>
      <trkpt lat="46.2121" lon="4.56366">
        <ele>690</ele>
        <time>2015-07-08T07:50:17Z</time>
      </trkpt>
      <trkpt lat="46.21206" lon="4.56331">
        <ele>689</ele>
        <time>2015-07-08T07:50:41Z</time>
      </trkpt>
      <trkpt lat="46.21206" lon="4.56309">
        <ele>689</ele>
        <time>2015-07-08T07:50:58Z</time>
      </trkpt>
      <trkpt lat="46.21206" lon="4.56302">
        <ele>690</ele>
        <time>2015-07-08T07:51:03Z</time>
      </trkpt>
      <trkpt lat="46.21204" lon="4.5623">
        <ele>692</ele>
        <time>2015-07-08T07:51:39Z</time>
      </trkpt>
      <trkpt lat="46.21193" lon="4.56157">
        <ele>693</ele>
        <time>2015-07-08T07:52:19Z</time>
      </trkpt>
      <trkpt lat="46.21188" lon="4.56104">
        <ele>697</ele>
        <time>2015-07-08T07:52:51Z</time>
      </trkpt>
      <trkpt lat="46.21178" lon="4.56069">
        <ele>699</ele>
        <time>2015-07-08T07:53:10Z</time>
      </trkpt>
      <trkpt lat="46.2118" lon="4.56066">
        <ele>700</ele>
        <time>2015-07-08T07:53:21Z</time>
      </trkpt>
      <trkpt lat="46.21178" lon="4.56059">
        <ele>700</ele>
        <time>2015-07-08T07:53:25Z</time>
      </trkpt>
      <trkpt lat="46.21176" lon="4.56052">
        <ele>700</ele>
        <time>2015-07-08T07:53:29Z</time>
      </trkpt>
      <trkpt lat="46.21171" lon="4.5601">
        <ele>699</ele>
        <time>2015-07-08T07:53:54Z</time>
      </trkpt>
      <trkpt lat="46.21168" lon="4.56004">
        <ele>699</ele>
        <time>2015-07-08T07:53:58Z</time>
      </trkpt>
      <trkpt lat="46.21164" lon="4.55942">
        <ele>703</ele>
        <time>2015-07-08T07:54:33Z</time>
      </trkpt>
      <trkpt lat="46.21159" lon="4.55873">
        <ele>706</ele>
        <time>2015-07-08T07:55:08Z</time>
      </trkpt>
      <trkpt lat="46.21156" lon="4.55831">
        <ele>706</ele>
        <time>2015-07-08T07:55:31Z</time>
      </trkpt>
      <trkpt lat="46.21154" lon="4.55824">
        <ele>705</ele>
        <time>2015-07-08T07:55:35Z</time>
      </trkpt>
      <trkpt lat="46.21152" lon="4.5581">
        <ele>705</ele>
        <time>2015-07-08T07:55:43Z</time>
      </trkpt>
      <trkpt lat="46.2115" lon="4.55804">
        <ele>706</ele>
        <time>2015-07-08T07:55:47Z</time>
      </trkpt>
      <trkpt lat="46.21146" lon="4.55782">
        <ele>707</ele>
        <time>2015-07-08T07:56:01Z</time>
      </trkpt>
      <trkpt lat="46.21141" lon="4.55769">
        <ele>709</ele>
        <time>2015-07-08T07:56:08Z</time>
      </trkpt>
      <trkpt lat="46.21141" lon="4.55761">
        <ele>709</ele>
        <time>2015-07-08T07:56:13Z</time>
      </trkpt>
      <trkpt lat="46.21145" lon="4.55747">
        <ele>710</ele>
        <time>2015-07-08T07:56:19Z</time>
      </trkpt>
      <trkpt lat="46.21146" lon="4.55687">
        <ele>715</ele>
        <time>2015-07-08T07:56:50Z</time>
      </trkpt>
      <trkpt lat="46.21149" lon="4.5565">
        <ele>717</ele>
        <time>2015-07-08T07:57:11Z</time>
      </trkpt>
      <trkpt lat="46.21149" lon="4.55642">
        <ele>717</ele>
        <time>2015-07-08T07:57:15Z</time>
      </trkpt>
      <trkpt lat="46.21148" lon="4.55606">
        <ele>721</ele>
        <time>2015-07-08T07:58:02Z</time>
      </trkpt>
      <trkpt lat="46.2115" lon="4.55598">
        <ele>721</ele>
        <time>2015-07-08T07:58:06Z</time>
      </trkpt>
      <trkpt lat="46.21152" lon="4.55585">
        <ele>721</ele>
        <time>2015-07-08T07:58:14Z</time>
      </trkpt>
      <trkpt lat="46.21153" lon="4.55578">
        <ele>721</ele>
        <time>2015-07-08T07:58:18Z</time>
      </trkpt>
      <trkpt lat="46.21152" lon="4.5557">
        <ele>724</ele>
        <time>2015-07-08T07:58:23Z</time>
      </trkpt>
      <trkpt lat="46.21154" lon="4.55557">
        <ele>724</ele>
        <time>2015-07-08T07:58:31Z</time>
      </trkpt>
      <trkpt lat="46.21152" lon="4.5555">
        <ele>725</ele>
        <time>2015-07-08T07:58:35Z</time>
      </trkpt>
      <trkpt lat="46.21151" lon="4.55543">
        <ele>725</ele>
        <time>2015-07-08T07:58:39Z</time>
      </trkpt>
      <trkpt lat="46.21152" lon="4.55522">
        <ele>726</ele>
        <time>2015-07-08T07:58:52Z</time>
      </trkpt>
      <trkpt lat="46.21152" lon="4.55515">
        <ele>727</ele>
        <time>2015-07-08T07:58:57Z</time>
      </trkpt>
      <trkpt lat="46.2115" lon="4.55494">
        <ele>728</ele>
        <time>2015-07-08T07:59:09Z</time>
      </trkpt>
      <trkpt lat="46.21151" lon="4.55488">
        <ele>728</ele>
        <time>2015-07-08T07:59:14Z</time>
      </trkpt>
      <trkpt lat="46.21138" lon="4.55431">
        <ele>731</ele>
        <time>2015-07-08T07:59:47Z</time>
      </trkpt>
      <trkpt lat="46.21128" lon="4.55367">
        <ele>733</ele>
        <time>2015-07-08T08:00:21Z</time>
      </trkpt>
      <trkpt lat="46.21128" lon="4.55347">
        <ele>734</ele>
        <time>2015-07-08T08:00:37Z</time>
      </trkpt>
      <trkpt lat="46.21127" lon="4.55342">
        <ele>734</ele>
        <time>2015-07-08T08:01:04Z</time>
      </trkpt>
      <trkpt lat="46.21124" lon="4.55335">
        <ele>734</ele>
        <time>2015-07-08T08:01:09Z</time>
      </trkpt>
      <trkpt lat="46.21123" lon="4.5533">
        <ele>734</ele>
        <time>2015-07-08T08:01:18Z</time>
      </trkpt>
      <trkpt lat="46.21127" lon="4.55326">
        <ele>734</ele>
        <time>2015-07-08T08:02:14Z</time>
      </trkpt>
      <trkpt lat="46.21128" lon="4.55318">
        <ele>734</ele>
        <time>2015-07-08T08:02:31Z</time>
      </trkpt>
      <trkpt lat="46.2113" lon="4.55311">
        <ele>734</ele>
        <time>2015-07-08T08:02:36Z</time>
      </trkpt>
      <trkpt lat="46.21132" lon="4.55305">
        <ele>733</ele>
        <time>2015-07-08T08:02:40Z</time>
      </trkpt>
      <trkpt lat="46.21133" lon="4.55299">
        <ele>733</ele>
        <time>2015-07-08T08:02:44Z</time>
      </trkpt>
      <trkpt lat="46.21135" lon="4.55286">
        <ele>731</ele>
        <time>2015-07-08T08:02:53Z</time>
      </trkpt>
      <trkpt lat="46.21137" lon="4.55279">
        <ele>730</ele>
        <time>2015-07-08T08:02:57Z</time>
      </trkpt>
      <trkpt lat="46.21137" lon="4.55271">
        <ele>730</ele>
        <time>2015-07-08T08:03:00Z</time>
      </trkpt>
      <trkpt lat="46.21142" lon="4.55258">
        <ele>731</ele>
        <time>2015-07-08T08:03:15Z</time>
      </trkpt>
      <trkpt lat="46.21139" lon="4.55252">
        <ele>731</ele>
        <time>2015-07-08T08:03:18Z</time>
      </trkpt>
      <trkpt lat="46.21135" lon="4.55247">
        <ele>731</ele>
        <time>2015-07-08T08:03:21Z</time>
      </trkpt>
      <trkpt lat="46.21133" lon="4.55235">
        <ele>731</ele>
        <time>2015-07-08T08:03:27Z</time>
      </trkpt>
      <trkpt lat="46.21134" lon="4.55228">
        <ele>731</ele>
        <time>2015-07-08T08:03:31Z</time>
      </trkpt>
      <trkpt lat="46.21139" lon="4.55228">
        <ele>731</ele>
        <time>2015-07-08T08:03:37Z</time>
      </trkpt>
      <trkpt lat="46.21142" lon="4.55229">
        <ele>730</ele>
        <time>2015-07-08T08:03:43Z</time>
      </trkpt>
      <trkpt lat="46.21144" lon="4.55229">
        <ele>729</ele>
        <time>2015-07-08T08:03:49Z</time>
      </trkpt>
      <trkpt lat="46.21145" lon="4.55223">
        <ele>729</ele>
        <time>2015-07-08T08:04:25Z</time>
      </trkpt>
      <trkpt lat="46.2115" lon="4.55219">
        <ele>729</ele>
        <time>2015-07-08T08:04:30Z</time>
      </trkpt>
      <trkpt lat="46.21148" lon="4.5521">
        <ele>728</ele>
        <time>2015-07-08T08:04:35Z</time>
      </trkpt>
      <trkpt lat="46.21145" lon="4.55204">
        <ele>728</ele>
        <time>2015-07-08T08:04:38Z</time>
      </trkpt>
      <trkpt lat="46.21141" lon="4.5519">
        <ele>729</ele>
        <time>2015-07-08T08:04:50Z</time>
      </trkpt>
      <trkpt lat="46.2114" lon="4.55182">
        <ele>729</ele>
        <time>2015-07-08T08:04:55Z</time>
      </trkpt>
      <trkpt lat="46.21135" lon="4.55167">
        <ele>728</ele>
        <time>2015-07-08T08:05:04Z</time>
      </trkpt>
      <trkpt lat="46.2113" lon="4.55148">
        <ele>727</ele>
        <time>2015-07-08T08:05:14Z</time>
      </trkpt>
      <trkpt lat="46.21118" lon="4.55096">
        <ele>726</ele>
        <time>2015-07-08T08:05:51Z</time>
      </trkpt>
      <trkpt lat="46.21111" lon="4.55057">
        <ele>725</ele>
        <time>2015-07-08T08:06:14Z</time>
      </trkpt>
      <trkpt lat="46.21109" lon="4.55051">
        <ele>724</ele>
        <time>2015-07-08T08:06:18Z</time>
      </trkpt>
      <trkpt lat="46.21106" lon="4.55044">
        <ele>724</ele>
        <time>2015-07-08T08:06:23Z</time>
      </trkpt>
      <trkpt lat="46.21104" lon="4.55038">
        <ele>724</ele>
        <time>2015-07-08T08:06:27Z</time>
      </trkpt>
      <trkpt lat="46.211" lon="4.55015">
        <ele>723</ele>
        <time>2015-07-08T08:06:39Z</time>
      </trkpt>
      <trkpt lat="46.21101" lon="4.55007">
        <ele>723</ele>
        <time>2015-07-08T08:06:43Z</time>
      </trkpt>
      <trkpt lat="46.21104" lon="4.55002">
        <ele>723</ele>
        <time>2015-07-08T08:06:45Z</time>
      </trkpt>
      <trkpt lat="46.21102" lon="4.55">
        <ele>720</ele>
        <time>2015-07-08T08:06:58Z</time>
      </trkpt>
      <trkpt lat="46.21101" lon="4.54993">
        <ele>720</ele>
        <time>2015-07-08T08:07:04Z</time>
      </trkpt>
      <trkpt lat="46.21091" lon="4.54954">
        <ele>712</ele>
        <time>2015-07-08T08:07:39Z</time>
      </trkpt>
      <trkpt lat="46.21087" lon="4.54948">
        <ele>710</ele>
        <time>2015-07-08T08:07:45Z</time>
      </trkpt>
      <trkpt lat="46.21083" lon="4.54935">
        <ele>709</ele>
        <time>2015-07-08T08:07:53Z</time>
      </trkpt>
      <trkpt lat="46.2108" lon="4.54931">
        <ele>708</ele>
        <time>2015-07-08T08:07:59Z</time>
      </trkpt>
      <trkpt lat="46.21069" lon="4.54904">
        <ele>703</ele>
        <time>2015-07-08T08:08:27Z</time>
      </trkpt>
      <trkpt lat="46.21067" lon="4.54898">
        <ele>703</ele>
        <time>2015-07-08T08:08:31Z</time>
      </trkpt>
      <trkpt lat="46.21059" lon="4.54883">
        <ele>700</ele>
        <time>2015-07-08T08:08:42Z</time>
      </trkpt>
      <trkpt lat="46.21057" lon="4.54876">
        <ele>700</ele>
        <time>2015-07-08T08:08:46Z</time>
      </trkpt>
      <trkpt lat="46.21056" lon="4.54869">
        <ele>700</ele>
        <time>2015-07-08T08:08:52Z</time>
      </trkpt>
      <trkpt lat="46.21052" lon="4.54857">
        <ele>700</ele>
        <time>2015-07-08T08:08:58Z</time>
      </trkpt>
      <trkpt lat="46.21039" lon="4.54817">
        <ele>697</ele>
        <time>2015-07-08T08:09:29Z</time>
      </trkpt>
      <trkpt lat="46.21037" lon="4.54811">
        <ele>697</ele>
        <time>2015-07-08T08:09:34Z</time>
      </trkpt>
      <trkpt lat="46.21021" lon="4.54765">
        <ele>694</ele>
        <time>2015-07-08T08:10:06Z</time>
      </trkpt>
      <trkpt lat="46.21011" lon="4.54723">
        <ele>691</ele>
        <time>2015-07-08T08:10:39Z</time>
      </trkpt>
      <trkpt lat="46.20998" lon="4.54675">
        <ele>688</ele>
        <time>2015-07-08T08:11:11Z</time>
      </trkpt>
      <trkpt lat="46.20972" lon="4.54626">
        <ele>683</ele>
        <time>2015-07-08T08:11:43Z</time>
      </trkpt>
      <trkpt lat="46.20962" lon="4.54576">
        <ele>679</ele>
        <time>2015-07-08T08:12:14Z</time>
      </trkpt>
      <trkpt lat="46.20948" lon="4.54519">
        <ele>675</ele>
        <time>2015-07-08T08:12:46Z</time>
      </trkpt>
      <trkpt lat="46.20929" lon="4.54467">
        <ele>670</ele>
        <time>2015-07-08T08:13:19Z</time>
      </trkpt>
      <trkpt lat="46.20923" lon="4.54444">
        <ele>668</ele>
        <time>2015-07-08T08:14:10Z</time>
      </trkpt>
      <trkpt lat="46.20921" lon="4.54437">
        <ele>669</ele>
        <time>2015-07-08T08:14:14Z</time>
      </trkpt>
      <trkpt lat="46.20913" lon="4.54401">
        <ele>664</ele>
        <time>2015-07-08T08:14:38Z</time>
      </trkpt>
      <trkpt lat="46.2091" lon="4.54386">
        <ele>664</ele>
        <time>2015-07-08T08:14:45Z</time>
      </trkpt>
      <trkpt lat="46.20905" lon="4.54373">
        <ele>663</ele>
        <time>2015-07-08T08:14:55Z</time>
      </trkpt>
      <trkpt lat="46.20903" lon="4.54364">
        <ele>663</ele>
        <time>2015-07-08T08:14:59Z</time>
      </trkpt>
      <trkpt lat="46.2089" lon="4.54309">
        <ele>661</ele>
        <time>2015-07-08T08:15:31Z</time>
      </trkpt>
      <trkpt lat="46.20885" lon="4.54304">
        <ele>660</ele>
        <time>2015-07-08T08:15:37Z</time>
      </trkpt>
      <trkpt lat="46.20862" lon="4.54255">
        <ele>658</ele>
        <time>2015-07-08T08:16:09Z</time>
      </trkpt>
      <trkpt lat="46.2086" lon="4.54246">
        <ele>658</ele>
        <time>2015-07-08T08:16:14Z</time>
      </trkpt>
      <trkpt lat="46.2086" lon="4.54232">
        <ele>659</ele>
        <time>2015-07-08T08:16:24Z</time>
      </trkpt>
      <trkpt lat="46.20859" lon="4.54225">
        <ele>659</ele>
        <time>2015-07-08T08:16:29Z</time>
      </trkpt>
      <trkpt lat="46.20861" lon="4.54203">
        <ele>657</ele>
        <time>2015-07-08T08:16:43Z</time>
      </trkpt>
      <trkpt lat="46.2086" lon="4.54192">
        <ele>657</ele>
        <time>2015-07-08T08:16:48Z</time>
      </trkpt>
      <trkpt lat="46.20861" lon="4.54187">
        <ele>657</ele>
        <time>2015-07-08T08:16:54Z</time>
      </trkpt>
      <trkpt lat="46.20859" lon="4.54181">
        <ele>656</ele>
        <time>2015-07-08T08:16:59Z</time>
      </trkpt>
      <trkpt lat="46.20856" lon="4.54174">
        <ele>656</ele>
        <time>2015-07-08T08:17:03Z</time>
      </trkpt>
      <trkpt lat="46.20848" lon="4.54147">
        <ele>653</ele>
        <time>2015-07-08T08:17:19Z</time>
      </trkpt>
      <trkpt lat="46.20847" lon="4.54126">
        <ele>651</ele>
        <time>2015-07-08T08:17:29Z</time>
      </trkpt>
      <trkpt lat="46.20841" lon="4.54122">
        <ele>651</ele>
        <time>2015-07-08T08:17:34Z</time>
      </trkpt>
      <trkpt lat="46.20836" lon="4.54111">
        <ele>650</ele>
        <time>2015-07-08T08:17:39Z</time>
      </trkpt>
      <trkpt lat="46.20822" lon="4.54103">
        <ele>645</ele>
        <time>2015-07-08T08:17:56Z</time>
      </trkpt>
      <trkpt lat="46.20819" lon="4.54103">
        <ele>644</ele>
        <time>2015-07-08T08:17:58Z</time>
      </trkpt>
      <trkpt lat="46.20817" lon="4.54105">
        <ele>644</ele>
        <time>2015-07-08T08:17:59Z</time>
      </trkpt>
      <trkpt lat="46.20812" lon="4.54106">
        <ele>643</ele>
        <time>2015-07-08T08:18:04Z</time>
      </trkpt>
      <trkpt lat="46.20797" lon="4.541">
        <ele>641</ele>
        <time>2015-07-08T08:18:15Z</time>
      </trkpt>
      <trkpt lat="46.20791" lon="4.54093">
        <ele>640</ele>
        <time>2015-07-08T08:18:19Z</time>
      </trkpt>
      <trkpt lat="46.20785" lon="4.54087">
        <ele>638</ele>
        <time>2015-07-08T08:18:27Z</time>
      </trkpt>
      <trkpt lat="46.20782" lon="4.54083">
        <ele>638</ele>
        <time>2015-07-08T08:18:31Z</time>
      </trkpt>
      <trkpt lat="46.20776" lon="4.54069">
        <ele>635</ele>
        <time>2015-07-08T08:18:41Z</time>
      </trkpt>
      <trkpt lat="46.20774" lon="4.54064">
        <ele>635</ele>
        <time>2015-07-08T08:18:43Z</time>
      </trkpt>
      <trkpt lat="46.20767" lon="4.54044">
        <ele>633</ele>
        <time>2015-07-08T08:18:58Z</time>
      </trkpt>
      <trkpt lat="46.20754" lon="4.54006">
        <ele>631</ele>
        <time>2015-07-08T08:19:25Z</time>
      </trkpt>
      <trkpt lat="46.20752" lon="4.54">
        <ele>630</ele>
        <time>2015-07-08T08:20:20Z</time>
      </trkpt>
      <trkpt lat="46.20749" lon="4.53994">
        <ele>630</ele>
        <time>2015-07-08T08:20:24Z</time>
      </trkpt>
      <trkpt lat="46.20734" lon="4.5395">
        <ele>629</ele>
        <time>2015-07-08T08:20:56Z</time>
      </trkpt>
      <trkpt lat="46.20714" lon="4.53902">
        <ele>628</ele>
        <time>2015-07-08T08:21:23Z</time>
      </trkpt>
      <trkpt lat="46.20711" lon="4.53896">
        <ele>628</ele>
        <time>2015-07-08T08:21:30Z</time>
      </trkpt>
      <trkpt lat="46.20708" lon="4.5389">
        <ele>627</ele>
        <time>2015-07-08T08:21:34Z</time>
      </trkpt>
      <trkpt lat="46.20705" lon="4.53867">
        <ele>627</ele>
        <time>2015-07-08T08:21:47Z</time>
      </trkpt>
      <trkpt lat="46.20703" lon="4.5386">
        <ele>627</ele>
        <time>2015-07-08T08:21:51Z</time>
      </trkpt>
      <trkpt lat="46.20701" lon="4.53839">
        <ele>627</ele>
        <time>2015-07-08T08:22:03Z</time>
      </trkpt>
      <trkpt lat="46.20701" lon="4.5383">
        <ele>627</ele>
        <time>2015-07-08T08:22:08Z</time>
      </trkpt>
      <trkpt lat="46.20703" lon="4.53816">
        <ele>626</ele>
        <time>2015-07-08T08:22:16Z</time>
      </trkpt>
      <trkpt lat="46.20704" lon="4.53809">
        <ele>626</ele>
        <time>2015-07-08T08:22:20Z</time>
      </trkpt>
      <trkpt lat="46.20706" lon="4.53802">
        <ele>626</ele>
        <time>2015-07-08T08:22:24Z</time>
      </trkpt>
      <trkpt lat="46.20706" lon="4.53763">
        <ele>626</ele>
        <time>2015-07-08T08:22:50Z</time>
      </trkpt>
      <trkpt lat="46.20703" lon="4.53754">
        <ele>625</ele>
        <time>2015-07-08T08:22:54Z</time>
      </trkpt>
      <trkpt lat="46.20693" lon="4.53738">
        <ele>625</ele>
        <time>2015-07-08T08:23:06Z</time>
      </trkpt>
      <trkpt lat="46.2069" lon="4.53724">
        <ele>625</ele>
        <time>2015-07-08T08:23:15Z</time>
      </trkpt>
      <trkpt lat="46.20687" lon="4.53718">
        <ele>625</ele>
        <time>2015-07-08T08:23:19Z</time>
      </trkpt>
      <trkpt lat="46.20683" lon="4.53683">
        <ele>626</ele>
        <time>2015-07-08T08:23:39Z</time>
      </trkpt>
      <trkpt lat="46.2068" lon="4.53677">
        <ele>625</ele>
        <time>2015-07-08T08:23:43Z</time>
      </trkpt>
      <trkpt lat="46.2068" lon="4.53669">
        <ele>626</ele>
        <time>2015-07-08T08:23:48Z</time>
      </trkpt>
      <trkpt lat="46.20683" lon="4.53664">
        <ele>626</ele>
        <time>2015-07-08T08:23:52Z</time>
      </trkpt>
      <trkpt lat="46.20687" lon="4.53659">
        <ele>626</ele>
        <time>2015-07-08T08:23:57Z</time>
      </trkpt>
      <trkpt lat="46.20692" lon="4.53647">
        <ele>626</ele>
        <time>2015-07-08T08:24:05Z</time>
      </trkpt>
      <trkpt lat="46.20698" lon="4.53641">
        <ele>626</ele>
        <time>2015-07-08T08:24:10Z</time>
      </trkpt>
      <trkpt lat="46.20699" lon="4.53633">
        <ele>626</ele>
        <time>2015-07-08T08:24:15Z</time>
      </trkpt>
      <trkpt lat="46.20699" lon="4.53621">
        <ele>626</ele>
        <time>2015-07-08T08:24:23Z</time>
      </trkpt>
      <trkpt lat="46.20698" lon="4.53614">
        <ele>625</ele>
        <time>2015-07-08T08:24:49Z</time>
      </trkpt>
      <trkpt lat="46.207" lon="4.53612">
        <ele>625</ele>
        <time>2015-07-08T08:25:19Z</time>
      </trkpt>
      <trkpt lat="46.207" lon="4.53607">
        <ele>625</ele>
        <time>2015-07-08T08:29:22Z</time>
      </trkpt>
      <trkpt lat="46.20703" lon="4.53601">
        <ele>627</ele>
        <time>2015-07-08T08:30:49Z</time>
      </trkpt>
      <trkpt lat="46.20703" lon="4.53601">
        <ele>627</ele>
        <time>2015-07-08T08:32:24Z</time>
      </trkpt>
      <trkpt lat="46.20708" lon="4.53604">
        <ele>629</ele>
        <time>2015-07-08T08:34:53Z</time>
      </trkpt>
      <trkpt lat="46.2071" lon="4.53596">
        <ele>629</ele>
        <time>2015-07-08T08:39:09Z</time>
      </trkpt>
      <trkpt lat="46.20709" lon="4.53581">
        <ele>630</ele>
        <time>2015-07-08T08:39:21Z</time>
      </trkpt>
      <trkpt lat="46.20712" lon="4.53572">
        <ele>630</ele>
        <time>2015-07-08T08:39:35Z</time>
      </trkpt>
      <trkpt lat="46.20712" lon="4.53565">
        <ele>629</ele>
        <time>2015-07-08T08:39:43Z</time>
      </trkpt>
      <trkpt lat="46.20708" lon="4.5356">
        <ele>629</ele>
        <time>2015-07-08T08:39:47Z</time>
      </trkpt>
      <trkpt lat="46.20695" lon="4.53547">
        <ele>630</ele>
        <time>2015-07-08T08:40:03Z</time>
      </trkpt>
      <trkpt lat="46.20692" lon="4.5354">
        <ele>630</ele>
        <time>2015-07-08T08:40:10Z</time>
      </trkpt>
      <trkpt lat="46.20693" lon="4.53531">
        <ele>629</ele>
        <time>2015-07-08T08:40:15Z</time>
      </trkpt>
      <trkpt lat="46.20696" lon="4.53528">
        <ele>628</ele>
        <time>2015-07-08T08:40:24Z</time>
      </trkpt>
      <trkpt lat="46.20698" lon="4.53527">
        <ele>630</ele>
        <time>2015-07-08T08:40:30Z</time>
      </trkpt>
      <trkpt lat="46.20702" lon="4.53537">
        <ele>630</ele>
        <time>2015-07-08T08:43:35Z</time>
      </trkpt>
      <trkpt lat="46.20699" lon="4.53544">
        <ele>632</ele>
        <time>2015-07-08T08:48:29Z</time>
      </trkpt>
      <trkpt lat="46.20693" lon="4.53546">
        <ele>632</ele>
        <time>2015-07-08T08:50:21Z</time>
      </trkpt>
      <trkpt lat="46.20698" lon="4.53558">
        <ele>627</ele>
        <time>2015-07-08T08:50:28Z</time>
      </trkpt>
      <trkpt lat="46.20702" lon="4.53568">
        <ele>624</ele>
        <time>2015-07-08T08:50:34Z</time>
      </trkpt>
      <trkpt lat="46.20705" lon="4.53574">
        <ele>624</ele>
        <time>2015-07-08T08:50:38Z</time>
      </trkpt>
      <trkpt lat="46.2071" lon="4.53587">
        <ele>627</ele>
        <time>2015-07-08T08:50:46Z</time>
      </trkpt>
      <trkpt lat="46.2071" lon="4.53595">
        <ele>627</ele>
        <time>2015-07-08T08:50:51Z</time>
      </trkpt>
      <trkpt lat="46.20706" lon="4.536">
        <ele>627</ele>
        <time>2015-07-08T08:50:55Z</time>
      </trkpt>
      <trkpt lat="46.207" lon="4.53611">
        <ele>626</ele>
        <time>2015-07-08T08:51:03Z</time>
      </trkpt>
      <trkpt lat="46.20699" lon="4.53617">
        <ele>626</ele>
        <time>2015-07-08T08:51:07Z</time>
      </trkpt>
      <trkpt lat="46.207" lon="4.53624">
        <ele>626</ele>
        <time>2015-07-08T08:51:11Z</time>
      </trkpt>
      <trkpt lat="46.20699" lon="4.5363">
        <ele>626</ele>
        <time>2015-07-08T08:51:16Z</time>
      </trkpt>
      <trkpt lat="46.20695" lon="4.53635">
        <ele>626</ele>
        <time>2015-07-08T08:51:20Z</time>
      </trkpt>
      <trkpt lat="46.2069" lon="4.53638">
        <ele>626</ele>
        <time>2015-07-08T08:51:24Z</time>
      </trkpt>
      <trkpt lat="46.2068" lon="4.53643">
        <ele>625</ele>
        <time>2015-07-08T08:51:34Z</time>
      </trkpt>
      <trkpt lat="46.20678" lon="4.53645">
        <ele>625</ele>
        <time>2015-07-08T08:51:40Z</time>
      </trkpt>
      <trkpt lat="46.20674" lon="4.53646">
        <ele>625</ele>
        <time>2015-07-08T08:51:50Z</time>
      </trkpt>
      <trkpt lat="46.2067" lon="4.53651">
        <ele>625</ele>
        <time>2015-07-08T08:51:54Z</time>
      </trkpt>
      <trkpt lat="46.20637" lon="4.53678">
        <ele>625</ele>
        <time>2015-07-08T08:52:25Z</time>
      </trkpt>
      <trkpt lat="46.20615" lon="4.53676">
        <ele>624</ele>
        <time>2015-07-08T08:52:50Z</time>
      </trkpt>
      <trkpt lat="46.20595" lon="4.5367">
        <ele>624</ele>
        <time>2015-07-08T08:53:07Z</time>
      </trkpt>
      <trkpt lat="46.20565" lon="4.53671">
        <ele>623</ele>
        <time>2015-07-08T08:53:31Z</time>
      </trkpt>
      <trkpt lat="46.20525" lon="4.53672">
        <ele>622</ele>
        <time>2015-07-08T08:54:03Z</time>
      </trkpt>
      <trkpt lat="46.205" lon="4.53678">
        <ele>621</ele>
        <time>2015-07-08T08:54:27Z</time>
      </trkpt>
      <trkpt lat="46.20485" lon="4.53679">
        <ele>621</ele>
        <time>2015-07-08T08:54:40Z</time>
      </trkpt>
      <trkpt lat="46.20475" lon="4.53679">
        <ele>621</ele>
        <time>2015-07-08T08:54:50Z</time>
      </trkpt>
      <trkpt lat="46.20444" lon="4.53672">
        <ele>624</ele>
        <time>2015-07-08T08:55:13Z</time>
      </trkpt>
      <trkpt lat="46.20436" lon="4.53677">
        <ele>624</ele>
        <time>2015-07-08T08:55:20Z</time>
      </trkpt>
      <trkpt lat="46.20397" lon="4.5367">
        <ele>624</ele>
        <time>2015-07-08T08:55:52Z</time>
      </trkpt>
      <trkpt lat="46.20389" lon="4.53664">
        <ele>624</ele>
        <time>2015-07-08T08:55:59Z</time>
      </trkpt>
      <trkpt lat="46.2038" lon="4.53664">
        <ele>624</ele>
        <time>2015-07-08T08:56:06Z</time>
      </trkpt>
      <trkpt lat="46.2037" lon="4.53671">
        <ele>624</ele>
        <time>2015-07-08T08:56:13Z</time>
      </trkpt>
      <trkpt lat="46.2035" lon="4.53678">
        <ele>623</ele>
        <time>2015-07-08T08:56:28Z</time>
      </trkpt>
      <trkpt lat="46.20344" lon="4.53669">
        <ele>623</ele>
        <time>2015-07-08T08:56:34Z</time>
      </trkpt>
      <trkpt lat="46.20317" lon="4.53656">
        <ele>624</ele>
        <time>2015-07-08T08:57:06Z</time>
      </trkpt>
      <trkpt lat="46.20311" lon="4.5366">
        <ele>623</ele>
        <time>2015-07-08T08:58:34Z</time>
      </trkpt>
      <trkpt lat="46.20304" lon="4.53652">
        <ele>623</ele>
        <time>2015-07-08T08:58:48Z</time>
      </trkpt>
      <trkpt lat="46.20296" lon="4.53644">
        <ele>623</ele>
        <time>2015-07-08T08:58:59Z</time>
      </trkpt>
      <trkpt lat="46.20288" lon="4.53637">
        <ele>624</ele>
        <time>2015-07-08T08:59:07Z</time>
      </trkpt>
      <trkpt lat="46.20285" lon="4.53624">
        <ele>626</ele>
        <time>2015-07-08T08:59:17Z</time>
      </trkpt>
      <trkpt lat="46.20258" lon="4.53583">
        <ele>632</ele>
        <time>2015-07-08T08:59:55Z</time>
      </trkpt>
      <trkpt lat="46.20224" lon="4.53538">
        <ele>637</ele>
        <time>2015-07-08T09:00:33Z</time>
      </trkpt>
      <trkpt lat="46.2022" lon="4.53524">
        <ele>639</ele>
        <time>2015-07-08T09:00:42Z</time>
      </trkpt>
      <trkpt lat="46.20216" lon="4.53512">
        <ele>640</ele>
        <time>2015-07-08T09:00:49Z</time>
      </trkpt>
      <trkpt lat="46.20209" lon="4.53501">
        <ele>641</ele>
        <time>2015-07-08T09:00:59Z</time>
      </trkpt>
      <trkpt lat="46.20207" lon="4.53488">
        <ele>643</ele>
        <time>2015-07-08T09:01:12Z</time>
      </trkpt>
      <trkpt lat="46.20201" lon="4.53478">
        <ele>644</ele>
        <time>2015-07-08T09:01:22Z</time>
      </trkpt>
      <trkpt lat="46.20176" lon="4.53418">
        <ele>646</ele>
        <time>2015-07-08T09:01:58Z</time>
      </trkpt>
      <trkpt lat="46.20155" lon="4.5337">
        <ele>649</ele>
        <time>2015-07-08T09:02:28Z</time>
      </trkpt>
      <trkpt lat="46.20142" lon="4.53303">
        <ele>649</ele>
        <time>2015-07-08T09:02:59Z</time>
      </trkpt>
      <trkpt lat="46.20131" lon="4.53279">
        <ele>650</ele>
        <time>2015-07-08T09:03:14Z</time>
      </trkpt>
      <trkpt lat="46.20108" lon="4.53225">
        <ele>652</ele>
        <time>2015-07-08T09:03:46Z</time>
      </trkpt>
      <trkpt lat="46.20105" lon="4.53211">
        <ele>652</ele>
        <time>2015-07-08T09:03:54Z</time>
      </trkpt>
      <trkpt lat="46.20101" lon="4.53198">
        <ele>651</ele>
        <time>2015-07-08T09:04:01Z</time>
      </trkpt>
      <trkpt lat="46.20085" lon="4.53134">
        <ele>652</ele>
        <time>2015-07-08T09:04:37Z</time>
      </trkpt>
      <trkpt lat="46.20081" lon="4.53121">
        <ele>653</ele>
        <time>2015-07-08T09:04:45Z</time>
      </trkpt>
      <trkpt lat="46.2007" lon="4.53054">
        <ele>655</ele>
        <time>2015-07-08T09:05:20Z</time>
      </trkpt>
      <trkpt lat="46.20069" lon="4.5304">
        <ele>656</ele>
        <time>2015-07-08T09:05:30Z</time>
      </trkpt>
      <trkpt lat="46.20072" lon="4.53028">
        <ele>656</ele>
        <time>2015-07-08T09:05:37Z</time>
      </trkpt>
      <trkpt lat="46.20073" lon="4.53015">
        <ele>658</ele>
        <time>2015-07-08T09:05:44Z</time>
      </trkpt>
      <trkpt lat="46.2008" lon="4.52959">
        <ele>662</ele>
        <time>2015-07-08T09:06:16Z</time>
      </trkpt>
      <trkpt lat="46.20079" lon="4.52945">
        <ele>662</ele>
        <time>2015-07-08T09:06:24Z</time>
      </trkpt>
      <trkpt lat="46.20076" lon="4.52902">
        <ele>667</ele>
        <time>2015-07-08T09:06:52Z</time>
      </trkpt>
      <trkpt lat="46.20076" lon="4.52895">
        <ele>667</ele>
        <time>2015-07-08T09:06:57Z</time>
      </trkpt>
      <trkpt lat="46.20066" lon="4.52862">
        <ele>669</ele>
        <time>2015-07-08T09:07:18Z</time>
      </trkpt>
      <trkpt lat="46.2006" lon="4.52852">
        <ele>664</ele>
        <time>2015-07-08T09:08:13Z</time>
      </trkpt>
      <trkpt lat="46.2005" lon="4.52829">
        <ele>668</ele>
        <time>2015-07-08T09:08:27Z</time>
      </trkpt>
      <trkpt lat="46.20053" lon="4.52822">
        <ele>669</ele>
        <time>2015-07-08T09:08:32Z</time>
      </trkpt>
      <trkpt lat="46.20051" lon="4.528">
        <ele>672</ele>
        <time>2015-07-08T09:08:49Z</time>
      </trkpt>
      <trkpt lat="46.20049" lon="4.52785">
        <ele>672</ele>
        <time>2015-07-08T09:08:57Z</time>
      </trkpt>
      <trkpt lat="46.2005" lon="4.52771">
        <ele>673</ele>
        <time>2015-07-08T09:09:08Z</time>
      </trkpt>
      <trkpt lat="46.20049" lon="4.52764">
        <ele>671</ele>
        <time>2015-07-08T09:10:00Z</time>
      </trkpt>
      <trkpt lat="46.20049" lon="4.52751">
        <ele>674</ele>
        <time>2015-07-08T09:10:12Z</time>
      </trkpt>
      <trkpt lat="46.20049" lon="4.52736">
        <ele>675</ele>
        <time>2015-07-08T09:10:20Z</time>
      </trkpt>
      <trkpt lat="46.20049" lon="4.52722">
        <ele>677</ele>
        <time>2015-07-08T09:10:29Z</time>
      </trkpt>
      <trkpt lat="46.2005" lon="4.52709">
        <ele>677</ele>
        <time>2015-07-08T09:10:37Z</time>
      </trkpt>
      <trkpt lat="46.20055" lon="4.52695">
        <ele>677</ele>
        <time>2015-07-08T09:10:47Z</time>
      </trkpt>
      <trkpt lat="46.20051" lon="4.52683">
        <ele>677</ele>
        <time>2015-07-08T09:10:55Z</time>
      </trkpt>
      <trkpt lat="46.20055" lon="4.52657">
        <ele>676</ele>
        <time>2015-07-08T09:11:11Z</time>
      </trkpt>
      <trkpt lat="46.2006" lon="4.52632">
        <ele>675</ele>
        <time>2015-07-08T09:11:26Z</time>
      </trkpt>
      <trkpt lat="46.2006" lon="4.52618">
        <ele>674</ele>
        <time>2015-07-08T09:11:33Z</time>
      </trkpt>
      <trkpt lat="46.20073" lon="4.52566">
        <ele>674</ele>
        <time>2015-07-08T09:12:06Z</time>
      </trkpt>
      <trkpt lat="46.20076" lon="4.52553">
        <ele>674</ele>
        <time>2015-07-08T09:12:15Z</time>
      </trkpt>
      <trkpt lat="46.20095" lon="4.52503">
        <ele>676</ele>
        <time>2015-07-08T09:12:52Z</time>
      </trkpt>
      <trkpt lat="46.20101" lon="4.52492">
        <ele>677</ele>
        <time>2015-07-08T09:13:00Z</time>
      </trkpt>
      <trkpt lat="46.20106" lon="4.52466">
        <ele>678</ele>
        <time>2015-07-08T09:13:17Z</time>
      </trkpt>
      <trkpt lat="46.20108" lon="4.5245">
        <ele>674</ele>
        <time>2015-07-08T09:13:30Z</time>
      </trkpt>
      <trkpt lat="46.20115" lon="4.52404">
        <ele>673</ele>
        <time>2015-07-08T09:14:07Z</time>
      </trkpt>
      <trkpt lat="46.20122" lon="4.5235">
        <ele>671</ele>
        <time>2015-07-08T09:14:38Z</time>
      </trkpt>
      <trkpt lat="46.20124" lon="4.52336">
        <ele>671</ele>
        <time>2015-07-08T09:14:46Z</time>
      </trkpt>
      <trkpt lat="46.2013" lon="4.52325">
        <ele>672</ele>
        <time>2015-07-08T09:14:54Z</time>
      </trkpt>
      <trkpt lat="46.20133" lon="4.5231">
        <ele>673</ele>
        <time>2015-07-08T09:15:13Z</time>
      </trkpt>
      <trkpt lat="46.20136" lon="4.52296">
        <ele>674</ele>
        <time>2015-07-08T09:15:20Z</time>
      </trkpt>
      <trkpt lat="46.20139" lon="4.5227">
        <ele>677</ele>
        <time>2015-07-08T09:15:36Z</time>
      </trkpt>
      <trkpt lat="46.20144" lon="4.52258">
        <ele>677</ele>
        <time>2015-07-08T09:15:44Z</time>
      </trkpt>
      <trkpt lat="46.20144" lon="4.52201">
        <ele>675</ele>
        <time>2015-07-08T09:16:15Z</time>
      </trkpt>
      <trkpt lat="46.20139" lon="4.52173">
        <ele>674</ele>
        <time>2015-07-08T09:16:29Z</time>
      </trkpt>
      <trkpt lat="46.2014" lon="4.52145">
        <ele>673</ele>
        <time>2015-07-08T09:16:46Z</time>
      </trkpt>
      <trkpt lat="46.20143" lon="4.52139">
        <ele>672</ele>
        <time>2015-07-08T09:17:01Z</time>
      </trkpt>
      <trkpt lat="46.2015" lon="4.52128">
        <ele>671</ele>
        <time>2015-07-08T09:17:09Z</time>
      </trkpt>
      <trkpt lat="46.20158" lon="4.52118">
        <ele>672</ele>
        <time>2015-07-08T09:17:16Z</time>
      </trkpt>
      <trkpt lat="46.20175" lon="4.52069">
        <ele>672</ele>
        <time>2015-07-08T09:17:50Z</time>
      </trkpt>
      <trkpt lat="46.20182" lon="4.52061">
        <ele>671</ele>
        <time>2015-07-08T09:18:03Z</time>
      </trkpt>
      <trkpt lat="46.20188" lon="4.52051">
        <ele>672</ele>
        <time>2015-07-08T09:18:12Z</time>
      </trkpt>
      <trkpt lat="46.20194" lon="4.5204">
        <ele>672</ele>
        <time>2015-07-08T09:18:20Z</time>
      </trkpt>
      <trkpt lat="46.20206" lon="4.52018">
        <ele>671</ele>
        <time>2015-07-08T09:18:35Z</time>
      </trkpt>
      <trkpt lat="46.20218" lon="4.51997">
        <ele>671</ele>
        <time>2015-07-08T09:18:52Z</time>
      </trkpt>
      <trkpt lat="46.2022" lon="4.5199">
        <ele>672</ele>
        <time>2015-07-08T09:19:05Z</time>
      </trkpt>
      <trkpt lat="46.20241" lon="4.5195">
        <ele>674</ele>
        <time>2015-07-08T09:19:35Z</time>
      </trkpt>
      <trkpt lat="46.20244" lon="4.51946">
        <ele>675</ele>
        <time>2015-07-08T09:19:39Z</time>
      </trkpt>
      <trkpt lat="46.20249" lon="4.51942">
        <ele>674</ele>
        <time>2015-07-08T09:19:44Z</time>
      </trkpt>
      <trkpt lat="46.20253" lon="4.5193">
        <ele>674</ele>
        <time>2015-07-08T09:19:52Z</time>
      </trkpt>
      <trkpt lat="46.20254" lon="4.51922">
        <ele>674</ele>
        <time>2015-07-08T09:19:58Z</time>
      </trkpt>
      <trkpt lat="46.20259" lon="4.51911">
        <ele>675</ele>
        <time>2015-07-08T09:20:06Z</time>
      </trkpt>
      <trkpt lat="46.20261" lon="4.51904">
        <ele>674</ele>
        <time>2015-07-08T09:20:09Z</time>
      </trkpt>
      <trkpt lat="46.20287" lon="4.51859">
        <ele>675</ele>
        <time>2015-07-08T09:20:41Z</time>
      </trkpt>
      <trkpt lat="46.20288" lon="4.51853">
        <ele>675</ele>
        <time>2015-07-08T09:20:48Z</time>
      </trkpt>
      <trkpt lat="46.20299" lon="4.51822">
        <ele>674</ele>
        <time>2015-07-08T09:21:12Z</time>
      </trkpt>
      <trkpt lat="46.20316" lon="4.51782">
        <ele>676</ele>
        <time>2015-07-08T09:21:45Z</time>
      </trkpt>
      <trkpt lat="46.20327" lon="4.51759">
        <ele>677</ele>
        <time>2015-07-08T09:22:01Z</time>
      </trkpt>
      <trkpt lat="46.20331" lon="4.51752">
        <ele>677</ele>
        <time>2015-07-08T09:22:08Z</time>
      </trkpt>
      <trkpt lat="46.20345" lon="4.5172">
        <ele>686</ele>
        <time>2015-07-08T09:22:44Z</time>
      </trkpt>
      <trkpt lat="46.20355" lon="4.51703">
        <ele>688</ele>
        <time>2015-07-08T09:22:58Z</time>
      </trkpt>
      <trkpt lat="46.2036" lon="4.51694">
        <ele>689</ele>
        <time>2015-07-08T09:23:11Z</time>
      </trkpt>
      <trkpt lat="46.20367" lon="4.51696">
        <ele>690</ele>
        <time>2015-07-08T09:23:16Z</time>
      </trkpt>
      <trkpt lat="46.20398" lon="4.51674">
        <ele>694</ele>
        <time>2015-07-08T09:23:52Z</time>
      </trkpt>
      <trkpt lat="46.20406" lon="4.51667">
        <ele>696</ele>
        <time>2015-07-08T09:24:01Z</time>
      </trkpt>
      <trkpt lat="46.20418" lon="4.51644">
        <ele>698</ele>
        <time>2015-07-08T09:24:23Z</time>
      </trkpt>
      <trkpt lat="46.20424" lon="4.51633">
        <ele>698</ele>
        <time>2015-07-08T09:24:32Z</time>
      </trkpt>
      <trkpt lat="46.20417" lon="4.51618">
        <ele>699</ele>
        <time>2015-07-08T09:25:26Z</time>
      </trkpt>
      <trkpt lat="46.204" lon="4.51569">
        <ele>704</ele>
        <time>2015-07-08T09:25:58Z</time>
      </trkpt>
      <trkpt lat="46.20382" lon="4.51521">
        <ele>708</ele>
        <time>2015-07-08T09:26:33Z</time>
      </trkpt>
      <trkpt lat="46.20375" lon="4.5151">
        <ele>709</ele>
        <time>2015-07-08T09:26:40Z</time>
      </trkpt>
      <trkpt lat="46.20367" lon="4.51501">
        <ele>710</ele>
        <time>2015-07-08T09:26:47Z</time>
      </trkpt>
      <trkpt lat="46.20363" lon="4.51489">
        <ele>711</ele>
        <time>2015-07-08T09:26:55Z</time>
      </trkpt>
      <trkpt lat="46.20361" lon="4.51475">
        <ele>711</ele>
        <time>2015-07-08T09:27:03Z</time>
      </trkpt>
      <trkpt lat="46.20361" lon="4.51461">
        <ele>714</ele>
        <time>2015-07-08T09:27:12Z</time>
      </trkpt>
      <trkpt lat="46.20354" lon="4.51451">
        <ele>714</ele>
        <time>2015-07-08T09:27:19Z</time>
      </trkpt>
      <trkpt lat="46.20349" lon="4.51439">
        <ele>716</ele>
        <time>2015-07-08T09:27:28Z</time>
      </trkpt>
      <trkpt lat="46.20341" lon="4.5143">
        <ele>716</ele>
        <time>2015-07-08T09:27:36Z</time>
      </trkpt>
      <trkpt lat="46.20324" lon="4.51382">
        <ele>727</ele>
        <time>2015-07-08T09:28:07Z</time>
      </trkpt>
      <trkpt lat="46.20321" lon="4.51348">
        <ele>731</ele>
        <time>2015-07-08T09:28:31Z</time>
      </trkpt>
      <trkpt lat="46.20321" lon="4.51334">
        <ele>729</ele>
        <time>2015-07-08T09:28:39Z</time>
      </trkpt>
      <trkpt lat="46.20319" lon="4.51328">
        <ele>729</ele>
        <time>2015-07-08T09:28:45Z</time>
      </trkpt>
      <trkpt lat="46.2032" lon="4.51321">
        <ele>730</ele>
        <time>2015-07-08T09:28:50Z</time>
      </trkpt>
      <trkpt lat="46.20317" lon="4.51315">
        <ele>730</ele>
        <time>2015-07-08T09:28:54Z</time>
      </trkpt>
      <trkpt lat="46.20321" lon="4.51252">
        <ele>737</ele>
        <time>2015-07-08T09:29:29Z</time>
      </trkpt>
      <trkpt lat="46.20324" lon="4.51196">
        <ele>741</ele>
        <time>2015-07-08T09:30:05Z</time>
      </trkpt>
      <trkpt lat="46.20327" lon="4.51169">
        <ele>741</ele>
        <time>2015-07-08T09:30:21Z</time>
      </trkpt>
      <trkpt lat="46.20328" lon="4.51163">
        <ele>740</ele>
        <time>2015-07-08T09:33:14Z</time>
      </trkpt>
      <trkpt lat="46.20331" lon="4.51163">
        <ele>740</ele>
        <time>2015-07-08T09:33:42Z</time>
      </trkpt>
      <trkpt lat="46.20339" lon="4.51152">
        <ele>742</ele>
        <time>2015-07-08T09:35:03Z</time>
      </trkpt>
      <trkpt lat="46.20335" lon="4.51125">
        <ele>743</ele>
        <time>2015-07-08T09:35:18Z</time>
      </trkpt>
      <trkpt lat="46.20333" lon="4.51098">
        <ele>742</ele>
        <time>2015-07-08T09:35:35Z</time>
      </trkpt>
      <trkpt lat="46.20331" lon="4.51084">
        <ele>744</ele>
        <time>2015-07-08T09:35:43Z</time>
      </trkpt>
      <trkpt lat="46.20329" lon="4.51042">
        <ele>746</ele>
        <time>2015-07-08T09:36:06Z</time>
      </trkpt>
      <trkpt lat="46.20336" lon="4.51016">
        <ele>749</ele>
        <time>2015-07-08T09:36:27Z</time>
      </trkpt>
      <trkpt lat="46.20338" lon="4.51002">
        <ele>749</ele>
        <time>2015-07-08T09:36:40Z</time>
      </trkpt>
      <trkpt lat="46.20334" lon="4.5099">
        <ele>749</ele>
        <time>2015-07-08T09:36:46Z</time>
      </trkpt>
      <trkpt lat="46.20333" lon="4.50962">
        <ele>751</ele>
        <time>2015-07-08T09:36:58Z</time>
      </trkpt>
      <trkpt lat="46.20339" lon="4.50951">
        <ele>751</ele>
        <time>2015-07-08T09:37:10Z</time>
      </trkpt>
      <trkpt lat="46.20347" lon="4.50944">
        <ele>752</ele>
        <time>2015-07-08T09:37:20Z</time>
      </trkpt>
      <trkpt lat="46.20345" lon="4.50929">
        <ele>754</ele>
        <time>2015-07-08T09:37:44Z</time>
      </trkpt>
      <trkpt lat="46.20345" lon="4.50915">
        <ele>755</ele>
        <time>2015-07-08T09:37:53Z</time>
      </trkpt>
      <trkpt lat="46.2035" lon="4.50903">
        <ele>757</ele>
        <time>2015-07-08T09:38:03Z</time>
      </trkpt>
      <trkpt lat="46.20348" lon="4.50889">
        <ele>758</ele>
        <time>2015-07-08T09:38:11Z</time>
      </trkpt>
      <trkpt lat="46.20355" lon="4.50879">
        <ele>760</ele>
        <time>2015-07-08T09:38:19Z</time>
      </trkpt>
      <trkpt lat="46.20375" lon="4.50851">
        <ele>765</ele>
        <time>2015-07-08T09:38:41Z</time>
      </trkpt>
      <trkpt lat="46.20379" lon="4.50825">
        <ele>768</ele>
        <time>2015-07-08T09:38:57Z</time>
      </trkpt>
      <trkpt lat="46.20385" lon="4.50816">
        <ele>770</ele>
        <time>2015-07-08T09:39:05Z</time>
      </trkpt>
      <trkpt lat="46.20393" lon="4.50804">
        <ele>771</ele>
        <time>2015-07-08T09:39:34Z</time>
      </trkpt>
      <trkpt lat="46.20404" lon="4.50805">
        <ele>771</ele>
        <time>2015-07-08T09:39:42Z</time>
      </trkpt>
      <trkpt lat="46.20431" lon="4.50818">
        <ele>773</ele>
        <time>2015-07-08T09:40:02Z</time>
      </trkpt>
      <trkpt lat="46.2044" lon="4.50815">
        <ele>775</ele>
        <time>2015-07-08T09:40:16Z</time>
      </trkpt>
      <trkpt lat="46.2045" lon="4.50815">
        <ele>775</ele>
        <time>2015-07-08T09:40:24Z</time>
      </trkpt>
      <trkpt lat="46.2046" lon="4.50812">
        <ele>776</ele>
        <time>2015-07-08T09:40:30Z</time>
      </trkpt>
      <trkpt lat="46.20465" lon="4.50801">
        <ele>777</ele>
        <time>2015-07-08T09:40:38Z</time>
      </trkpt>
      <trkpt lat="46.20479" lon="4.50765">
        <ele>780</ele>
        <time>2015-07-08T09:41:06Z</time>
      </trkpt>
      <trkpt lat="46.20506" lon="4.50746">
        <ele>781</ele>
        <time>2015-07-08T09:41:27Z</time>
      </trkpt>
      <trkpt lat="46.20524" lon="4.50742">
        <ele>781</ele>
        <time>2015-07-08T09:41:41Z</time>
      </trkpt>
      <trkpt lat="46.20532" lon="4.50739">
        <ele>782</ele>
        <time>2015-07-08T09:41:58Z</time>
      </trkpt>
      <trkpt lat="46.20542" lon="4.50736">
        <ele>782</ele>
        <time>2015-07-08T09:42:43Z</time>
      </trkpt>
      <trkpt lat="46.20551" lon="4.50734">
        <ele>781</ele>
        <time>2015-07-08T09:42:50Z</time>
      </trkpt>
      <trkpt lat="46.20569" lon="4.50725">
        <ele>780</ele>
        <time>2015-07-08T09:43:11Z</time>
      </trkpt>
      <trkpt lat="46.20594" lon="4.5068">
        <ele>778</ele>
        <time>2015-07-08T09:43:47Z</time>
      </trkpt>
      <trkpt lat="46.20603" lon="4.50655">
        <ele>776</ele>
        <time>2015-07-08T09:44:05Z</time>
      </trkpt>
      <trkpt lat="46.20609" lon="4.50644">
        <ele>777</ele>
        <time>2015-07-08T09:44:15Z</time>
      </trkpt>
      <trkpt lat="46.20624" lon="4.50626">
        <ele>777</ele>
        <time>2015-07-08T09:44:32Z</time>
      </trkpt>
      <trkpt lat="46.20626" lon="4.50614">
        <ele>776</ele>
        <time>2015-07-08T09:44:49Z</time>
      </trkpt>
      <trkpt lat="46.20636" lon="4.50589">
        <ele>780</ele>
        <time>2015-07-08T09:45:05Z</time>
      </trkpt>
      <trkpt lat="46.20637" lon="4.5058">
        <ele>779</ele>
        <time>2015-07-08T09:45:21Z</time>
      </trkpt>
      <trkpt lat="46.20643" lon="4.50569">
        <ele>775</ele>
        <time>2015-07-08T09:46:01Z</time>
      </trkpt>
      <trkpt lat="46.20654" lon="4.50544">
        <ele>780</ele>
        <time>2015-07-08T09:46:18Z</time>
      </trkpt>
      <trkpt lat="46.20664" lon="4.5052">
        <ele>782</ele>
        <time>2015-07-08T09:46:35Z</time>
      </trkpt>
      <trkpt lat="46.2067" lon="4.5051">
        <ele>782</ele>
        <time>2015-07-08T09:46:43Z</time>
      </trkpt>
      <trkpt lat="46.20681" lon="4.5046">
        <ele>782</ele>
        <time>2015-07-08T09:47:14Z</time>
      </trkpt>
      <trkpt lat="46.20682" lon="4.50446">
        <ele>782</ele>
        <time>2015-07-08T09:47:22Z</time>
      </trkpt>
      <trkpt lat="46.20685" lon="4.50406">
        <ele>784</ele>
        <time>2015-07-08T09:47:44Z</time>
      </trkpt>
      <trkpt lat="46.20688" lon="4.50393">
        <ele>784</ele>
        <time>2015-07-08T09:47:53Z</time>
      </trkpt>
      <trkpt lat="46.20703" lon="4.50344">
        <ele>781</ele>
        <time>2015-07-08T09:48:24Z</time>
      </trkpt>
      <trkpt lat="46.20707" lon="4.50332">
        <ele>780</ele>
        <time>2015-07-08T09:48:32Z</time>
      </trkpt>
      <trkpt lat="46.20713" lon="4.50305">
        <ele>781</ele>
        <time>2015-07-08T09:48:47Z</time>
      </trkpt>
      <trkpt lat="46.20719" lon="4.50295">
        <ele>781</ele>
        <time>2015-07-08T09:48:54Z</time>
      </trkpt>
      <trkpt lat="46.20722" lon="4.50255">
        <ele>778</ele>
        <time>2015-07-08T09:49:23Z</time>
      </trkpt>
      <trkpt lat="46.20711" lon="4.50202">
        <ele>775</ele>
        <time>2015-07-08T09:49:57Z</time>
      </trkpt>
      <trkpt lat="46.20703" lon="4.50184">
        <ele>773</ele>
        <time>2015-07-08T09:50:10Z</time>
      </trkpt>
      <trkpt lat="46.20703" lon="4.50177">
        <ele>773</ele>
        <time>2015-07-08T09:50:15Z</time>
      </trkpt>
      <trkpt lat="46.20699" lon="4.50159">
        <ele>770</ele>
        <time>2015-07-08T09:50:27Z</time>
      </trkpt>
      <trkpt lat="46.20693" lon="4.50147">
        <ele>769</ele>
        <time>2015-07-08T09:50:35Z</time>
      </trkpt>
      <trkpt lat="46.2069" lon="4.50142">
        <ele>769</ele>
        <time>2015-07-08T09:50:39Z</time>
      </trkpt>
      <trkpt lat="46.20686" lon="4.50137">
        <ele>770</ele>
        <time>2015-07-08T09:50:43Z</time>
      </trkpt>
      <trkpt lat="46.20684" lon="4.50132">
        <ele>771</ele>
        <time>2015-07-08T09:50:53Z</time>
      </trkpt>
      <trkpt lat="46.20684" lon="4.50124">
        <ele>770</ele>
        <time>2015-07-08T09:51:01Z</time>
      </trkpt>
      <trkpt lat="46.2068" lon="4.50118">
        <ele>769</ele>
        <time>2015-07-08T09:51:05Z</time>
      </trkpt>
      <trkpt lat="46.20676" lon="4.50106">
        <ele>769</ele>
        <time>2015-07-08T09:51:13Z</time>
      </trkpt>
      <trkpt lat="46.20672" lon="4.50079">
        <ele>770</ele>
        <time>2015-07-08T09:51:31Z</time>
      </trkpt>
      <trkpt lat="46.20649" lon="4.50035">
        <ele>767</ele>
        <time>2015-07-08T09:52:07Z</time>
      </trkpt>
      <trkpt lat="46.20621" lon="4.49995">
        <ele>764</ele>
        <time>2015-07-08T09:52:35Z</time>
      </trkpt>
      <trkpt lat="46.20612" lon="4.49989">
        <ele>764</ele>
        <time>2015-07-08T09:52:41Z</time>
      </trkpt>
      <trkpt lat="46.20578" lon="4.49954">
        <ele>763</ele>
        <time>2015-07-08T09:53:16Z</time>
      </trkpt>
      <trkpt lat="46.20552" lon="4.49941">
        <ele>762</ele>
        <time>2015-07-08T09:53:41Z</time>
      </trkpt>
      <trkpt lat="46.2052" lon="4.49909">
        <ele>762</ele>
        <time>2015-07-08T09:54:11Z</time>
      </trkpt>
      <trkpt lat="46.20495" lon="4.49875">
        <ele>764</ele>
        <time>2015-07-08T09:54:46Z</time>
      </trkpt>
      <trkpt lat="46.20488" lon="4.49863">
        <ele>766</ele>
        <time>2015-07-08T09:55:03Z</time>
      </trkpt>
      <trkpt lat="46.20478" lon="4.49843">
        <ele>767</ele>
        <time>2015-07-08T09:55:27Z</time>
      </trkpt>
      <trkpt lat="46.20478" lon="4.49828">
        <ele>768</ele>
        <time>2015-07-08T09:55:51Z</time>
      </trkpt>
      <trkpt lat="46.20484" lon="4.49817">
        <ele>769</ele>
        <time>2015-07-08T09:56:01Z</time>
      </trkpt>
      <trkpt lat="46.20515" lon="4.49796">
        <ele>773</ele>
        <time>2015-07-08T09:56:34Z</time>
      </trkpt>
      <trkpt lat="46.20526" lon="4.49793">
        <ele>773</ele>
        <time>2015-07-08T09:56:44Z</time>
      </trkpt>
      <trkpt lat="46.20557" lon="4.49776">
        <ele>779</ele>
        <time>2015-07-08T09:57:15Z</time>
      </trkpt>
      <trkpt lat="46.20561" lon="4.49764">
        <ele>780</ele>
        <time>2015-07-08T09:57:24Z</time>
      </trkpt>
      <trkpt lat="46.20565" lon="4.49751">
        <ele>780</ele>
        <time>2015-07-08T09:57:35Z</time>
      </trkpt>
      <trkpt lat="46.20567" lon="4.49743">
        <ele>781</ele>
        <time>2015-07-08T09:57:41Z</time>
      </trkpt>
      <trkpt lat="46.20569" lon="4.49729">
        <ele>782</ele>
        <time>2015-07-08T09:57:51Z</time>
      </trkpt>
      <trkpt lat="46.20568" lon="4.49722">
        <ele>782</ele>
        <time>2015-07-08T09:57:55Z</time>
      </trkpt>
      <trkpt lat="46.20568" lon="4.49708">
        <ele>783</ele>
        <time>2015-07-08T09:58:04Z</time>
      </trkpt>
      <trkpt lat="46.2057" lon="4.49701">
        <ele>784</ele>
        <time>2015-07-08T09:58:08Z</time>
      </trkpt>
      <trkpt lat="46.20573" lon="4.49691">
        <ele>784</ele>
        <time>2015-07-08T09:58:18Z</time>
      </trkpt>
      <trkpt lat="46.20571" lon="4.49684">
        <ele>784</ele>
        <time>2015-07-08T09:58:30Z</time>
      </trkpt>
      <trkpt lat="46.20571" lon="4.49677">
        <ele>784</ele>
        <time>2015-07-08T09:58:34Z</time>
      </trkpt>
      <trkpt lat="46.20569" lon="4.4967">
        <ele>784</ele>
        <time>2015-07-08T09:58:39Z</time>
      </trkpt>
      <trkpt lat="46.20573" lon="4.49656">
        <ele>784</ele>
        <time>2015-07-08T09:58:48Z</time>
      </trkpt>
      <trkpt lat="46.20579" lon="4.49605">
        <ele>787</ele>
        <time>2015-07-08T09:59:21Z</time>
      </trkpt>
      <trkpt lat="46.2059" lon="4.49552">
        <ele>791</ele>
        <time>2015-07-08T09:59:53Z</time>
      </trkpt>
      <trkpt lat="46.20592" lon="4.49545">
        <ele>792</ele>
        <time>2015-07-08T09:59:58Z</time>
      </trkpt>
      <trkpt lat="46.2059" lon="4.49541">
        <ele>793</ele>
        <time>2015-07-08T10:00:09Z</time>
      </trkpt>
      <trkpt lat="46.2059" lon="4.49534">
        <ele>794</ele>
        <time>2015-07-08T10:00:14Z</time>
      </trkpt>
      <trkpt lat="46.20591" lon="4.49527">
        <ele>795</ele>
        <time>2015-07-08T10:00:18Z</time>
      </trkpt>
      <trkpt lat="46.20599" lon="4.49518">
        <ele>796</ele>
        <time>2015-07-08T10:00:26Z</time>
      </trkpt>
      <trkpt lat="46.206" lon="4.4951">
        <ele>797</ele>
        <time>2015-07-08T10:00:31Z</time>
      </trkpt>
      <trkpt lat="46.20603" lon="4.49497">
        <ele>798</ele>
        <time>2015-07-08T10:00:39Z</time>
      </trkpt>
      <trkpt lat="46.20607" lon="4.49492">
        <ele>799</ele>
        <time>2015-07-08T10:00:43Z</time>
      </trkpt>
      <trkpt lat="46.20613" lon="4.4945">
        <ele>804</ele>
        <time>2015-07-08T10:01:13Z</time>
      </trkpt>
      <trkpt lat="46.20614" lon="4.49436">
        <ele>806</ele>
        <time>2015-07-08T10:01:22Z</time>
      </trkpt>
      <trkpt lat="46.20621" lon="4.49425">
        <ele>808</ele>
        <time>2015-07-08T10:01:31Z</time>
      </trkpt>
      <trkpt lat="46.20626" lon="4.49422">
        <ele>809</ele>
        <time>2015-07-08T10:01:37Z</time>
      </trkpt>
      <trkpt lat="46.20631" lon="4.49424">
        <ele>809</ele>
        <time>2015-07-08T10:01:42Z</time>
      </trkpt>
      <trkpt lat="46.20634" lon="4.49423">
        <ele>810</ele>
        <time>2015-07-08T10:01:49Z</time>
      </trkpt>
      <trkpt lat="46.2064" lon="4.49427">
        <ele>811</ele>
        <time>2015-07-08T10:02:56Z</time>
      </trkpt>
      <trkpt lat="46.20647" lon="4.49435">
        <ele>811</ele>
        <time>2015-07-08T10:03:04Z</time>
      </trkpt>
      <trkpt lat="46.20665" lon="4.49484">
        <ele>812</ele>
        <time>2015-07-08T10:03:37Z</time>
      </trkpt>
      <trkpt lat="46.20681" lon="4.49516">
        <ele>814</ele>
        <time>2015-07-08T10:04:03Z</time>
      </trkpt>
      <trkpt lat="46.20691" lon="4.49539">
        <ele>819</ele>
        <time>2015-07-08T10:04:24Z</time>
      </trkpt>
      <trkpt lat="46.20712" lon="4.49586">
        <ele>823</ele>
        <time>2015-07-08T10:04:55Z</time>
      </trkpt>
      <trkpt lat="46.20715" lon="4.49593">
        <ele>823</ele>
        <time>2015-07-08T10:04:59Z</time>
      </trkpt>
      <trkpt lat="46.2072" lon="4.49606">
        <ele>824</ele>
        <time>2015-07-08T10:05:08Z</time>
      </trkpt>
      <trkpt lat="46.20731" lon="4.49622">
        <ele>825</ele>
        <time>2015-07-08T10:05:21Z</time>
      </trkpt>
      <trkpt lat="46.20734" lon="4.49627">
        <ele>825</ele>
        <time>2015-07-08T10:05:24Z</time>
      </trkpt>
      <trkpt lat="46.20733" lon="4.49631">
        <ele>824</ele>
        <time>2015-07-08T10:05:30Z</time>
      </trkpt>
      <trkpt lat="46.20731" lon="4.49633">
        <ele>822</ele>
        <time>2015-07-08T10:05:41Z</time>
      </trkpt>
      <trkpt lat="46.20736" lon="4.49638">
        <ele>821</ele>
        <time>2015-07-08T10:06:03Z</time>
      </trkpt>
      <trkpt lat="46.2074" lon="4.49644">
        <ele>820</ele>
        <time>2015-07-08T10:06:43Z</time>
      </trkpt>
      <trkpt lat="46.20744" lon="4.49649">
        <ele>820</ele>
        <time>2015-07-08T10:06:48Z</time>
      </trkpt>
      <trkpt lat="46.20785" lon="4.49666">
        <ele>831</ele>
        <time>2015-07-08T10:07:24Z</time>
      </trkpt>
      <trkpt lat="46.20805" lon="4.49665">
        <ele>831</ele>
        <time>2015-07-08T10:07:38Z</time>
      </trkpt>
      <trkpt lat="46.20815" lon="4.49664">
        <ele>832</ele>
        <time>2015-07-08T10:07:46Z</time>
      </trkpt>
      <trkpt lat="46.20834" lon="4.4967">
        <ele>830</ele>
        <time>2015-07-08T10:08:01Z</time>
      </trkpt>
      <trkpt lat="46.20851" lon="4.49676">
        <ele>825</ele>
        <time>2015-07-08T10:08:22Z</time>
      </trkpt>
      <trkpt lat="46.20861" lon="4.49678">
        <ele>825</ele>
        <time>2015-07-08T10:08:32Z</time>
      </trkpt>
      <trkpt lat="46.20871" lon="4.49681">
        <ele>826</ele>
        <time>2015-07-08T10:08:42Z</time>
      </trkpt>
      <trkpt lat="46.20881" lon="4.49683">
        <ele>826</ele>
        <time>2015-07-08T10:08:49Z</time>
      </trkpt>
      <trkpt lat="46.20919" lon="4.49695">
        <ele>825</ele>
        <time>2015-07-08T10:09:23Z</time>
      </trkpt>
      <trkpt lat="46.20927" lon="4.49701">
        <ele>823</ele>
        <time>2015-07-08T10:09:34Z</time>
      </trkpt>
      <trkpt lat="46.20956" lon="4.49712">
        <ele>823</ele>
        <time>2015-07-08T10:09:59Z</time>
      </trkpt>
      <trkpt lat="46.20965" lon="4.49714">
        <ele>823</ele>
        <time>2015-07-08T10:10:06Z</time>
      </trkpt>
      <trkpt lat="46.20985" lon="4.4972">
        <ele>830</ele>
        <time>2015-07-08T10:10:24Z</time>
      </trkpt>
      <trkpt lat="46.20995" lon="4.49721">
        <ele>831</ele>
        <time>2015-07-08T10:10:31Z</time>
      </trkpt>
      <trkpt lat="46.21014" lon="4.49728">
        <ele>831</ele>
        <time>2015-07-08T10:10:49Z</time>
      </trkpt>
      <trkpt lat="46.21021" lon="4.49738">
        <ele>831</ele>
        <time>2015-07-08T10:11:07Z</time>
      </trkpt>
      <trkpt lat="46.21031" lon="4.49738">
        <ele>828</ele>
        <time>2015-07-08T10:11:13Z</time>
      </trkpt>
      <trkpt lat="46.21042" lon="4.49736">
        <ele>818</ele>
        <time>2015-07-08T10:11:23Z</time>
      </trkpt>
      <trkpt lat="46.21075" lon="4.4972">
        <ele>828</ele>
        <time>2015-07-08T10:11:52Z</time>
      </trkpt>
      <trkpt lat="46.21085" lon="4.49715">
        <ele>828</ele>
        <time>2015-07-08T10:12:03Z</time>
      </trkpt>
      <trkpt lat="46.21132" lon="4.49693">
        <ele>824</ele>
        <time>2015-07-08T10:12:38Z</time>
      </trkpt>
      <trkpt lat="46.21168" lon="4.49677">
        <ele>814</ele>
        <time>2015-07-08T10:13:11Z</time>
      </trkpt>
      <trkpt lat="46.21174" lon="4.49673">
        <ele>813</ele>
        <time>2015-07-08T10:13:17Z</time>
      </trkpt>
      <trkpt lat="46.21178" lon="4.4967">
        <ele>813</ele>
        <time>2015-07-08T10:13:21Z</time>
      </trkpt>
      <trkpt lat="46.21192" lon="4.49663">
        <ele>810</ele>
        <time>2015-07-08T10:13:33Z</time>
      </trkpt>
      <trkpt lat="46.21205" lon="4.49652">
        <ele>810</ele>
        <time>2015-07-08T10:13:48Z</time>
      </trkpt>
      <trkpt lat="46.21218" lon="4.49642">
        <ele>810</ele>
        <time>2015-07-08T10:14:03Z</time>
      </trkpt>
      <trkpt lat="46.2122" lon="4.49636">
        <ele>810</ele>
        <time>2015-07-08T10:14:07Z</time>
      </trkpt>
      <trkpt lat="46.21219" lon="4.49629">
        <ele>809</ele>
        <time>2015-07-08T10:14:14Z</time>
      </trkpt>
      <trkpt lat="46.21218" lon="4.49622">
        <ele>808</ele>
        <time>2015-07-08T10:14:22Z</time>
      </trkpt>
      <trkpt lat="46.21212" lon="4.49611">
        <ele>809</ele>
        <time>2015-07-08T10:14:32Z</time>
      </trkpt>
      <trkpt lat="46.21211" lon="4.49604">
        <ele>810</ele>
        <time>2015-07-08T10:14:37Z</time>
      </trkpt>
      <trkpt lat="46.2121" lon="4.49597">
        <ele>810</ele>
        <time>2015-07-08T10:14:44Z</time>
      </trkpt>
      <trkpt lat="46.21208" lon="4.49591">
        <ele>810</ele>
        <time>2015-07-08T10:14:49Z</time>
      </trkpt>
      <trkpt lat="46.21207" lon="4.49587">
        <ele>810</ele>
        <time>2015-07-08T10:14:51Z</time>
      </trkpt>
      <trkpt lat="46.21207" lon="4.49584">
        <ele>810</ele>
        <time>2015-07-08T10:14:52Z</time>
      </trkpt>
      <trkpt lat="46.21205" lon="4.49578">
        <ele>810</ele>
        <time>2015-07-08T10:14:56Z</time>
      </trkpt>
      <trkpt lat="46.21203" lon="4.49571">
        <ele>811</ele>
        <time>2015-07-08T10:15:01Z</time>
      </trkpt>
      <trkpt lat="46.21199" lon="4.49568">
        <ele>812</ele>
        <time>2015-07-08T10:15:06Z</time>
      </trkpt>
      <trkpt lat="46.21196" lon="4.49574">
        <ele>813</ele>
        <time>2015-07-08T10:15:11Z</time>
      </trkpt>
      <trkpt lat="46.21193" lon="4.49566">
        <ele>814</ele>
        <time>2015-07-08T10:15:22Z</time>
      </trkpt>
      <trkpt lat="46.21195" lon="4.49559">
        <ele>815</ele>
        <time>2015-07-08T10:15:27Z</time>
      </trkpt>
      <trkpt lat="46.21193" lon="4.49552">
        <ele>816</ele>
        <time>2015-07-08T10:15:33Z</time>
      </trkpt>
      <trkpt lat="46.21193" lon="4.49549">
        <ele>816</ele>
        <time>2015-07-08T10:15:39Z</time>
      </trkpt>
      <trkpt lat="46.2119" lon="4.49543">
        <ele>817</ele>
        <time>2015-07-08T10:15:45Z</time>
      </trkpt>
      <trkpt lat="46.21189" lon="4.49529">
        <ele>818</ele>
        <time>2015-07-08T10:15:55Z</time>
      </trkpt>
      <trkpt lat="46.2119" lon="4.49522">
        <ele>818</ele>
        <time>2015-07-08T10:16:01Z</time>
      </trkpt>
      <trkpt lat="46.21185" lon="4.4947">
        <ele>820</ele>
        <time>2015-07-08T10:16:35Z</time>
      </trkpt>
      <trkpt lat="46.2119" lon="4.49457">
        <ele>820</ele>
        <time>2015-07-08T10:16:47Z</time>
      </trkpt>
      <trkpt lat="46.21188" lon="4.49429">
        <ele>821</ele>
        <time>2015-07-08T10:17:01Z</time>
      </trkpt>
      <trkpt lat="46.21185" lon="4.49422">
        <ele>821</ele>
        <time>2015-07-08T10:17:04Z</time>
      </trkpt>
      <trkpt lat="46.2119" lon="4.49409">
        <ele>821</ele>
        <time>2015-07-08T10:17:12Z</time>
      </trkpt>
      <trkpt lat="46.21189" lon="4.49396">
        <ele>821</ele>
        <time>2015-07-08T10:17:20Z</time>
      </trkpt>
      <trkpt lat="46.21184" lon="4.49385">
        <ele>821</ele>
        <time>2015-07-08T10:17:25Z</time>
      </trkpt>
      <trkpt lat="46.21168" lon="4.49343">
        <ele>822</ele>
        <time>2015-07-08T10:17:47Z</time>
      </trkpt>
      <trkpt lat="46.21165" lon="4.49337">
        <ele>823</ele>
        <time>2015-07-08T10:17:54Z</time>
      </trkpt>
      <trkpt lat="46.21163" lon="4.49329">
        <ele>823</ele>
        <time>2015-07-08T10:17:59Z</time>
      </trkpt>
      <trkpt lat="46.21161" lon="4.49322">
        <ele>824</ele>
        <time>2015-07-08T10:18:03Z</time>
      </trkpt>
      <trkpt lat="46.21158" lon="4.49308">
        <ele>824</ele>
        <time>2015-07-08T10:18:12Z</time>
      </trkpt>
      <trkpt lat="46.21158" lon="4.493">
        <ele>824</ele>
        <time>2015-07-08T10:18:17Z</time>
      </trkpt>
      <trkpt lat="46.21162" lon="4.4925">
        <ele>825</ele>
        <time>2015-07-08T10:18:49Z</time>
      </trkpt>
      <trkpt lat="46.21163" lon="4.49227">
        <ele>825</ele>
        <time>2015-07-08T10:19:02Z</time>
      </trkpt>
      <trkpt lat="46.21164" lon="4.49213">
        <ele>825</ele>
        <time>2015-07-08T10:19:10Z</time>
      </trkpt>
      <trkpt lat="46.21165" lon="4.49206">
        <ele>824</ele>
        <time>2015-07-08T10:19:14Z</time>
      </trkpt>
      <trkpt lat="46.21166" lon="4.49199">
        <ele>824</ele>
        <time>2015-07-08T10:19:19Z</time>
      </trkpt>
      <trkpt lat="46.21165" lon="4.49191">
        <ele>824</ele>
        <time>2015-07-08T10:19:24Z</time>
      </trkpt>
      <trkpt lat="46.21158" lon="4.49181">
        <ele>825</ele>
        <time>2015-07-08T10:19:34Z</time>
      </trkpt>
      <trkpt lat="46.21154" lon="4.49178">
        <ele>826</ele>
        <time>2015-07-08T10:19:41Z</time>
      </trkpt>
      <trkpt lat="46.21151" lon="4.49172">
        <ele>827</ele>
        <time>2015-07-08T10:19:50Z</time>
      </trkpt>
      <trkpt lat="46.21147" lon="4.49167">
        <ele>827</ele>
        <time>2015-07-08T10:19:55Z</time>
      </trkpt>
      <trkpt lat="46.21142" lon="4.49155">
        <ele>830</ele>
        <time>2015-07-08T10:20:09Z</time>
      </trkpt>
      <trkpt lat="46.21117" lon="4.49134">
        <ele>840</ele>
        <time>2015-07-08T10:20:39Z</time>
      </trkpt>
      <trkpt lat="46.21114" lon="4.49117">
        <ele>845</ele>
        <time>2015-07-08T10:21:10Z</time>
      </trkpt>
      <trkpt lat="46.21101" lon="4.4909">
        <ele>853</ele>
        <time>2015-07-08T10:21:44Z</time>
      </trkpt>
      <trkpt lat="46.21092" lon="4.49057">
        <ele>859</ele>
        <time>2015-07-08T10:22:17Z</time>
      </trkpt>
      <trkpt lat="46.21091" lon="4.49054">
        <ele>861</ele>
        <time>2015-07-08T10:22:23Z</time>
      </trkpt>
      <trkpt lat="46.21088" lon="4.49053">
        <ele>864</ele>
        <time>2015-07-08T10:22:34Z</time>
      </trkpt>
      <trkpt lat="46.21087" lon="4.49046">
        <ele>867</ele>
        <time>2015-07-08T10:22:46Z</time>
      </trkpt>
      <trkpt lat="46.21088" lon="4.4904">
        <ele>862</ele>
        <time>2015-07-08T10:23:46Z</time>
      </trkpt>
      <trkpt lat="46.21097" lon="4.49025">
        <ele>860</ele>
        <time>2015-07-08T10:24:12Z</time>
      </trkpt>
      <trkpt lat="46.21097" lon="4.49018">
        <ele>859</ele>
        <time>2015-07-08T10:24:17Z</time>
      </trkpt>
      <trkpt lat="46.21098" lon="4.49005">
        <ele>859</ele>
        <time>2015-07-08T10:24:29Z</time>
      </trkpt>
      <trkpt lat="46.21097" lon="4.48995">
        <ele>860</ele>
        <time>2015-07-08T10:24:36Z</time>
      </trkpt>
      <trkpt lat="46.21101" lon="4.48982">
        <ele>862</ele>
        <time>2015-07-08T10:24:49Z</time>
      </trkpt>
      <trkpt lat="46.21098" lon="4.48937">
        <ele>864</ele>
        <time>2015-07-08T10:25:20Z</time>
      </trkpt>
      <trkpt lat="46.21103" lon="4.48933">
        <ele>864</ele>
        <time>2015-07-08T10:25:23Z</time>
      </trkpt>
      <trkpt lat="46.21107" lon="4.4893">
        <ele>865</ele>
        <time>2015-07-08T10:25:26Z</time>
      </trkpt>
      <trkpt lat="46.21107" lon="4.48923">
        <ele>865</ele>
        <time>2015-07-08T10:25:31Z</time>
      </trkpt>
      <trkpt lat="46.21105" lon="4.48904">
        <ele>866</ele>
        <time>2015-07-08T10:25:43Z</time>
      </trkpt>
      <trkpt lat="46.21109" lon="4.48892">
        <ele>867</ele>
        <time>2015-07-08T10:25:49Z</time>
      </trkpt>
      <trkpt lat="46.21117" lon="4.48874">
        <ele>868</ele>
        <time>2015-07-08T10:26:00Z</time>
      </trkpt>
      <trkpt lat="46.21119" lon="4.48866">
        <ele>868</ele>
        <time>2015-07-08T10:26:05Z</time>
      </trkpt>
      <trkpt lat="46.21144" lon="4.48825">
        <ele>870</ele>
        <time>2015-07-08T10:26:33Z</time>
      </trkpt>
      <trkpt lat="46.21148" lon="4.4882">
        <ele>870</ele>
        <time>2015-07-08T10:26:37Z</time>
      </trkpt>
      <trkpt lat="46.21152" lon="4.48816">
        <ele>870</ele>
        <time>2015-07-08T10:26:41Z</time>
      </trkpt>
      <trkpt lat="46.21155" lon="4.48811">
        <ele>870</ele>
        <time>2015-07-08T10:26:45Z</time>
      </trkpt>
      <trkpt lat="46.21159" lon="4.48806">
        <ele>870</ele>
        <time>2015-07-08T10:26:49Z</time>
      </trkpt>
      <trkpt lat="46.21165" lon="4.48794">
        <ele>871</ele>
        <time>2015-07-08T10:26:57Z</time>
      </trkpt>
      <trkpt lat="46.21168" lon="4.48789">
        <ele>871</ele>
        <time>2015-07-08T10:27:01Z</time>
      </trkpt>
      <trkpt lat="46.21175" lon="4.48778">
        <ele>871</ele>
        <time>2015-07-08T10:27:09Z</time>
      </trkpt>
      <trkpt lat="46.21177" lon="4.48772">
        <ele>872</ele>
        <time>2015-07-08T10:27:14Z</time>
      </trkpt>
      <trkpt lat="46.21177" lon="4.48765">
        <ele>872</ele>
        <time>2015-07-08T10:27:17Z</time>
      </trkpt>
      <trkpt lat="46.2118" lon="4.48759">
        <ele>873</ele>
        <time>2015-07-08T10:27:21Z</time>
      </trkpt>
      <trkpt lat="46.21189" lon="4.48754">
        <ele>873</ele>
        <time>2015-07-08T10:27:32Z</time>
      </trkpt>
      <trkpt lat="46.21193" lon="4.48745">
        <ele>873</ele>
        <time>2015-07-08T10:27:39Z</time>
      </trkpt>
      <trkpt lat="46.21208" lon="4.48694">
        <ele>878</ele>
        <time>2015-07-08T10:28:13Z</time>
      </trkpt>
      <trkpt lat="46.21206" lon="4.48684">
        <ele>878</ele>
        <time>2015-07-08T10:28:25Z</time>
      </trkpt>
      <trkpt lat="46.21211" lon="4.48672">
        <ele>879</ele>
        <time>2015-07-08T10:28:29Z</time>
      </trkpt>
      <trkpt lat="46.21228" lon="4.48633">
        <ele>883</ele>
        <time>2015-07-08T10:28:59Z</time>
      </trkpt>
      <trkpt lat="46.21248" lon="4.486">
        <ele>886</ele>
        <time>2015-07-08T10:29:28Z</time>
      </trkpt>
      <trkpt lat="46.21244" lon="4.48587">
        <ele>883</ele>
        <time>2015-07-08T10:29:47Z</time>
      </trkpt>
      <trkpt lat="46.21242" lon="4.4858">
        <ele>883</ele>
        <time>2015-07-08T10:29:51Z</time>
      </trkpt>
      <trkpt lat="46.21236" lon="4.4854">
        <ele>888</ele>
        <time>2015-07-08T10:30:22Z</time>
      </trkpt>
      <trkpt lat="46.21234" lon="4.48533">
        <ele>889</ele>
        <time>2015-07-08T10:30:28Z</time>
      </trkpt>
      <trkpt lat="46.21232" lon="4.48512">
        <ele>890</ele>
        <time>2015-07-08T10:31:02Z</time>
      </trkpt>
      <trkpt lat="46.21226" lon="4.48463">
        <ele>893</ele>
        <time>2015-07-08T10:31:32Z</time>
      </trkpt>
      <trkpt lat="46.21222" lon="4.48449">
        <ele>894</ele>
        <time>2015-07-08T10:31:40Z</time>
      </trkpt>
      <trkpt lat="46.21216" lon="4.48429">
        <ele>895</ele>
        <time>2015-07-08T10:31:51Z</time>
      </trkpt>
      <trkpt lat="46.21213" lon="4.48422">
        <ele>895</ele>
        <time>2015-07-08T10:31:55Z</time>
      </trkpt>
      <trkpt lat="46.21211" lon="4.48416">
        <ele>895</ele>
        <time>2015-07-08T10:31:59Z</time>
      </trkpt>
      <trkpt lat="46.21208" lon="4.48411">
        <ele>894</ele>
        <time>2015-07-08T10:32:03Z</time>
      </trkpt>
      <trkpt lat="46.21206" lon="4.48407">
        <ele>895</ele>
        <time>2015-07-08T10:32:10Z</time>
      </trkpt>
      <trkpt lat="46.21204" lon="4.484">
        <ele>894</ele>
        <time>2015-07-08T10:32:19Z</time>
      </trkpt>
      <trkpt lat="46.21183" lon="4.4836">
        <ele>898</ele>
        <time>2015-07-08T10:32:51Z</time>
      </trkpt>
      <trkpt lat="46.21177" lon="4.4836">
        <ele>899</ele>
        <time>2015-07-08T10:34:14Z</time>
      </trkpt>
      <trkpt lat="46.21173" lon="4.48362">
        <ele>899</ele>
        <time>2015-07-08T10:34:18Z</time>
      </trkpt>
      <trkpt lat="46.21167" lon="4.48362">
        <ele>899</ele>
        <time>2015-07-08T10:34:23Z</time>
      </trkpt>
      <trkpt lat="46.21148" lon="4.48369">
        <ele>901</ele>
        <time>2015-07-08T10:34:41Z</time>
      </trkpt>
      <trkpt lat="46.21143" lon="4.48372">
        <ele>901</ele>
        <time>2015-07-08T10:34:47Z</time>
      </trkpt>
      <trkpt lat="46.21111" lon="4.48396">
        <ele>906</ele>
        <time>2015-07-08T10:35:20Z</time>
      </trkpt>
      <trkpt lat="46.21083" lon="4.48414">
        <ele>911</ele>
        <time>2015-07-08T10:35:50Z</time>
      </trkpt>
      <trkpt lat="46.21079" lon="4.48419">
        <ele>912</ele>
        <time>2015-07-08T10:36:08Z</time>
      </trkpt>
      <trkpt lat="46.21077" lon="4.48425">
        <ele>912</ele>
        <time>2015-07-08T10:36:14Z</time>
      </trkpt>
      <trkpt lat="46.21071" lon="4.48432">
        <ele>914</ele>
        <time>2015-07-08T10:36:38Z</time>
      </trkpt>
      <trkpt lat="46.21048" lon="4.48443">
        <ele>918</ele>
        <time>2015-07-08T10:37:08Z</time>
      </trkpt>
      <trkpt lat="46.21039" lon="4.48452">
        <ele>920</ele>
        <time>2015-07-08T10:37:18Z</time>
      </trkpt>
      <trkpt lat="46.21013" lon="4.48479">
        <ele>923</ele>
        <time>2015-07-08T10:37:59Z</time>
      </trkpt>
      <trkpt lat="46.21001" lon="4.48484">
        <ele>926</ele>
        <time>2015-07-08T10:38:25Z</time>
      </trkpt>
      <trkpt lat="46.20992" lon="4.48489">
        <ele>926</ele>
        <time>2015-07-08T10:38:33Z</time>
      </trkpt>
      <trkpt lat="46.20983" lon="4.48489">
        <ele>927</ele>
        <time>2015-07-08T10:38:45Z</time>
      </trkpt>
      <trkpt lat="46.20978" lon="4.48488">
        <ele>926</ele>
        <time>2015-07-08T10:38:57Z</time>
      </trkpt>
      <trkpt lat="46.20959" lon="4.48485">
        <ele>927</ele>
        <time>2015-07-08T10:39:29Z</time>
      </trkpt>
      <trkpt lat="46.20953" lon="4.48485">
        <ele>926</ele>
        <time>2015-07-08T10:39:39Z</time>
      </trkpt>
      <trkpt lat="46.20924" lon="4.48483">
        <ele>942</ele>
        <time>2015-07-08T10:40:12Z</time>
      </trkpt>
      <trkpt lat="46.20918" lon="4.48481">
        <ele>943</ele>
        <time>2015-07-08T10:40:16Z</time>
      </trkpt>
      <trkpt lat="46.20913" lon="4.48484">
        <ele>946</ele>
        <time>2015-07-08T10:40:25Z</time>
      </trkpt>
      <trkpt lat="46.20909" lon="4.48486">
        <ele>946</ele>
        <time>2015-07-08T10:40:31Z</time>
      </trkpt>
      <trkpt lat="46.20887" lon="4.48489">
        <ele>952</ele>
        <time>2015-07-08T10:41:06Z</time>
      </trkpt>
      <trkpt lat="46.20883" lon="4.48486">
        <ele>953</ele>
        <time>2015-07-08T10:41:12Z</time>
      </trkpt>
      <trkpt lat="46.20881" lon="4.48484">
        <ele>954</ele>
        <time>2015-07-08T10:41:19Z</time>
      </trkpt>
      <trkpt lat="46.20882" lon="4.48486">
        <ele>955</ele>
        <time>2015-07-08T10:43:34Z</time>
      </trkpt>
      <trkpt lat="46.20886" lon="4.48482">
        <ele>955</ele>
        <time>2015-07-08T10:43:49Z</time>
      </trkpt>
      <trkpt lat="46.20889" lon="4.48497">
        <ele>955</ele>
        <time>2015-07-08T10:44:23Z</time>
      </trkpt>
      <trkpt lat="46.20894" lon="4.48508">
        <ele>959</ele>
        <time>2015-07-08T10:44:33Z</time>
      </trkpt>
      <trkpt lat="46.20896" lon="4.48535">
        <ele>961</ele>
        <time>2015-07-08T10:44:52Z</time>
      </trkpt>
      <trkpt lat="46.209" lon="4.48543">
        <ele>961</ele>
        <time>2015-07-08T10:44:58Z</time>
      </trkpt>
      <trkpt lat="46.20901" lon="4.4855">
        <ele>961</ele>
        <time>2015-07-08T10:45:03Z</time>
      </trkpt>
      <trkpt lat="46.209" lon="4.48558">
        <ele>963</ele>
        <time>2015-07-08T10:45:08Z</time>
      </trkpt>
      <trkpt lat="46.20906" lon="4.48583">
        <ele>970</ele>
        <time>2015-07-08T10:45:30Z</time>
      </trkpt>
      <trkpt lat="46.20907" lon="4.48585">
        <ele>970</ele>
        <time>2015-07-08T10:45:42Z</time>
      </trkpt>
      <trkpt lat="46.20907" lon="4.48592">
        <ele>970</ele>
        <time>2015-07-08T10:45:47Z</time>
      </trkpt>
      <trkpt lat="46.20908" lon="4.48602">
        <ele>971</ele>
        <time>2015-07-08T10:46:00Z</time>
      </trkpt>
      <trkpt lat="46.209" lon="4.48636">
        <ele>976</ele>
        <time>2015-07-08T10:46:35Z</time>
      </trkpt>
      <trkpt lat="46.20903" lon="4.48645">
        <ele>976</ele>
        <time>2015-07-08T10:46:46Z</time>
      </trkpt>
      <trkpt lat="46.20905" lon="4.48659">
        <ele>977</ele>
        <time>2015-07-08T10:46:56Z</time>
      </trkpt>
      <trkpt lat="46.20901" lon="4.4871">
        <ele>981</ele>
        <time>2015-07-08T10:47:29Z</time>
      </trkpt>
      <trkpt lat="46.20894" lon="4.48721">
        <ele>983</ele>
        <time>2015-07-08T10:47:37Z</time>
      </trkpt>
      <trkpt lat="46.20881" lon="4.48734">
        <ele>986</ele>
        <time>2015-07-08T10:48:04Z</time>
      </trkpt>
      <trkpt lat="46.2088" lon="4.48741">
        <ele>986</ele>
        <time>2015-07-08T10:48:08Z</time>
      </trkpt>
      <trkpt lat="46.20878" lon="4.48743">
        <ele>987</ele>
        <time>2015-07-08T10:48:25Z</time>
      </trkpt>
      <trkpt lat="46.20873" lon="4.48744">
        <ele>988</ele>
        <time>2015-07-08T10:48:30Z</time>
      </trkpt>
      <trkpt lat="46.20869" lon="4.48741">
        <ele>988</ele>
        <time>2015-07-08T10:48:35Z</time>
      </trkpt>
      <trkpt lat="46.20866" lon="4.48748">
        <ele>989</ele>
        <time>2015-07-08T10:48:41Z</time>
      </trkpt>
      <trkpt lat="46.20859" lon="4.48771">
        <ele>990</ele>
        <time>2015-07-08T10:48:54Z</time>
      </trkpt>
      <trkpt lat="46.20841" lon="4.48789">
        <ele>994</ele>
        <time>2015-07-08T10:49:23Z</time>
      </trkpt>
      <trkpt lat="46.20838" lon="4.48791">
        <ele>994</ele>
        <time>2015-07-08T10:49:32Z</time>
      </trkpt>
      <trkpt lat="46.20833" lon="4.48787">
        <ele>996</ele>
        <time>2015-07-08T10:49:48Z</time>
      </trkpt>
      <trkpt lat="46.20826" lon="4.48777">
        <ele>997</ele>
        <time>2015-07-08T10:49:57Z</time>
      </trkpt>
      <trkpt lat="46.20826" lon="4.48769">
        <ele>998</ele>
        <time>2015-07-08T10:50:10Z</time>
      </trkpt>
      <trkpt lat="46.20831" lon="4.48741">
        <ele>1003</ele>
        <time>2015-07-08T10:50:31Z</time>
      </trkpt>
      <trkpt lat="46.20833" lon="4.48734">
        <ele>1003</ele>
        <time>2015-07-08T10:50:36Z</time>
      </trkpt>
      <trkpt lat="46.20832" lon="4.48726">
        <ele>1003</ele>
        <time>2015-07-08T10:50:41Z</time>
      </trkpt>
      <trkpt lat="46.20832" lon="4.48714">
        <ele>1004</ele>
        <time>2015-07-08T10:50:48Z</time>
      </trkpt>
      <trkpt lat="46.20832" lon="4.48706">
        <ele>1004</ele>
        <time>2015-07-08T10:50:54Z</time>
      </trkpt>
      <trkpt lat="46.20828" lon="4.48702">
        <ele>1003</ele>
        <time>2015-07-08T10:51:02Z</time>
      </trkpt>
      <trkpt lat="46.20825" lon="4.48696">
        <ele>1002</ele>
        <time>2015-07-08T10:51:06Z</time>
      </trkpt>
      <trkpt lat="46.20822" lon="4.48692">
        <ele>1002</ele>
        <time>2015-07-08T10:51:10Z</time>
      </trkpt>
      <trkpt lat="46.20813" lon="4.4869">
        <ele>1002</ele>
        <time>2015-07-08T10:51:17Z</time>
      </trkpt>
      <trkpt lat="46.20813" lon="4.48696">
        <ele>1002</ele>
        <time>2015-07-08T10:51:45Z</time>
      </trkpt>
      <trkpt lat="46.20809" lon="4.48701">
        <ele>1002</ele>
        <time>2015-07-08T10:51:49Z</time>
      </trkpt>
      <trkpt lat="46.20804" lon="4.48703">
        <ele>1004</ele>
        <time>2015-07-08T10:51:56Z</time>
      </trkpt>
      <trkpt lat="46.20791" lon="4.48696">
        <ele>1005</ele>
        <time>2015-07-08T10:52:05Z</time>
      </trkpt>
      <trkpt lat="46.20786" lon="4.48699">
        <ele>1006</ele>
        <time>2015-07-08T10:52:10Z</time>
      </trkpt>
      <trkpt lat="46.20787" lon="4.48708">
        <ele>1008</ele>
        <time>2015-07-08T10:52:23Z</time>
      </trkpt>
      <trkpt lat="46.20798" lon="4.48724">
        <ele>1012</ele>
        <time>2015-07-08T10:52:37Z</time>
      </trkpt>
      <trkpt lat="46.20801" lon="4.48737">
        <ele>1011</ele>
        <time>2015-07-08T10:52:47Z</time>
      </trkpt>
      <trkpt lat="46.208" lon="4.48738">
        <ele>1008</ele>
        <time>2015-07-08T10:53:15Z</time>
      </trkpt>
      <trkpt lat="46.20796" lon="4.48738">
        <ele>1007</ele>
        <time>2015-07-08T10:54:12Z</time>
      </trkpt>
      <trkpt lat="46.20797" lon="4.48734">
        <ele>1007</ele>
        <time>2015-07-08T11:01:33Z</time>
      </trkpt>
      <trkpt lat="46.20801" lon="4.48736">
        <ele>1007</ele>
        <time>2015-07-08T11:01:42Z</time>
      </trkpt>
      <trkpt lat="46.20806" lon="4.48736">
        <ele>1007</ele>
        <time>2015-07-08T11:01:48Z</time>
      </trkpt>
      <trkpt lat="46.20808" lon="4.48735">
        <ele>1007</ele>
        <time>2015-07-08T11:13:02Z</time>
      </trkpt>
      <trkpt lat="46.20812" lon="4.48737">
        <ele>1007</ele>
        <time>2015-07-08T11:13:14Z</time>
      </trkpt>
      <trkpt lat="46.20811" lon="4.48729">
        <ele>1007</ele>
        <time>2015-07-08T11:13:28Z</time>
      </trkpt>
      <trkpt lat="46.20808" lon="4.48732">
        <ele>1006</ele>
        <time>2015-07-08T11:27:26Z</time>
      </trkpt>
      <trkpt lat="46.20805" lon="4.48736">
        <ele>1006</ele>
        <time>2015-07-08T11:27:39Z</time>
      </trkpt>
      <trkpt lat="46.20799" lon="4.48735">
        <ele>1006</ele>
        <time>2015-07-08T11:27:50Z</time>
      </trkpt>
      <trkpt lat="46.20797" lon="4.48733">
        <ele>1005</ele>
        <time>2015-07-08T11:27:57Z</time>
      </trkpt>
      <trkpt lat="46.20796" lon="4.48726">
        <ele>1005</ele>
        <time>2015-07-08T11:28:03Z</time>
      </trkpt>
      <trkpt lat="46.20798" lon="4.48718">
        <ele>1005</ele>
        <time>2015-07-08T11:28:08Z</time>
      </trkpt>
      <trkpt lat="46.20803" lon="4.48716">
        <ele>1006</ele>
        <time>2015-07-08T11:28:14Z</time>
      </trkpt>
      <trkpt lat="46.20805" lon="4.48714">
        <ele>1006</ele>
        <time>2015-07-08T11:28:25Z</time>
      </trkpt>
      <trkpt lat="46.20804" lon="4.48707">
        <ele>1006</ele>
        <time>2015-07-08T11:29:38Z</time>
      </trkpt>
      <trkpt lat="46.20801" lon="4.48701">
        <ele>1006</ele>
        <time>2015-07-08T11:29:45Z</time>
      </trkpt>
      <trkpt lat="46.20798" lon="4.48702">
        <ele>1006</ele>
        <time>2015-07-08T11:29:52Z</time>
      </trkpt>
      <trkpt lat="46.20796" lon="4.48702">
        <ele>1008</ele>
        <time>2015-07-08T11:30:31Z</time>
      </trkpt>
      <trkpt lat="46.20797" lon="4.48699">
        <ele>1016</ele>
        <time>2015-07-08T11:35:00Z</time>
      </trkpt>
      <trkpt lat="46.20801" lon="4.48699">
        <ele>1016</ele>
        <time>2015-07-08T11:35:57Z</time>
      </trkpt>
      <trkpt lat="46.20803" lon="4.48703">
        <ele>1009</ele>
        <time>2015-07-08T11:36:55Z</time>
      </trkpt>
      <trkpt lat="46.20807" lon="4.48709">
        <ele>1008</ele>
        <time>2015-07-08T11:36:59Z</time>
      </trkpt>
      <trkpt lat="46.20808" lon="4.48716">
        <ele>1006</ele>
        <time>2015-07-08T11:37:03Z</time>
      </trkpt>
      <trkpt lat="46.2081" lon="4.48722">
        <ele>1006</ele>
        <time>2015-07-08T11:37:08Z</time>
      </trkpt>
      <trkpt lat="46.20809" lon="4.48729">
        <ele>1006</ele>
        <time>2015-07-08T11:37:18Z</time>
      </trkpt>
      <trkpt lat="46.20806" lon="4.48732">
        <ele>1006</ele>
        <time>2015-07-08T11:37:54Z</time>
      </trkpt>
      <trkpt lat="46.20802" lon="4.48735">
        <ele>1008</ele>
        <time>2015-07-08T11:45:07Z</time>
      </trkpt>
      <trkpt lat="46.20806" lon="4.48732">
        <ele>1011</ele>
        <time>2015-07-08T11:57:57Z</time>
      </trkpt>
      <trkpt lat="46.20809" lon="4.48734">
        <ele>1011</ele>
        <time>2015-07-08T12:00:52Z</time>
      </trkpt>
      <trkpt lat="46.20808" lon="4.48725">
        <ele>1010</ele>
        <time>2015-07-08T12:03:39Z</time>
      </trkpt>
      <trkpt lat="46.20805" lon="4.4872">
        <ele>1009</ele>
        <time>2015-07-08T12:03:44Z</time>
      </trkpt>
      <trkpt lat="46.208" lon="4.4872">
        <ele>1008</ele>
        <time>2015-07-08T12:03:48Z</time>
      </trkpt>
      <trkpt lat="46.20796" lon="4.48725">
        <ele>1008</ele>
        <time>2015-07-08T12:03:53Z</time>
      </trkpt>
      <trkpt lat="46.20794" lon="4.48731">
        <ele>1008</ele>
        <time>2015-07-08T12:03:58Z</time>
      </trkpt>
      <trkpt lat="46.20792" lon="4.48737">
        <ele>1008</ele>
        <time>2015-07-08T12:04:03Z</time>
      </trkpt>
      <trkpt lat="46.20789" lon="4.48751">
        <ele>1007</ele>
        <time>2015-07-08T12:04:14Z</time>
      </trkpt>
      <trkpt lat="46.20788" lon="4.48748">
        <ele>1007</ele>
        <time>2015-07-08T12:04:50Z</time>
      </trkpt>
      <trkpt lat="46.20787" lon="4.48741">
        <ele>1007</ele>
        <time>2015-07-08T12:04:54Z</time>
      </trkpt>
      <trkpt lat="46.20787" lon="4.48734">
        <ele>1007</ele>
        <time>2015-07-08T12:04:58Z</time>
      </trkpt>
      <trkpt lat="46.20791" lon="4.48727">
        <ele>1007</ele>
        <time>2015-07-08T12:05:02Z</time>
      </trkpt>
      <trkpt lat="46.20804" lon="4.48698">
        <ele>1009</ele>
        <time>2015-07-08T12:05:24Z</time>
      </trkpt>
      <trkpt lat="46.20806" lon="4.48691">
        <ele>1009</ele>
        <time>2015-07-08T12:05:29Z</time>
      </trkpt>
      <trkpt lat="46.2081" lon="4.48688">
        <ele>1008</ele>
        <time>2015-07-08T12:05:33Z</time>
      </trkpt>
      <trkpt lat="46.20815" lon="4.48687">
        <ele>1007</ele>
        <time>2015-07-08T12:05:37Z</time>
      </trkpt>
      <trkpt lat="46.2082" lon="4.4869">
        <ele>1007</ele>
        <time>2015-07-08T12:05:41Z</time>
      </trkpt>
      <trkpt lat="46.20826" lon="4.487">
        <ele>1006</ele>
        <time>2015-07-08T12:05:47Z</time>
      </trkpt>
      <trkpt lat="46.20828" lon="4.48708">
        <ele>1006</ele>
        <time>2015-07-08T12:05:51Z</time>
      </trkpt>
      <trkpt lat="46.20831" lon="4.48714">
        <ele>1006</ele>
        <time>2015-07-08T12:05:55Z</time>
      </trkpt>
      <trkpt lat="46.20833" lon="4.48722">
        <ele>1006</ele>
        <time>2015-07-08T12:05:59Z</time>
      </trkpt>
      <trkpt lat="46.20833" lon="4.48728">
        <ele>1006</ele>
        <time>2015-07-08T12:06:03Z</time>
      </trkpt>
      <trkpt lat="46.20833" lon="4.48735">
        <ele>1006</ele>
        <time>2015-07-08T12:06:07Z</time>
      </trkpt>
      <trkpt lat="46.20831" lon="4.48742">
        <ele>1006</ele>
        <time>2015-07-08T12:06:11Z</time>
      </trkpt>
      <trkpt lat="46.20832" lon="4.48749">
        <ele>1006</ele>
        <time>2015-07-08T12:06:13Z</time>
      </trkpt>
      <trkpt lat="46.20831" lon="4.48755">
        <ele>1005</ele>
        <time>2015-07-08T12:06:18Z</time>
      </trkpt>
      <trkpt lat="46.20827" lon="4.48775">
        <ele>1005</ele>
        <time>2015-07-08T12:06:33Z</time>
      </trkpt>
      <trkpt lat="46.20829" lon="4.48782">
        <ele>1006</ele>
        <time>2015-07-08T12:06:37Z</time>
      </trkpt>
      <trkpt lat="46.20831" lon="4.48787">
        <ele>1005</ele>
        <time>2015-07-08T12:06:41Z</time>
      </trkpt>
      <trkpt lat="46.20836" lon="4.48789">
        <ele>1005</ele>
        <time>2015-07-08T12:06:46Z</time>
      </trkpt>
      <trkpt lat="46.20845" lon="4.48781">
        <ele>1004</ele>
        <time>2015-07-08T12:06:56Z</time>
      </trkpt>
      <trkpt lat="46.20853" lon="4.48774">
        <ele>1003</ele>
        <time>2015-07-08T12:07:03Z</time>
      </trkpt>
      <trkpt lat="46.20857" lon="4.48769">
        <ele>1003</ele>
        <time>2015-07-08T12:07:07Z</time>
      </trkpt>
      <trkpt lat="46.20865" lon="4.48763">
        <ele>1002</ele>
        <time>2015-07-08T12:07:14Z</time>
      </trkpt>
      <trkpt lat="46.20867" lon="4.48756">
        <ele>1000</ele>
        <time>2015-07-08T12:07:18Z</time>
      </trkpt>
      <trkpt lat="46.20894" lon="4.48707">
        <ele>995</ele>
        <time>2015-07-08T12:07:51Z</time>
      </trkpt>
      <trkpt lat="46.20886" lon="4.48677">
        <ele>990</ele>
        <time>2015-07-08T12:08:03Z</time>
      </trkpt>
      <trkpt lat="46.20893" lon="4.48667">
        <ele>990</ele>
        <time>2015-07-08T12:08:10Z</time>
      </trkpt>
      <trkpt lat="46.20904" lon="4.48654">
        <ele>988</ele>
        <time>2015-07-08T12:08:22Z</time>
      </trkpt>
      <trkpt lat="46.20904" lon="4.4864">
        <ele>985</ele>
        <time>2015-07-08T12:08:51Z</time>
      </trkpt>
      <trkpt lat="46.20901" lon="4.48627">
        <ele>985</ele>
        <time>2015-07-08T12:09:01Z</time>
      </trkpt>
      <trkpt lat="46.20901" lon="4.48557">
        <ele>978</ele>
        <time>2015-07-08T12:09:34Z</time>
      </trkpt>
      <trkpt lat="46.20886" lon="4.48504">
        <ele>970</ele>
        <time>2015-07-08T12:10:05Z</time>
      </trkpt>
      <trkpt lat="46.2087" lon="4.48489">
        <ele>968</ele>
        <time>2015-07-08T12:10:29Z</time>
      </trkpt>
      <trkpt lat="46.20874" lon="4.48484">
        <ele>957</ele>
        <time>2015-07-08T12:13:15Z</time>
      </trkpt>
      <trkpt lat="46.20874" lon="4.48485">
        <ele>957</ele>
        <time>2015-07-08T12:17:01Z</time>
      </trkpt>
      <trkpt lat="46.20865" lon="4.48472">
        <ele>957</ele>
        <time>2015-07-08T12:19:40Z</time>
      </trkpt>
      <trkpt lat="46.20858" lon="4.48463">
        <ele>958</ele>
        <time>2015-07-08T12:19:47Z</time>
      </trkpt>
      <trkpt lat="46.2085" lon="4.48456">
        <ele>957</ele>
        <time>2015-07-08T12:19:57Z</time>
      </trkpt>
      <trkpt lat="46.20832" lon="4.48449">
        <ele>958</ele>
        <time>2015-07-08T12:20:14Z</time>
      </trkpt>
      <trkpt lat="46.20788" lon="4.48423">
        <ele>964</ele>
        <time>2015-07-08T12:20:52Z</time>
      </trkpt>
      <trkpt lat="46.20779" lon="4.48424">
        <ele>964</ele>
        <time>2015-07-08T12:20:59Z</time>
      </trkpt>
      <trkpt lat="46.20766" lon="4.48422">
        <ele>963</ele>
        <time>2015-07-08T12:21:20Z</time>
      </trkpt>
      <trkpt lat="46.20757" lon="4.48427">
        <ele>964</ele>
        <time>2015-07-08T12:21:28Z</time>
      </trkpt>
      <trkpt lat="46.20747" lon="4.48426">
        <ele>965</ele>
        <time>2015-07-08T12:21:42Z</time>
      </trkpt>
      <trkpt lat="46.20729" lon="4.48421">
        <ele>957</ele>
        <time>2015-07-08T12:22:00Z</time>
      </trkpt>
      <trkpt lat="46.20695" lon="4.48437">
        <ele>949</ele>
        <time>2015-07-08T12:22:32Z</time>
      </trkpt>
      <trkpt lat="46.20665" lon="4.48431">
        <ele>946</ele>
        <time>2015-07-08T12:24:00Z</time>
      </trkpt>
      <trkpt lat="46.20656" lon="4.48438">
        <ele>948</ele>
        <time>2015-07-08T12:24:08Z</time>
      </trkpt>
      <trkpt lat="46.20627" lon="4.48475">
        <ele>953</ele>
        <time>2015-07-08T12:24:46Z</time>
      </trkpt>
      <trkpt lat="46.2062" lon="4.48482">
        <ele>953</ele>
        <time>2015-07-08T12:24:55Z</time>
      </trkpt>
      <trkpt lat="46.20613" lon="4.48491">
        <ele>955</ele>
        <time>2015-07-08T12:25:04Z</time>
      </trkpt>
      <trkpt lat="46.20576" lon="4.48536">
        <ele>957</ele>
        <time>2015-07-08T12:25:37Z</time>
      </trkpt>
      <trkpt lat="46.20567" lon="4.48542">
        <ele>958</ele>
        <time>2015-07-08T12:25:45Z</time>
      </trkpt>
      <trkpt lat="46.20551" lon="4.48557">
        <ele>959</ele>
        <time>2015-07-08T12:26:02Z</time>
      </trkpt>
      <trkpt lat="46.20535" lon="4.48569">
        <ele>960</ele>
        <time>2015-07-08T12:26:19Z</time>
      </trkpt>
      <trkpt lat="46.20516" lon="4.48581">
        <ele>949</ele>
        <time>2015-07-08T12:26:36Z</time>
      </trkpt>
      <trkpt lat="46.2049" lon="4.48599">
        <ele>947</ele>
        <time>2015-07-08T12:26:55Z</time>
      </trkpt>
      <trkpt lat="46.20484" lon="4.48609">
        <ele>948</ele>
        <time>2015-07-08T12:27:03Z</time>
      </trkpt>
      <trkpt lat="46.20459" lon="4.48633">
        <ele>947</ele>
        <time>2015-07-08T12:27:24Z</time>
      </trkpt>
      <trkpt lat="46.20453" lon="4.48637">
        <ele>949</ele>
        <time>2015-07-08T12:27:49Z</time>
      </trkpt>
      <trkpt lat="46.20443" lon="4.4864">
        <ele>949</ele>
        <time>2015-07-08T12:27:58Z</time>
      </trkpt>
      <trkpt lat="46.20428" lon="4.48638">
        <ele>951</ele>
        <time>2015-07-08T12:28:12Z</time>
      </trkpt>
      <trkpt lat="46.20423" lon="4.48639">
        <ele>950</ele>
        <time>2015-07-08T12:28:18Z</time>
      </trkpt>
      <trkpt lat="46.20408" lon="4.48636">
        <ele>951</ele>
        <time>2015-07-08T12:28:29Z</time>
      </trkpt>
      <trkpt lat="46.20378" lon="4.48623">
        <ele>952</ele>
        <time>2015-07-08T12:28:52Z</time>
      </trkpt>
      <trkpt lat="46.20365" lon="4.48611">
        <ele>954</ele>
        <time>2015-07-08T12:29:43Z</time>
      </trkpt>
      <trkpt lat="46.20346" lon="4.48605">
        <ele>955</ele>
        <time>2015-07-08T12:29:59Z</time>
      </trkpt>
      <trkpt lat="46.20318" lon="4.48598">
        <ele>960</ele>
        <time>2015-07-08T12:30:25Z</time>
      </trkpt>
      <trkpt lat="46.20309" lon="4.48592">
        <ele>960</ele>
        <time>2015-07-08T12:30:31Z</time>
      </trkpt>
      <trkpt lat="46.20281" lon="4.48579">
        <ele>965</ele>
        <time>2015-07-08T12:31:03Z</time>
      </trkpt>
      <trkpt lat="46.20252" lon="4.48568">
        <ele>966</ele>
        <time>2015-07-08T12:31:29Z</time>
      </trkpt>
      <trkpt lat="46.20213" lon="4.48565">
        <ele>973</ele>
        <time>2015-07-08T12:32:01Z</time>
      </trkpt>
      <trkpt lat="46.20203" lon="4.48565">
        <ele>974</ele>
        <time>2015-07-08T12:32:09Z</time>
      </trkpt>
      <trkpt lat="46.20174" lon="4.48569">
        <ele>973</ele>
        <time>2015-07-08T12:32:37Z</time>
      </trkpt>
      <trkpt lat="46.20157" lon="4.48575">
        <ele>973</ele>
        <time>2015-07-08T12:32:56Z</time>
      </trkpt>
      <trkpt lat="46.20126" lon="4.48588">
        <ele>973</ele>
        <time>2015-07-08T12:33:30Z</time>
      </trkpt>
      <trkpt lat="46.20094" lon="4.48617">
        <ele>974</ele>
        <time>2015-07-08T12:34:03Z</time>
      </trkpt>
      <trkpt lat="46.20089" lon="4.48619">
        <ele>973</ele>
        <time>2015-07-08T12:34:11Z</time>
      </trkpt>
      <trkpt lat="46.20084" lon="4.48621">
        <ele>972</ele>
        <time>2015-07-08T12:34:15Z</time>
      </trkpt>
      <trkpt lat="46.2008" lon="4.48623">
        <ele>971</ele>
        <time>2015-07-08T12:34:19Z</time>
      </trkpt>
      <trkpt lat="46.20065" lon="4.48622">
        <ele>971</ele>
        <time>2015-07-08T12:34:32Z</time>
      </trkpt>
      <trkpt lat="46.2006" lon="4.4862">
        <ele>970</ele>
        <time>2015-07-08T12:34:37Z</time>
      </trkpt>
      <trkpt lat="46.20051" lon="4.48608">
        <ele>969</ele>
        <time>2015-07-08T12:34:43Z</time>
      </trkpt>
      <trkpt lat="46.2005" lon="4.48604">
        <ele>969</ele>
        <time>2015-07-08T12:34:44Z</time>
      </trkpt>
      <trkpt lat="46.20046" lon="4.486">
        <ele>968</ele>
        <time>2015-07-08T12:34:52Z</time>
      </trkpt>
      <trkpt lat="46.2004" lon="4.48588">
        <ele>967</ele>
        <time>2015-07-08T12:35:01Z</time>
      </trkpt>
      <trkpt lat="46.20036" lon="4.48588">
        <ele>967</ele>
        <time>2015-07-08T12:35:03Z</time>
      </trkpt>
      <trkpt lat="46.20032" lon="4.4859">
        <ele>966</ele>
        <time>2015-07-08T12:35:05Z</time>
      </trkpt>
      <trkpt lat="46.2003" lon="4.48595">
        <ele>966</ele>
        <time>2015-07-08T12:35:07Z</time>
      </trkpt>
      <trkpt lat="46.20025" lon="4.48598">
        <ele>966</ele>
        <time>2015-07-08T12:35:10Z</time>
      </trkpt>
      <trkpt lat="46.2002" lon="4.48592">
        <ele>966</ele>
        <time>2015-07-08T12:35:13Z</time>
      </trkpt>
      <trkpt lat="46.20012" lon="4.48577">
        <ele>965</ele>
        <time>2015-07-08T12:35:21Z</time>
      </trkpt>
      <trkpt lat="46.20011" lon="4.48568">
        <ele>964</ele>
        <time>2015-07-08T12:35:29Z</time>
      </trkpt>
      <trkpt lat="46.19995" lon="4.48529">
        <ele>963</ele>
        <time>2015-07-08T12:35:49Z</time>
      </trkpt>
      <trkpt lat="46.19999" lon="4.48525">
        <ele>963</ele>
        <time>2015-07-08T12:35:53Z</time>
      </trkpt>
      <trkpt lat="46.19998" lon="4.48515">
        <ele>962</ele>
        <time>2015-07-08T12:35:59Z</time>
      </trkpt>
      <trkpt lat="46.1999" lon="4.48502">
        <ele>961</ele>
        <time>2015-07-08T12:36:03Z</time>
      </trkpt>
      <trkpt lat="46.19988" lon="4.48495">
        <ele>960</ele>
        <time>2015-07-08T12:36:11Z</time>
      </trkpt>
      <trkpt lat="46.19979" lon="4.48473">
        <ele>961</ele>
        <time>2015-07-08T12:36:27Z</time>
      </trkpt>
      <trkpt lat="46.19979" lon="4.48466">
        <ele>960</ele>
        <time>2015-07-08T12:36:31Z</time>
      </trkpt>
      <trkpt lat="46.19973" lon="4.48443">
        <ele>957</ele>
        <time>2015-07-08T12:37:03Z</time>
      </trkpt>
      <trkpt lat="46.19953" lon="4.48397">
        <ele>949</ele>
        <time>2015-07-08T12:37:36Z</time>
      </trkpt>
      <trkpt lat="46.19946" lon="4.48386">
        <ele>948</ele>
        <time>2015-07-08T12:37:44Z</time>
      </trkpt>
      <trkpt lat="46.1994" lon="4.48375">
        <ele>947</ele>
        <time>2015-07-08T12:37:51Z</time>
      </trkpt>
      <trkpt lat="46.19924" lon="4.48324">
        <ele>944</ele>
        <time>2015-07-08T12:38:26Z</time>
      </trkpt>
      <trkpt lat="46.19904" lon="4.48286">
        <ele>939</ele>
        <time>2015-07-08T12:38:56Z</time>
      </trkpt>
      <trkpt lat="46.19897" lon="4.48275">
        <ele>938</ele>
        <time>2015-07-08T12:39:02Z</time>
      </trkpt>
      <trkpt lat="46.19864" lon="4.48245">
        <ele>932</ele>
        <time>2015-07-08T12:39:35Z</time>
      </trkpt>
      <trkpt lat="46.19823" lon="4.48213">
        <ele>925</ele>
        <time>2015-07-08T12:40:08Z</time>
      </trkpt>
      <trkpt lat="46.19789" lon="4.48187">
        <ele>920</ele>
        <time>2015-07-08T12:40:36Z</time>
      </trkpt>
      <trkpt lat="46.19781" lon="4.48181">
        <ele>920</ele>
        <time>2015-07-08T12:40:43Z</time>
      </trkpt>
      <trkpt lat="46.19762" lon="4.48134">
        <ele>916</ele>
        <time>2015-07-08T12:41:15Z</time>
      </trkpt>
      <trkpt lat="46.19761" lon="4.48121">
        <ele>915</ele>
        <time>2015-07-08T12:41:24Z</time>
      </trkpt>
      <trkpt lat="46.19758" lon="4.48116">
        <ele>915</ele>
        <time>2015-07-08T12:41:40Z</time>
      </trkpt>
      <trkpt lat="46.19763" lon="4.48105">
        <ele>915</ele>
        <time>2015-07-08T12:42:38Z</time>
      </trkpt>
      <trkpt lat="46.19761" lon="4.48063">
        <ele>923</ele>
        <time>2015-07-08T12:43:00Z</time>
      </trkpt>
      <trkpt lat="46.19763" lon="4.48009">
        <ele>923</ele>
        <time>2015-07-08T12:43:32Z</time>
      </trkpt>
      <trkpt lat="46.19763" lon="4.47988">
        <ele>921</ele>
        <time>2015-07-08T12:43:44Z</time>
      </trkpt>
      <trkpt lat="46.19764" lon="4.47974">
        <ele>922</ele>
        <time>2015-07-08T12:43:52Z</time>
      </trkpt>
      <trkpt lat="46.19765" lon="4.47967">
        <ele>922</ele>
        <time>2015-07-08T12:43:56Z</time>
      </trkpt>
      <trkpt lat="46.1977" lon="4.47956">
        <ele>920</ele>
        <time>2015-07-08T12:44:04Z</time>
      </trkpt>
      <trkpt lat="46.1977" lon="4.47948">
        <ele>920</ele>
        <time>2015-07-08T12:44:09Z</time>
      </trkpt>
      <trkpt lat="46.19771" lon="4.4794">
        <ele>919</ele>
        <time>2015-07-08T12:44:13Z</time>
      </trkpt>
      <trkpt lat="46.1977" lon="4.47937">
        <ele>920</ele>
        <time>2015-07-08T12:44:19Z</time>
      </trkpt>
      <trkpt lat="46.19772" lon="4.47937">
        <ele>919</ele>
        <time>2015-07-08T12:44:40Z</time>
      </trkpt>
      <trkpt lat="46.19773" lon="4.47922">
        <ele>916</ele>
        <time>2015-07-08T12:45:34Z</time>
      </trkpt>
      <trkpt lat="46.19775" lon="4.47854">
        <ele>922</ele>
        <time>2015-07-08T12:46:12Z</time>
      </trkpt>
      <trkpt lat="46.19774" lon="4.47799">
        <ele>923</ele>
        <time>2015-07-08T12:46:43Z</time>
      </trkpt>
      <trkpt lat="46.19769" lon="4.47744">
        <ele>926</ele>
        <time>2015-07-08T12:47:15Z</time>
      </trkpt>
      <trkpt lat="46.19756" lon="4.47693">
        <ele>926</ele>
        <time>2015-07-08T12:47:47Z</time>
      </trkpt>
      <trkpt lat="46.19752" lon="4.47681">
        <ele>926</ele>
        <time>2015-07-08T12:47:53Z</time>
      </trkpt>
      <trkpt lat="46.19749" lon="4.47667">
        <ele>926</ele>
        <time>2015-07-08T12:48:00Z</time>
      </trkpt>
      <trkpt lat="46.19746" lon="4.47654">
        <ele>926</ele>
        <time>2015-07-08T12:48:09Z</time>
      </trkpt>
      <trkpt lat="46.1974" lon="4.47644">
        <ele>927</ele>
        <time>2015-07-08T12:48:19Z</time>
      </trkpt>
      <trkpt lat="46.19718" lon="4.47617">
        <ele>928</ele>
        <time>2015-07-08T12:48:44Z</time>
      </trkpt>
      <trkpt lat="46.19704" lon="4.47599">
        <ele>928</ele>
        <time>2015-07-08T12:48:58Z</time>
      </trkpt>
      <trkpt lat="46.19694" lon="4.47595">
        <ele>928</ele>
        <time>2015-07-08T12:49:06Z</time>
      </trkpt>
      <trkpt lat="46.19671" lon="4.47592">
        <ele>928</ele>
        <time>2015-07-08T12:49:23Z</time>
      </trkpt>
      <trkpt lat="46.19667" lon="4.47591">
        <ele>927</ele>
        <time>2015-07-08T12:49:27Z</time>
      </trkpt>
      <trkpt lat="46.19639" lon="4.47579">
        <ele>925</ele>
        <time>2015-07-08T12:49:49Z</time>
      </trkpt>
      <trkpt lat="46.19629" lon="4.47574">
        <ele>923</ele>
        <time>2015-07-08T12:50:05Z</time>
      </trkpt>
      <trkpt lat="46.19624" lon="4.47572">
        <ele>922</ele>
        <time>2015-07-08T12:50:09Z</time>
      </trkpt>
      <trkpt lat="46.19621" lon="4.47567">
        <ele>921</ele>
        <time>2015-07-08T12:50:17Z</time>
      </trkpt>
      <trkpt lat="46.19584" lon="4.47545">
        <ele>918</ele>
        <time>2015-07-08T12:50:41Z</time>
      </trkpt>
      <trkpt lat="46.19576" lon="4.47537">
        <ele>919</ele>
        <time>2015-07-08T12:50:48Z</time>
      </trkpt>
      <trkpt lat="46.19566" lon="4.47535">
        <ele>919</ele>
        <time>2015-07-08T12:50:56Z</time>
      </trkpt>
      <trkpt lat="46.1955" lon="4.4752">
        <ele>919</ele>
        <time>2015-07-08T12:51:10Z</time>
      </trkpt>
      <trkpt lat="46.19537" lon="4.47507">
        <ele>916</ele>
        <time>2015-07-08T12:51:24Z</time>
      </trkpt>
      <trkpt lat="46.19529" lon="4.47504">
        <ele>916</ele>
        <time>2015-07-08T12:51:34Z</time>
      </trkpt>
      <trkpt lat="46.19525" lon="4.47502">
        <ele>914</ele>
        <time>2015-07-08T12:51:50Z</time>
      </trkpt>
      <trkpt lat="46.19515" lon="4.47494">
        <ele>913</ele>
        <time>2015-07-08T12:51:59Z</time>
      </trkpt>
      <trkpt lat="46.19493" lon="4.47489">
        <ele>913</ele>
        <time>2015-07-08T12:52:18Z</time>
      </trkpt>
      <trkpt lat="46.19459" lon="4.47479">
        <ele>919</ele>
        <time>2015-07-08T12:52:49Z</time>
      </trkpt>
      <trkpt lat="46.19457" lon="4.47478">
        <ele>919</ele>
        <time>2015-07-08T12:52:51Z</time>
      </trkpt>
      <trkpt lat="46.19455" lon="4.47476">
        <ele>919</ele>
        <time>2015-07-08T12:52:52Z</time>
      </trkpt>
      <trkpt lat="46.19447" lon="4.47476">
        <ele>916</ele>
        <time>2015-07-08T12:53:11Z</time>
      </trkpt>
      <trkpt lat="46.19438" lon="4.47476">
        <ele>916</ele>
        <time>2015-07-08T12:53:18Z</time>
      </trkpt>
      <trkpt lat="46.19428" lon="4.47473">
        <ele>916</ele>
        <time>2015-07-08T12:53:28Z</time>
      </trkpt>
      <trkpt lat="46.1941" lon="4.47459">
        <ele>913</ele>
        <time>2015-07-08T12:53:44Z</time>
      </trkpt>
      <trkpt lat="46.19402" lon="4.47453">
        <ele>913</ele>
        <time>2015-07-08T12:53:51Z</time>
      </trkpt>
      <trkpt lat="46.19371" lon="4.47419">
        <ele>910</ele>
        <time>2015-07-08T12:54:22Z</time>
      </trkpt>
      <trkpt lat="46.19366" lon="4.47417">
        <ele>910</ele>
        <time>2015-07-08T12:54:27Z</time>
      </trkpt>
      <trkpt lat="46.19349" lon="4.47407">
        <ele>913</ele>
        <time>2015-07-08T12:54:41Z</time>
      </trkpt>
      <trkpt lat="46.19344" lon="4.47404">
        <ele>913</ele>
        <time>2015-07-08T12:54:46Z</time>
      </trkpt>
      <trkpt lat="46.1934" lon="4.47399">
        <ele>913</ele>
        <time>2015-07-08T12:54:49Z</time>
      </trkpt>
      <trkpt lat="46.19336" lon="4.47398">
        <ele>913</ele>
        <time>2015-07-08T12:54:51Z</time>
      </trkpt>
      <trkpt lat="46.19329" lon="4.47396">
        <ele>913</ele>
        <time>2015-07-08T12:54:56Z</time>
      </trkpt>
      <trkpt lat="46.19324" lon="4.47393">
        <ele>913</ele>
        <time>2015-07-08T12:55:03Z</time>
      </trkpt>
      <trkpt lat="46.19316" lon="4.47383">
        <ele>913</ele>
        <time>2015-07-08T12:55:12Z</time>
      </trkpt>
      <trkpt lat="46.19297" lon="4.47376">
        <ele>911</ele>
        <time>2015-07-08T12:55:28Z</time>
      </trkpt>
      <trkpt lat="46.19286" lon="4.47372">
        <ele>911</ele>
        <time>2015-07-08T12:55:36Z</time>
      </trkpt>
      <trkpt lat="46.19279" lon="4.47374">
        <ele>909</ele>
        <time>2015-07-08T12:55:40Z</time>
      </trkpt>
      <trkpt lat="46.19275" lon="4.47377">
        <ele>910</ele>
        <time>2015-07-08T12:55:43Z</time>
      </trkpt>
      <trkpt lat="46.19239" lon="4.47378">
        <ele>909</ele>
        <time>2015-07-08T12:56:16Z</time>
      </trkpt>
      <trkpt lat="46.19205" lon="4.47394">
        <ele>907</ele>
        <time>2015-07-08T12:56:47Z</time>
      </trkpt>
      <trkpt lat="46.1919" lon="4.47402">
        <ele>905</ele>
        <time>2015-07-08T12:56:59Z</time>
      </trkpt>
      <trkpt lat="46.19175" lon="4.474">
        <ele>904</ele>
        <time>2015-07-08T12:57:11Z</time>
      </trkpt>
      <trkpt lat="46.1917" lon="4.47399">
        <ele>904</ele>
        <time>2015-07-08T12:57:15Z</time>
      </trkpt>
      <trkpt lat="46.19164" lon="4.47396">
        <ele>903</ele>
        <time>2015-07-08T12:57:20Z</time>
      </trkpt>
      <trkpt lat="46.1916" lon="4.47398">
        <ele>903</ele>
        <time>2015-07-08T12:57:25Z</time>
      </trkpt>
      <trkpt lat="46.19155" lon="4.47398">
        <ele>903</ele>
        <time>2015-07-08T12:57:28Z</time>
      </trkpt>
      <trkpt lat="46.19131" lon="4.47396">
        <ele>905</ele>
        <time>2015-07-08T12:57:45Z</time>
      </trkpt>
      <trkpt lat="46.19119" lon="4.47388">
        <ele>905</ele>
        <time>2015-07-08T12:57:55Z</time>
      </trkpt>
      <trkpt lat="46.19114" lon="4.47389">
        <ele>904</ele>
        <time>2015-07-08T12:58:02Z</time>
      </trkpt>
      <trkpt lat="46.1909" lon="4.47386">
        <ele>903</ele>
        <time>2015-07-08T12:58:21Z</time>
      </trkpt>
      <trkpt lat="46.19078" lon="4.47378">
        <ele>901</ele>
        <time>2015-07-08T12:58:30Z</time>
      </trkpt>
      <trkpt lat="46.19074" lon="4.47378">
        <ele>901</ele>
        <time>2015-07-08T12:58:35Z</time>
      </trkpt>
      <trkpt lat="46.19069" lon="4.47375">
        <ele>901</ele>
        <time>2015-07-08T12:58:37Z</time>
      </trkpt>
      <trkpt lat="46.19065" lon="4.4737">
        <ele>900</ele>
        <time>2015-07-08T12:58:40Z</time>
      </trkpt>
      <trkpt lat="46.19064" lon="4.47363">
        <ele>899</ele>
        <time>2015-07-08T12:58:45Z</time>
      </trkpt>
      <trkpt lat="46.1906" lon="4.4736">
        <ele>899</ele>
        <time>2015-07-08T12:58:52Z</time>
      </trkpt>
      <trkpt lat="46.19055" lon="4.47357">
        <ele>899</ele>
        <time>2015-07-08T12:58:57Z</time>
      </trkpt>
      <trkpt lat="46.19019" lon="4.47332">
        <ele>894</ele>
        <time>2015-07-08T12:59:28Z</time>
      </trkpt>
      <trkpt lat="46.19" lon="4.47323">
        <ele>895</ele>
        <time>2015-07-08T12:59:46Z</time>
      </trkpt>
      <trkpt lat="46.18965" lon="4.47299">
        <ele>893</ele>
        <time>2015-07-08T13:00:17Z</time>
      </trkpt>
      <trkpt lat="46.1894" lon="4.47279">
        <ele>891</ele>
        <time>2015-07-08T13:00:39Z</time>
      </trkpt>
      <trkpt lat="46.18904" lon="4.47233">
        <ele>882</ele>
        <time>2015-07-08T13:01:16Z</time>
      </trkpt>
      <trkpt lat="46.18889" lon="4.47215">
        <ele>879</ele>
        <time>2015-07-08T13:01:32Z</time>
      </trkpt>
      <trkpt lat="46.18882" lon="4.47205">
        <ele>879</ele>
        <time>2015-07-08T13:01:43Z</time>
      </trkpt>
      <trkpt lat="46.18867" lon="4.47187">
        <ele>881</ele>
        <time>2015-07-08T13:01:59Z</time>
      </trkpt>
      <trkpt lat="46.1886" lon="4.47177">
        <ele>881</ele>
        <time>2015-07-08T13:02:07Z</time>
      </trkpt>
      <trkpt lat="46.18839" lon="4.4715">
        <ele>877</ele>
        <time>2015-07-08T13:02:25Z</time>
      </trkpt>
      <trkpt lat="46.18839" lon="4.47137">
        <ele>874</ele>
        <time>2015-07-08T13:02:34Z</time>
      </trkpt>
      <trkpt lat="46.18817" lon="4.47093">
        <ele>870</ele>
        <time>2015-07-08T13:03:08Z</time>
      </trkpt>
      <trkpt lat="46.18806" lon="4.47071">
        <ele>872</ele>
        <time>2015-07-08T13:03:24Z</time>
      </trkpt>
      <trkpt lat="46.18773" lon="4.47023">
        <ele>870</ele>
        <time>2015-07-08T13:04:01Z</time>
      </trkpt>
      <trkpt lat="46.18741" lon="4.46993">
        <ele>868</ele>
        <time>2015-07-08T13:04:34Z</time>
      </trkpt>
      <trkpt lat="46.18709" lon="4.46965">
        <ele>866</ele>
        <time>2015-07-08T13:05:04Z</time>
      </trkpt>
      <trkpt lat="46.18702" lon="4.46956">
        <ele>865</ele>
        <time>2015-07-08T13:05:12Z</time>
      </trkpt>
      <trkpt lat="46.187" lon="4.46943">
        <ele>865</ele>
        <time>2015-07-08T13:05:24Z</time>
      </trkpt>
      <trkpt lat="46.18693" lon="4.46936">
        <ele>864</ele>
        <time>2015-07-08T13:05:29Z</time>
      </trkpt>
      <trkpt lat="46.18654" lon="4.46909">
        <ele>863</ele>
        <time>2015-07-08T13:06:04Z</time>
      </trkpt>
      <trkpt lat="46.18638" lon="4.46892">
        <ele>862</ele>
        <time>2015-07-08T13:06:19Z</time>
      </trkpt>
      <trkpt lat="46.1863" lon="4.46886">
        <ele>862</ele>
        <time>2015-07-08T13:06:25Z</time>
      </trkpt>
      <trkpt lat="46.18621" lon="4.46881">
        <ele>861</ele>
        <time>2015-07-08T13:06:33Z</time>
      </trkpt>
      <trkpt lat="46.18612" lon="4.46876">
        <ele>860</ele>
        <time>2015-07-08T13:06:39Z</time>
      </trkpt>
      <trkpt lat="46.18578" lon="4.46852">
        <ele>857</ele>
        <time>2015-07-08T13:07:10Z</time>
      </trkpt>
      <trkpt lat="46.18543" lon="4.46828">
        <ele>856</ele>
        <time>2015-07-08T13:07:42Z</time>
      </trkpt>
      <trkpt lat="46.18517" lon="4.46811">
        <ele>854</ele>
        <time>2015-07-08T13:08:10Z</time>
      </trkpt>
      <trkpt lat="46.18513" lon="4.46806">
        <ele>854</ele>
        <time>2015-07-08T13:08:15Z</time>
      </trkpt>
      <trkpt lat="46.18507" lon="4.46797">
        <ele>854</ele>
        <time>2015-07-08T13:08:29Z</time>
      </trkpt>
      <trkpt lat="46.18503" lon="4.46796">
        <ele>854</ele>
        <time>2015-07-08T13:09:27Z</time>
      </trkpt>
      <trkpt lat="46.185" lon="4.46793">
        <ele>855</ele>
        <time>2015-07-08T13:09:35Z</time>
      </trkpt>
      <trkpt lat="46.18498" lon="4.46794">
        <ele>855</ele>
        <time>2015-07-08T13:10:14Z</time>
      </trkpt>
      <trkpt lat="46.18494" lon="4.4679">
        <ele>856</ele>
        <time>2015-07-08T13:10:58Z</time>
      </trkpt>
      <trkpt lat="46.18482" lon="4.46768">
        <ele>861</ele>
        <time>2015-07-08T13:11:17Z</time>
      </trkpt>
      <trkpt lat="46.18452" lon="4.46733">
        <ele>863</ele>
        <time>2015-07-08T13:11:54Z</time>
      </trkpt>
      <trkpt lat="46.18423" lon="4.46695">
        <ele>864</ele>
        <time>2015-07-08T13:12:23Z</time>
      </trkpt>
      <trkpt lat="46.18409" lon="4.46677">
        <ele>862</ele>
        <time>2015-07-08T13:12:39Z</time>
      </trkpt>
      <trkpt lat="46.1838" lon="4.46642">
        <ele>866</ele>
        <time>2015-07-08T13:13:13Z</time>
      </trkpt>
      <trkpt lat="46.18351" lon="4.46607">
        <ele>869</ele>
        <time>2015-07-08T13:13:47Z</time>
      </trkpt>
      <trkpt lat="46.18342" lon="4.466">
        <ele>869</ele>
        <time>2015-07-08T13:13:56Z</time>
      </trkpt>
      <trkpt lat="46.18334" lon="4.46591">
        <ele>868</ele>
        <time>2015-07-08T13:14:05Z</time>
      </trkpt>
      <trkpt lat="46.18327" lon="4.46584">
        <ele>869</ele>
        <time>2015-07-08T13:14:13Z</time>
      </trkpt>
      <trkpt lat="46.18319" lon="4.46577">
        <ele>869</ele>
        <time>2015-07-08T13:14:24Z</time>
      </trkpt>
      <trkpt lat="46.18307" lon="4.46544">
        <ele>861</ele>
        <time>2015-07-08T13:15:03Z</time>
      </trkpt>
      <trkpt lat="46.18295" lon="4.46512">
        <ele>858</ele>
        <time>2015-07-08T13:15:24Z</time>
      </trkpt>
      <trkpt lat="46.18292" lon="4.46507">
        <ele>859</ele>
        <time>2015-07-08T13:15:28Z</time>
      </trkpt>
      <trkpt lat="46.18288" lon="4.46495">
        <ele>857</ele>
        <time>2015-07-08T13:15:34Z</time>
      </trkpt>
      <trkpt lat="46.18283" lon="4.4648">
        <ele>857</ele>
        <time>2015-07-08T13:15:42Z</time>
      </trkpt>
      <trkpt lat="46.18272" lon="4.46455">
        <ele>855</ele>
        <time>2015-07-08T13:15:55Z</time>
      </trkpt>
      <trkpt lat="46.18272" lon="4.46448">
        <ele>855</ele>
        <time>2015-07-08T13:16:01Z</time>
      </trkpt>
      <trkpt lat="46.18265" lon="4.46428">
        <ele>856</ele>
        <time>2015-07-08T13:16:15Z</time>
      </trkpt>
      <trkpt lat="46.18264" lon="4.46415">
        <ele>856</ele>
        <time>2015-07-08T13:16:23Z</time>
      </trkpt>
      <trkpt lat="46.18251" lon="4.46365">
        <ele>858</ele>
        <time>2015-07-08T13:16:51Z</time>
      </trkpt>
      <trkpt lat="46.18245" lon="4.46353">
        <ele>857</ele>
        <time>2015-07-08T13:17:00Z</time>
      </trkpt>
      <trkpt lat="46.18242" lon="4.46326">
        <ele>856</ele>
        <time>2015-07-08T13:17:17Z</time>
      </trkpt>
      <trkpt lat="46.18239" lon="4.46312">
        <ele>856</ele>
        <time>2015-07-08T13:17:29Z</time>
      </trkpt>
      <trkpt lat="46.1824" lon="4.46285">
        <ele>857</ele>
        <time>2015-07-08T13:17:46Z</time>
      </trkpt>
      <trkpt lat="46.18236" lon="4.46257">
        <ele>857</ele>
        <time>2015-07-08T13:18:02Z</time>
      </trkpt>
      <trkpt lat="46.18231" lon="4.46245">
        <ele>856</ele>
        <time>2015-07-08T13:18:08Z</time>
      </trkpt>
      <trkpt lat="46.18233" lon="4.46232">
        <ele>856</ele>
        <time>2015-07-08T13:18:17Z</time>
      </trkpt>
      <trkpt lat="46.18225" lon="4.46178">
        <ele>852</ele>
        <time>2015-07-08T13:18:49Z</time>
      </trkpt>
      <trkpt lat="46.1822" lon="4.4615">
        <ele>850</ele>
        <time>2015-07-08T13:19:07Z</time>
      </trkpt>
      <trkpt lat="46.1822" lon="4.46142">
        <ele>850</ele>
        <time>2015-07-08T13:19:12Z</time>
      </trkpt>
      <trkpt lat="46.18222" lon="4.46136">
        <ele>850</ele>
        <time>2015-07-08T13:19:16Z</time>
      </trkpt>
      <trkpt lat="46.18219" lon="4.46121">
        <ele>849</ele>
        <time>2015-07-08T13:19:26Z</time>
      </trkpt>
      <trkpt lat="46.18215" lon="4.46114">
        <ele>848</ele>
        <time>2015-07-08T13:19:30Z</time>
      </trkpt>
      <trkpt lat="46.18214" lon="4.46111">
        <ele>849</ele>
        <time>2015-07-08T13:19:36Z</time>
      </trkpt>
      <trkpt lat="46.18213" lon="4.46104">
        <ele>849</ele>
        <time>2015-07-08T13:19:39Z</time>
      </trkpt>
      <trkpt lat="46.18205" lon="4.46091">
        <ele>849</ele>
        <time>2015-07-08T13:19:46Z</time>
      </trkpt>
      <trkpt lat="46.18203" lon="4.46091">
        <ele>849</ele>
        <time>2015-07-08T13:19:47Z</time>
      </trkpt>
      <trkpt lat="46.18199" lon="4.46087">
        <ele>849</ele>
        <time>2015-07-08T13:19:52Z</time>
      </trkpt>
      <trkpt lat="46.18202" lon="4.4608">
        <ele>850</ele>
        <time>2015-07-08T13:20:00Z</time>
      </trkpt>
      <trkpt lat="46.182" lon="4.46066">
        <ele>849</ele>
        <time>2015-07-08T13:20:08Z</time>
      </trkpt>
      <trkpt lat="46.18192" lon="4.46018">
        <ele>840</ele>
        <time>2015-07-08T13:20:41Z</time>
      </trkpt>
      <trkpt lat="46.18192" lon="4.46003">
        <ele>839</ele>
        <time>2015-07-08T13:20:51Z</time>
      </trkpt>
      <trkpt lat="46.1819" lon="4.45998">
        <ele>838</ele>
        <time>2015-07-08T13:20:56Z</time>
      </trkpt>
      <trkpt lat="46.18191" lon="4.45983">
        <ele>838</ele>
        <time>2015-07-08T13:21:08Z</time>
      </trkpt>
      <trkpt lat="46.18184" lon="4.45949">
        <ele>836</ele>
        <time>2015-07-08T13:21:35Z</time>
      </trkpt>
      <trkpt lat="46.18184" lon="4.45942">
        <ele>837</ele>
        <time>2015-07-08T13:21:39Z</time>
      </trkpt>
      <trkpt lat="46.18172" lon="4.45887">
        <ele>834</ele>
        <time>2015-07-08T13:22:12Z</time>
      </trkpt>
      <trkpt lat="46.18169" lon="4.45873">
        <ele>833</ele>
        <time>2015-07-08T13:22:20Z</time>
      </trkpt>
      <trkpt lat="46.18164" lon="4.45831">
        <ele>839</ele>
        <time>2015-07-08T13:22:44Z</time>
      </trkpt>
      <trkpt lat="46.1816" lon="4.45806">
        <ele>839</ele>
        <time>2015-07-08T13:23:02Z</time>
      </trkpt>
      <trkpt lat="46.18152" lon="4.45777">
        <ele>838</ele>
        <time>2015-07-08T13:23:15Z</time>
      </trkpt>
      <trkpt lat="46.18155" lon="4.45735">
        <ele>831</ele>
        <time>2015-07-08T13:23:46Z</time>
      </trkpt>
      <trkpt lat="46.18154" lon="4.45727">
        <ele>829</ele>
        <time>2015-07-08T13:24:31Z</time>
      </trkpt>
      <trkpt lat="46.18154" lon="4.45714">
        <ele>828</ele>
        <time>2015-07-08T13:24:43Z</time>
      </trkpt>
      <trkpt lat="46.18154" lon="4.45707">
        <ele>828</ele>
        <time>2015-07-08T13:24:48Z</time>
      </trkpt>
      <trkpt lat="46.1815" lon="4.45685">
        <ele>826</ele>
        <time>2015-07-08T13:25:03Z</time>
      </trkpt>
      <trkpt lat="46.18149" lon="4.45678">
        <ele>826</ele>
        <time>2015-07-08T13:25:07Z</time>
      </trkpt>
      <trkpt lat="46.18149" lon="4.45649">
        <ele>824</ele>
        <time>2015-07-08T13:25:33Z</time>
      </trkpt>
      <trkpt lat="46.18149" lon="4.45641">
        <ele>824</ele>
        <time>2015-07-08T13:25:38Z</time>
      </trkpt>
      <trkpt lat="46.18149" lon="4.4561">
        <ele>824</ele>
        <time>2015-07-08T13:25:58Z</time>
      </trkpt>
      <trkpt lat="46.18148" lon="4.45589">
        <ele>825</ele>
        <time>2015-07-08T13:26:11Z</time>
      </trkpt>
      <trkpt lat="46.18148" lon="4.45582">
        <ele>825</ele>
        <time>2015-07-08T13:26:15Z</time>
      </trkpt>
      <trkpt lat="46.18146" lon="4.4556">
        <ele>824</ele>
        <time>2015-07-08T13:26:28Z</time>
      </trkpt>
      <trkpt lat="46.18141" lon="4.45548">
        <ele>824</ele>
        <time>2015-07-08T13:26:34Z</time>
      </trkpt>
      <trkpt lat="46.1814" lon="4.45543">
        <ele>824</ele>
        <time>2015-07-08T13:26:36Z</time>
      </trkpt>
      <trkpt lat="46.18141" lon="4.45532">
        <ele>823</ele>
        <time>2015-07-08T13:26:40Z</time>
      </trkpt>
      <trkpt lat="46.18147" lon="4.45475">
        <ele>820</ele>
        <time>2015-07-08T13:27:15Z</time>
      </trkpt>
      <trkpt lat="46.18147" lon="4.45469">
        <ele>820</ele>
        <time>2015-07-08T13:27:19Z</time>
      </trkpt>
      <trkpt lat="46.18147" lon="4.45462">
        <ele>819</ele>
        <time>2015-07-08T13:27:23Z</time>
      </trkpt>
      <trkpt lat="46.18155" lon="4.45413">
        <ele>819</ele>
        <time>2015-07-08T13:27:53Z</time>
      </trkpt>
      <trkpt lat="46.18158" lon="4.45413">
        <ele>820</ele>
        <time>2015-07-08T13:28:09Z</time>
      </trkpt>
      <trkpt lat="46.18158" lon="4.45403">
        <ele>820</ele>
        <time>2015-07-08T13:28:15Z</time>
      </trkpt>
      <trkpt lat="46.18161" lon="4.45398">
        <ele>821</ele>
        <time>2015-07-08T13:28:18Z</time>
      </trkpt>
      <trkpt lat="46.18162" lon="4.45395">
        <ele>821</ele>
        <time>2015-07-08T13:28:19Z</time>
      </trkpt>
      <trkpt lat="46.18168" lon="4.45391">
        <ele>820</ele>
        <time>2015-07-08T13:28:23Z</time>
      </trkpt>
      <trkpt lat="46.1817" lon="4.45384">
        <ele>820</ele>
        <time>2015-07-08T13:28:29Z</time>
      </trkpt>
      <trkpt lat="46.18184" lon="4.45342">
        <ele>820</ele>
        <time>2015-07-08T13:28:58Z</time>
      </trkpt>
      <trkpt lat="46.18187" lon="4.45336">
        <ele>820</ele>
        <time>2015-07-08T13:29:02Z</time>
      </trkpt>
      <trkpt lat="46.18186" lon="4.45329">
        <ele>820</ele>
        <time>2015-07-08T13:29:07Z</time>
      </trkpt>
      <trkpt lat="46.18187" lon="4.45322">
        <ele>820</ele>
        <time>2015-07-08T13:29:13Z</time>
      </trkpt>
      <trkpt lat="46.18202" lon="4.4527">
        <ele>818</ele>
        <time>2015-07-08T13:29:44Z</time>
      </trkpt>
      <trkpt lat="46.18199" lon="4.45259">
        <ele>819</ele>
        <time>2015-07-08T13:29:56Z</time>
      </trkpt>
      <trkpt lat="46.18202" lon="4.45252">
        <ele>818</ele>
        <time>2015-07-08T13:30:02Z</time>
      </trkpt>
      <trkpt lat="46.18206" lon="4.45247">
        <ele>817</ele>
        <time>2015-07-08T13:30:08Z</time>
      </trkpt>
      <trkpt lat="46.18217" lon="4.4521">
        <ele>806</ele>
        <time>2015-07-08T13:30:38Z</time>
      </trkpt>
      <trkpt lat="46.18216" lon="4.45204">
        <ele>805</ele>
        <time>2015-07-08T13:30:46Z</time>
      </trkpt>
      <trkpt lat="46.18221" lon="4.45199">
        <ele>804</ele>
        <time>2015-07-08T13:30:51Z</time>
      </trkpt>
      <trkpt lat="46.1822" lon="4.45193">
        <ele>804</ele>
        <time>2015-07-08T13:30:56Z</time>
      </trkpt>
      <trkpt lat="46.1822" lon="4.45188">
        <ele>803</ele>
        <time>2015-07-08T13:31:00Z</time>
      </trkpt>
      <trkpt lat="46.18224" lon="4.45185">
        <ele>803</ele>
        <time>2015-07-08T13:31:06Z</time>
      </trkpt>
      <trkpt lat="46.18235" lon="4.45178">
        <ele>802</ele>
        <time>2015-07-08T13:31:13Z</time>
      </trkpt>
      <trkpt lat="46.1823" lon="4.45171">
        <ele>801</ele>
        <time>2015-07-08T13:31:19Z</time>
      </trkpt>
      <trkpt lat="46.1824" lon="4.45159">
        <ele>801</ele>
        <time>2015-07-08T13:31:26Z</time>
      </trkpt>
      <trkpt lat="46.18245" lon="4.4514">
        <ele>799</ele>
        <time>2015-07-08T13:31:44Z</time>
      </trkpt>
      <trkpt lat="46.18242" lon="4.45133">
        <ele>798</ele>
        <time>2015-07-08T13:31:53Z</time>
      </trkpt>
      <trkpt lat="46.18247" lon="4.45119">
        <ele>797</ele>
        <time>2015-07-08T13:32:02Z</time>
      </trkpt>
      <trkpt lat="46.18243" lon="4.45092">
        <ele>796</ele>
        <time>2015-07-08T13:32:19Z</time>
      </trkpt>
      <trkpt lat="46.18258" lon="4.45041">
        <ele>793</ele>
        <time>2015-07-08T13:32:51Z</time>
      </trkpt>
      <trkpt lat="46.18263" lon="4.45028">
        <ele>792</ele>
        <time>2015-07-08T13:33:00Z</time>
      </trkpt>
      <trkpt lat="46.18261" lon="4.45021">
        <ele>792</ele>
        <time>2015-07-08T13:33:04Z</time>
      </trkpt>
      <trkpt lat="46.18264" lon="4.45015">
        <ele>792</ele>
        <time>2015-07-08T13:33:44Z</time>
      </trkpt>
      <trkpt lat="46.18273" lon="4.45012">
        <ele>793</ele>
        <time>2015-07-08T13:33:53Z</time>
      </trkpt>
      <trkpt lat="46.18276" lon="4.45006">
        <ele>794</ele>
        <time>2015-07-08T13:33:57Z</time>
      </trkpt>
      <trkpt lat="46.18278" lon="4.44992">
        <ele>796</ele>
        <time>2015-07-08T13:34:05Z</time>
      </trkpt>
      <trkpt lat="46.18281" lon="4.44986">
        <ele>796</ele>
        <time>2015-07-08T13:34:09Z</time>
      </trkpt>
      <trkpt lat="46.18277" lon="4.44979">
        <ele>795</ele>
        <time>2015-07-08T13:34:16Z</time>
      </trkpt>
      <trkpt lat="46.18278" lon="4.44973">
        <ele>795</ele>
        <time>2015-07-08T13:34:18Z</time>
      </trkpt>
      <trkpt lat="46.18275" lon="4.44966">
        <ele>795</ele>
        <time>2015-07-08T13:34:25Z</time>
      </trkpt>
      <trkpt lat="46.18274" lon="4.44952">
        <ele>796</ele>
        <time>2015-07-08T13:34:31Z</time>
      </trkpt>
      <trkpt lat="46.1827" lon="4.44945">
        <ele>796</ele>
        <time>2015-07-08T13:34:36Z</time>
      </trkpt>
      <trkpt lat="46.18268" lon="4.44932">
        <ele>796</ele>
        <time>2015-07-08T13:34:42Z</time>
      </trkpt>
      <trkpt lat="46.18265" lon="4.44908">
        <ele>798</ele>
        <time>2015-07-08T13:34:54Z</time>
      </trkpt>
      <trkpt lat="46.18259" lon="4.44886">
        <ele>796</ele>
        <time>2015-07-08T13:35:09Z</time>
      </trkpt>
      <trkpt lat="46.18257" lon="4.44886">
        <ele>795</ele>
        <time>2015-07-08T13:35:15Z</time>
      </trkpt>
      <trkpt lat="46.18253" lon="4.44882">
        <ele>795</ele>
        <time>2015-07-08T13:35:23Z</time>
      </trkpt>
      <trkpt lat="46.18252" lon="4.44876">
        <ele>793</ele>
        <time>2015-07-08T13:35:29Z</time>
      </trkpt>
      <trkpt lat="46.18249" lon="4.44871">
        <ele>791</ele>
        <time>2015-07-08T13:35:32Z</time>
      </trkpt>
      <trkpt lat="46.18233" lon="4.44852">
        <ele>789</ele>
        <time>2015-07-08T13:35:47Z</time>
      </trkpt>
      <trkpt lat="46.18228" lon="4.44849">
        <ele>789</ele>
        <time>2015-07-08T13:35:50Z</time>
      </trkpt>
      <trkpt lat="46.18213" lon="4.44822">
        <ele>788</ele>
        <time>2015-07-08T13:36:06Z</time>
      </trkpt>
      <trkpt lat="46.18202" lon="4.4481">
        <ele>789</ele>
        <time>2015-07-08T13:36:33Z</time>
      </trkpt>
      <trkpt lat="46.18197" lon="4.44809">
        <ele>790</ele>
        <time>2015-07-08T13:36:50Z</time>
      </trkpt>
      <trkpt lat="46.18193" lon="4.44804">
        <ele>790</ele>
        <time>2015-07-08T13:36:54Z</time>
      </trkpt>
      <trkpt lat="46.18152" lon="4.44781">
        <ele>786</ele>
        <time>2015-07-08T13:37:25Z</time>
      </trkpt>
      <trkpt lat="46.18131" lon="4.44769">
        <ele>785</ele>
        <time>2015-07-08T13:37:58Z</time>
      </trkpt>
      <trkpt lat="46.18105" lon="4.44762">
        <ele>783</ele>
        <time>2015-07-08T13:38:35Z</time>
      </trkpt>
      <trkpt lat="46.1807" lon="4.4475">
        <ele>781</ele>
        <time>2015-07-08T13:39:05Z</time>
      </trkpt>
      <trkpt lat="46.18032" lon="4.44741">
        <ele>780</ele>
        <time>2015-07-08T13:39:36Z</time>
      </trkpt>
      <trkpt lat="46.18004" lon="4.44735">
        <ele>779</ele>
        <time>2015-07-08T13:40:00Z</time>
      </trkpt>
      <trkpt lat="46.17995" lon="4.44721">
        <ele>779</ele>
        <time>2015-07-08T13:40:27Z</time>
      </trkpt>
      <trkpt lat="46.17986" lon="4.44718">
        <ele>780</ele>
        <time>2015-07-08T13:40:39Z</time>
      </trkpt>
      <trkpt lat="46.1797" lon="4.44705">
        <ele>778</ele>
        <time>2015-07-08T13:40:54Z</time>
      </trkpt>
      <trkpt lat="46.17959" lon="4.44702">
        <ele>779</ele>
        <time>2015-07-08T13:41:01Z</time>
      </trkpt>
      <trkpt lat="46.17911" lon="4.44683">
        <ele>789</ele>
        <time>2015-07-08T13:41:42Z</time>
      </trkpt>
      <trkpt lat="46.17901" lon="4.44681">
        <ele>790</ele>
        <time>2015-07-08T13:41:51Z</time>
      </trkpt>
      <trkpt lat="46.17874" lon="4.4467">
        <ele>790</ele>
        <time>2015-07-08T13:42:12Z</time>
      </trkpt>
      <trkpt lat="46.1787" lon="4.44663">
        <ele>786</ele>
        <time>2015-07-08T13:42:26Z</time>
      </trkpt>
      <trkpt lat="46.1786" lon="4.44661">
        <ele>775</ele>
        <time>2015-07-08T13:42:54Z</time>
      </trkpt>
      <trkpt lat="46.1785" lon="4.44658">
        <ele>778</ele>
        <time>2015-07-08T13:43:05Z</time>
      </trkpt>
      <trkpt lat="46.17845" lon="4.44658">
        <ele>778</ele>
        <time>2015-07-08T13:43:10Z</time>
      </trkpt>
      <trkpt lat="46.17841" lon="4.44656">
        <ele>777</ele>
        <time>2015-07-08T13:43:14Z</time>
      </trkpt>
      <trkpt lat="46.17827" lon="4.4465">
        <ele>771</ele>
        <time>2015-07-08T13:43:28Z</time>
      </trkpt>
      <trkpt lat="46.17822" lon="4.44649">
        <ele>771</ele>
        <time>2015-07-08T13:43:31Z</time>
      </trkpt>
      <trkpt lat="46.17818" lon="4.44651">
        <ele>771</ele>
        <time>2015-07-08T13:43:33Z</time>
      </trkpt>
      <trkpt lat="46.17814" lon="4.4465">
        <ele>771</ele>
        <time>2015-07-08T13:43:35Z</time>
      </trkpt>
      <trkpt lat="46.17812" lon="4.44649">
        <ele>772</ele>
        <time>2015-07-08T13:43:54Z</time>
      </trkpt>
      <trkpt lat="46.17805" lon="4.44647">
        <ele>771</ele>
        <time>2015-07-08T13:44:03Z</time>
      </trkpt>
      <trkpt lat="46.178" lon="4.44645">
        <ele>770</ele>
        <time>2015-07-08T13:44:08Z</time>
      </trkpt>
      <trkpt lat="46.17795" lon="4.44643">
        <ele>770</ele>
        <time>2015-07-08T13:44:12Z</time>
      </trkpt>
      <trkpt lat="46.17791" lon="4.4464">
        <ele>769</ele>
        <time>2015-07-08T13:44:16Z</time>
      </trkpt>
      <trkpt lat="46.17782" lon="4.44638">
        <ele>771</ele>
        <time>2015-07-08T13:44:27Z</time>
      </trkpt>
      <trkpt lat="46.17778" lon="4.44633">
        <ele>772</ele>
        <time>2015-07-08T13:44:35Z</time>
      </trkpt>
      <trkpt lat="46.17773" lon="4.44631">
        <ele>771</ele>
        <time>2015-07-08T13:44:43Z</time>
      </trkpt>
      <trkpt lat="46.17769" lon="4.44629">
        <ele>768</ele>
        <time>2015-07-08T13:45:16Z</time>
      </trkpt>
      <trkpt lat="46.17764" lon="4.44628">
        <ele>768</ele>
        <time>2015-07-08T13:45:20Z</time>
      </trkpt>
      <trkpt lat="46.17754" lon="4.44624">
        <ele>769</ele>
        <time>2015-07-08T13:45:30Z</time>
      </trkpt>
      <trkpt lat="46.1775" lon="4.44623">
        <ele>768</ele>
        <time>2015-07-08T13:45:34Z</time>
      </trkpt>
      <trkpt lat="46.17711" lon="4.44617">
        <ele>765</ele>
        <time>2015-07-08T13:46:08Z</time>
      </trkpt>
      <trkpt lat="46.17676" lon="4.44593">
        <ele>763</ele>
        <time>2015-07-08T13:46:39Z</time>
      </trkpt>
      <trkpt lat="46.1764" lon="4.4458">
        <ele>763</ele>
        <time>2015-07-08T13:47:12Z</time>
      </trkpt>
      <trkpt lat="46.17631" lon="4.44583">
        <ele>763</ele>
        <time>2015-07-08T13:47:20Z</time>
      </trkpt>
      <trkpt lat="46.17612" lon="4.44576">
        <ele>762</ele>
        <time>2015-07-08T13:47:40Z</time>
      </trkpt>
      <trkpt lat="46.17604" lon="4.44569">
        <ele>763</ele>
        <time>2015-07-08T13:47:50Z</time>
      </trkpt>
      <trkpt lat="46.17571" lon="4.44558">
        <ele>754</ele>
        <time>2015-07-08T13:48:24Z</time>
      </trkpt>
      <trkpt lat="46.17532" lon="4.44545">
        <ele>751</ele>
        <time>2015-07-08T13:48:53Z</time>
      </trkpt>
      <trkpt lat="46.17527" lon="4.44549">
        <ele>751</ele>
        <time>2015-07-08T13:48:55Z</time>
      </trkpt>
      <trkpt lat="46.17518" lon="4.44547">
        <ele>751</ele>
        <time>2015-07-08T13:49:06Z</time>
      </trkpt>
      <trkpt lat="46.1748" lon="4.44539">
        <ele>748</ele>
        <time>2015-07-08T13:49:42Z</time>
      </trkpt>
      <trkpt lat="46.17475" lon="4.44539">
        <ele>748</ele>
        <time>2015-07-08T13:49:47Z</time>
      </trkpt>
      <trkpt lat="46.17455" lon="4.44533">
        <ele>746</ele>
        <time>2015-07-08T13:50:05Z</time>
      </trkpt>
      <trkpt lat="46.1745" lon="4.4453">
        <ele>746</ele>
        <time>2015-07-08T13:50:10Z</time>
      </trkpt>
      <trkpt lat="46.17445" lon="4.44528">
        <ele>745</ele>
        <time>2015-07-08T13:50:15Z</time>
      </trkpt>
      <trkpt lat="46.17435" lon="4.44529">
        <ele>750</ele>
        <time>2015-07-08T13:50:26Z</time>
      </trkpt>
      <trkpt lat="46.17426" lon="4.44525">
        <ele>751</ele>
        <time>2015-07-08T13:50:32Z</time>
      </trkpt>
      <trkpt lat="46.17421" lon="4.44525">
        <ele>751</ele>
        <time>2015-07-08T13:50:36Z</time>
      </trkpt>
      <trkpt lat="46.1738" lon="4.44503">
        <ele>750</ele>
        <time>2015-07-08T13:51:11Z</time>
      </trkpt>
      <trkpt lat="46.17344" lon="4.44497">
        <ele>748</ele>
        <time>2015-07-08T13:51:43Z</time>
      </trkpt>
      <trkpt lat="46.17316" lon="4.44501">
        <ele>742</ele>
        <time>2015-07-08T13:52:23Z</time>
      </trkpt>
      <trkpt lat="46.17312" lon="4.44496">
        <ele>740</ele>
        <time>2015-07-08T13:52:28Z</time>
      </trkpt>
      <trkpt lat="46.17297" lon="4.44491">
        <ele>738</ele>
        <time>2015-07-08T13:52:42Z</time>
      </trkpt>
      <trkpt lat="46.17293" lon="4.44486">
        <ele>737</ele>
        <time>2015-07-08T13:52:47Z</time>
      </trkpt>
      <trkpt lat="46.17289" lon="4.44482">
        <ele>737</ele>
        <time>2015-07-08T13:52:53Z</time>
      </trkpt>
      <trkpt lat="46.17285" lon="4.44482">
        <ele>737</ele>
        <time>2015-07-08T13:52:57Z</time>
      </trkpt>
      <trkpt lat="46.1728" lon="4.44479">
        <ele>736</ele>
        <time>2015-07-08T13:53:01Z</time>
      </trkpt>
      <trkpt lat="46.17272" lon="4.44476">
        <ele>738</ele>
        <time>2015-07-08T13:53:17Z</time>
      </trkpt>
      <trkpt lat="46.17266" lon="4.44477">
        <ele>738</ele>
        <time>2015-07-08T13:53:22Z</time>
      </trkpt>
      <trkpt lat="46.17251" lon="4.44473">
        <ele>740</ele>
        <time>2015-07-08T13:53:39Z</time>
      </trkpt>
      <trkpt lat="46.17246" lon="4.44472">
        <ele>739</ele>
        <time>2015-07-08T13:53:43Z</time>
      </trkpt>
      <trkpt lat="46.17241" lon="4.44471">
        <ele>738</ele>
        <time>2015-07-08T13:53:48Z</time>
      </trkpt>
      <trkpt lat="46.17238" lon="4.44466">
        <ele>736</ele>
        <time>2015-07-08T13:53:53Z</time>
      </trkpt>
      <trkpt lat="46.1723" lon="4.44459">
        <ele>733</ele>
        <time>2015-07-08T13:54:01Z</time>
      </trkpt>
      <trkpt lat="46.17225" lon="4.44456">
        <ele>733</ele>
        <time>2015-07-08T13:54:06Z</time>
      </trkpt>
      <trkpt lat="46.17217" lon="4.44451">
        <ele>735</ele>
        <time>2015-07-08T13:54:14Z</time>
      </trkpt>
      <trkpt lat="46.17192" lon="4.44441">
        <ele>734</ele>
        <time>2015-07-08T13:54:36Z</time>
      </trkpt>
      <trkpt lat="46.17159" lon="4.44421">
        <ele>727</ele>
        <time>2015-07-08T13:55:07Z</time>
      </trkpt>
      <trkpt lat="46.17129" lon="4.44387">
        <ele>724</ele>
        <time>2015-07-08T13:55:41Z</time>
      </trkpt>
      <trkpt lat="46.17104" lon="4.44351">
        <ele>720</ele>
        <time>2015-07-08T13:56:11Z</time>
      </trkpt>
      <trkpt lat="46.171" lon="4.44349">
        <ele>719</ele>
        <time>2015-07-08T13:56:16Z</time>
      </trkpt>
      <trkpt lat="46.17095" lon="4.44347">
        <ele>719</ele>
        <time>2015-07-08T13:56:20Z</time>
      </trkpt>
      <trkpt lat="46.17091" lon="4.44344">
        <ele>720</ele>
        <time>2015-07-08T13:56:27Z</time>
      </trkpt>
      <trkpt lat="46.17089" lon="4.4434">
        <ele>719</ele>
        <time>2015-07-08T13:56:29Z</time>
      </trkpt>
      <trkpt lat="46.17083" lon="4.44338">
        <ele>719</ele>
        <time>2015-07-08T13:56:33Z</time>
      </trkpt>
      <trkpt lat="46.17078" lon="4.44338">
        <ele>719</ele>
        <time>2015-07-08T13:56:37Z</time>
      </trkpt>
      <trkpt lat="46.1707" lon="4.44331">
        <ele>719</ele>
        <time>2015-07-08T13:56:47Z</time>
      </trkpt>
      <trkpt lat="46.1706" lon="4.44326">
        <ele>720</ele>
        <time>2015-07-08T13:56:56Z</time>
      </trkpt>
      <trkpt lat="46.17056" lon="4.44322">
        <ele>720</ele>
        <time>2015-07-08T13:57:00Z</time>
      </trkpt>
      <trkpt lat="46.17053" lon="4.44318">
        <ele>720</ele>
        <time>2015-07-08T13:57:04Z</time>
      </trkpt>
      <trkpt lat="46.1704" lon="4.44302">
        <ele>723</ele>
        <time>2015-07-08T13:57:29Z</time>
      </trkpt>
      <trkpt lat="46.17037" lon="4.44298">
        <ele>723</ele>
        <time>2015-07-08T13:57:34Z</time>
      </trkpt>
      <trkpt lat="46.17027" lon="4.44293">
        <ele>721</ele>
        <time>2015-07-08T13:57:43Z</time>
      </trkpt>
      <trkpt lat="46.17021" lon="4.44282">
        <ele>720</ele>
        <time>2015-07-08T13:57:51Z</time>
      </trkpt>
      <trkpt lat="46.16988" lon="4.4425">
        <ele>717</ele>
        <time>2015-07-08T13:58:22Z</time>
      </trkpt>
      <trkpt lat="46.16965" lon="4.44234">
        <ele>716</ele>
        <time>2015-07-08T13:58:46Z</time>
      </trkpt>
      <trkpt lat="46.16961" lon="4.4423">
        <ele>716</ele>
        <time>2015-07-08T13:58:50Z</time>
      </trkpt>
      <trkpt lat="46.16956" lon="4.44228">
        <ele>716</ele>
        <time>2015-07-08T13:58:55Z</time>
      </trkpt>
      <trkpt lat="46.16939" lon="4.44222">
        <ele>718</ele>
        <time>2015-07-08T13:59:09Z</time>
      </trkpt>
      <trkpt lat="46.16936" lon="4.44217">
        <ele>718</ele>
        <time>2015-07-08T13:59:12Z</time>
      </trkpt>
      <trkpt lat="46.16932" lon="4.44211">
        <ele>718</ele>
        <time>2015-07-08T13:59:16Z</time>
      </trkpt>
      <trkpt lat="46.16932" lon="4.44208">
        <ele>718</ele>
        <time>2015-07-08T13:59:19Z</time>
      </trkpt>
      <trkpt lat="46.16927" lon="4.44211">
        <ele>717</ele>
        <time>2015-07-08T13:59:24Z</time>
      </trkpt>
      <trkpt lat="46.16922" lon="4.44212">
        <ele>716</ele>
        <time>2015-07-08T13:59:30Z</time>
      </trkpt>
      <trkpt lat="46.16917" lon="4.44209">
        <ele>716</ele>
        <time>2015-07-08T13:59:37Z</time>
      </trkpt>
      <trkpt lat="46.16907" lon="4.44204">
        <ele>718</ele>
        <time>2015-07-08T13:59:47Z</time>
      </trkpt>
      <trkpt lat="46.16902" lon="4.44201">
        <ele>718</ele>
        <time>2015-07-08T13:59:52Z</time>
      </trkpt>
      <trkpt lat="46.16898" lon="4.44198">
        <ele>717</ele>
        <time>2015-07-08T13:59:56Z</time>
      </trkpt>
      <trkpt lat="46.16894" lon="4.44195">
        <ele>718</ele>
        <time>2015-07-08T14:00:00Z</time>
      </trkpt>
      <trkpt lat="46.16888" lon="4.44193">
        <ele>718</ele>
        <time>2015-07-08T14:00:06Z</time>
      </trkpt>
      <trkpt lat="46.16873" lon="4.44186">
        <ele>718</ele>
        <time>2015-07-08T14:00:19Z</time>
      </trkpt>
      <trkpt lat="46.16869" lon="4.44183">
        <ele>717</ele>
        <time>2015-07-08T14:00:23Z</time>
      </trkpt>
      <trkpt lat="46.16864" lon="4.44179">
        <ele>717</ele>
        <time>2015-07-08T14:00:28Z</time>
      </trkpt>
      <trkpt lat="46.1686" lon="4.44177">
        <ele>718</ele>
        <time>2015-07-08T14:00:32Z</time>
      </trkpt>
      <trkpt lat="46.16851" lon="4.44173">
        <ele>717</ele>
        <time>2015-07-08T14:00:40Z</time>
      </trkpt>
      <trkpt lat="46.16841" lon="4.44167">
        <ele>717</ele>
        <time>2015-07-08T14:00:50Z</time>
      </trkpt>
      <trkpt lat="46.16809" lon="4.44151">
        <ele>718</ele>
        <time>2015-07-08T14:01:21Z</time>
      </trkpt>
      <trkpt lat="46.16801" lon="4.44143">
        <ele>718</ele>
        <time>2015-07-08T14:01:33Z</time>
      </trkpt>
      <trkpt lat="46.16795" lon="4.44142">
        <ele>718</ele>
        <time>2015-07-08T14:01:38Z</time>
      </trkpt>
      <trkpt lat="46.16786" lon="4.44134">
        <ele>717</ele>
        <time>2015-07-08T14:01:47Z</time>
      </trkpt>
      <trkpt lat="46.16783" lon="4.44129">
        <ele>715</ele>
        <time>2015-07-08T14:01:53Z</time>
      </trkpt>
      <trkpt lat="46.16778" lon="4.4413">
        <ele>714</ele>
        <time>2015-07-08T14:01:58Z</time>
      </trkpt>
      <trkpt lat="46.16774" lon="4.44135">
        <ele>713</ele>
        <time>2015-07-08T14:02:03Z</time>
      </trkpt>
      <trkpt lat="46.16769" lon="4.44139">
        <ele>714</ele>
        <time>2015-07-08T14:02:09Z</time>
      </trkpt>
      <trkpt lat="46.16765" lon="4.44142">
        <ele>714</ele>
        <time>2015-07-08T14:02:14Z</time>
      </trkpt>
      <trkpt lat="46.16756" lon="4.44149">
        <ele>713</ele>
        <time>2015-07-08T14:02:23Z</time>
      </trkpt>
      <trkpt lat="46.1674" lon="4.44162">
        <ele>713</ele>
        <time>2015-07-08T14:02:39Z</time>
      </trkpt>
      <trkpt lat="46.1673" lon="4.44178">
        <ele>713</ele>
        <time>2015-07-08T14:02:52Z</time>
      </trkpt>
      <trkpt lat="46.16715" lon="4.44182">
        <ele>712</ele>
        <time>2015-07-08T14:03:05Z</time>
      </trkpt>
      <trkpt lat="46.16701" lon="4.44175">
        <ele>711</ele>
        <time>2015-07-08T14:03:19Z</time>
      </trkpt>
      <trkpt lat="46.16696" lon="4.44171">
        <ele>711</ele>
        <time>2015-07-08T14:03:30Z</time>
      </trkpt>
      <trkpt lat="46.16695" lon="4.44173">
        <ele>712</ele>
        <time>2015-07-08T14:04:01Z</time>
      </trkpt>
      <trkpt lat="46.16694" lon="4.4418">
        <ele>712</ele>
        <time>2015-07-08T14:04:07Z</time>
      </trkpt>
      <trkpt lat="46.16692" lon="4.44176">
        <ele>712</ele>
        <time>2015-07-08T14:05:58Z</time>
      </trkpt>
      <trkpt lat="46.16695" lon="4.44177">
        <ele>711</ele>
        <time>2015-07-08T14:22:39Z</time>
      </trkpt>
      <trkpt lat="46.16696" lon="4.44185">
        <ele>711</ele>
        <time>2015-07-08T14:22:44Z</time>
      </trkpt>
      <trkpt lat="46.16699" lon="4.44189">
        <ele>710</ele>
        <time>2015-07-08T14:22:58Z</time>
      </trkpt>
      <trkpt lat="46.16698" lon="4.44203">
        <ele>708</ele>
        <time>2015-07-08T14:23:04Z</time>
      </trkpt>
      <trkpt lat="46.16699" lon="4.44218">
        <ele>702</ele>
        <time>2015-07-08T14:23:14Z</time>
      </trkpt>
      <trkpt lat="46.16694" lon="4.4423">
        <ele>699</ele>
        <time>2015-07-08T14:23:20Z</time>
      </trkpt>
      <trkpt lat="46.1669" lon="4.44235">
        <ele>698</ele>
        <time>2015-07-08T14:23:26Z</time>
      </trkpt>
      <trkpt lat="46.16689" lon="4.44242">
        <ele>699</ele>
        <time>2015-07-08T14:23:30Z</time>
      </trkpt>
      <trkpt lat="46.16689" lon="4.44249">
        <ele>700</ele>
        <time>2015-07-08T14:23:35Z</time>
      </trkpt>
      <trkpt lat="46.1668" lon="4.44267">
        <ele>706</ele>
        <time>2015-07-08T14:23:50Z</time>
      </trkpt>
      <trkpt lat="46.16676" lon="4.44272">
        <ele>706</ele>
        <time>2015-07-08T14:23:54Z</time>
      </trkpt>
      <trkpt lat="46.16663" lon="4.44293">
        <ele>704</ele>
        <time>2015-07-08T14:24:11Z</time>
      </trkpt>
      <trkpt lat="46.16658" lon="4.44296">
        <ele>704</ele>
        <time>2015-07-08T14:24:16Z</time>
      </trkpt>
      <trkpt lat="46.16654" lon="4.44292">
        <ele>703</ele>
        <time>2015-07-08T14:24:20Z</time>
      </trkpt>
      <trkpt lat="46.16645" lon="4.44268">
        <ele>699</ele>
        <time>2015-07-08T14:24:37Z</time>
      </trkpt>
      <trkpt lat="46.16641" lon="4.44265">
        <ele>698</ele>
        <time>2015-07-08T14:24:43Z</time>
      </trkpt>
      <trkpt lat="46.16635" lon="4.44263">
        <ele>697</ele>
        <time>2015-07-08T14:25:53Z</time>
      </trkpt>
      <trkpt lat="46.16619" lon="4.44268">
        <ele>699</ele>
        <time>2015-07-08T14:26:11Z</time>
      </trkpt>
      <trkpt lat="46.16614" lon="4.4427">
        <ele>699</ele>
        <time>2015-07-08T14:26:16Z</time>
      </trkpt>
      <trkpt lat="46.16595" lon="4.44279">
        <ele>694</ele>
        <time>2015-07-08T14:26:34Z</time>
      </trkpt>
      <trkpt lat="46.1659" lon="4.44281">
        <ele>693</ele>
        <time>2015-07-08T14:26:39Z</time>
      </trkpt>
      <trkpt lat="46.16585" lon="4.44282">
        <ele>692</ele>
        <time>2015-07-08T14:26:44Z</time>
      </trkpt>
      <trkpt lat="46.16575" lon="4.44287">
        <ele>691</ele>
        <time>2015-07-08T14:26:53Z</time>
      </trkpt>
      <trkpt lat="46.16542" lon="4.44303">
        <ele>686</ele>
        <time>2015-07-08T14:27:25Z</time>
      </trkpt>
      <trkpt lat="46.16513" lon="4.44312">
        <ele>681</ele>
        <time>2015-07-08T14:27:56Z</time>
      </trkpt>
      <trkpt lat="46.16498" lon="4.44318">
        <ele>680</ele>
        <time>2015-07-08T14:28:09Z</time>
      </trkpt>
      <trkpt lat="46.16493" lon="4.44317">
        <ele>679</ele>
        <time>2015-07-08T14:28:14Z</time>
      </trkpt>
      <trkpt lat="46.16464" lon="4.4431">
        <ele>675</ele>
        <time>2015-07-08T14:28:38Z</time>
      </trkpt>
      <trkpt lat="46.16459" lon="4.44307">
        <ele>673</ele>
        <time>2015-07-08T14:28:45Z</time>
      </trkpt>
      <trkpt lat="46.16453" lon="4.44311">
        <ele>673</ele>
        <time>2015-07-08T14:29:23Z</time>
      </trkpt>
      <trkpt lat="46.1642" lon="4.44318">
        <ele>667</ele>
        <time>2015-07-08T14:29:59Z</time>
      </trkpt>
      <trkpt lat="46.16411" lon="4.44321">
        <ele>666</ele>
        <time>2015-07-08T14:30:09Z</time>
      </trkpt>
      <trkpt lat="46.16405" lon="4.44323">
        <ele>664</ele>
        <time>2015-07-08T14:30:23Z</time>
      </trkpt>
      <trkpt lat="46.164" lon="4.44323">
        <ele>663</ele>
        <time>2015-07-08T14:30:46Z</time>
      </trkpt>
      <trkpt lat="46.16399" lon="4.44329">
        <ele>662</ele>
        <time>2015-07-08T14:30:51Z</time>
      </trkpt>
      <trkpt lat="46.16383" lon="4.44378">
        <ele>660</ele>
        <time>2015-07-08T14:31:33Z</time>
      </trkpt>
      <trkpt lat="46.16364" lon="4.44416">
        <ele>657</ele>
        <time>2015-07-08T14:31:59Z</time>
      </trkpt>
      <trkpt lat="46.16359" lon="4.44417">
        <ele>657</ele>
        <time>2015-07-08T14:32:06Z</time>
      </trkpt>
      <trkpt lat="46.16337" lon="4.44445">
        <ele>654</ele>
        <time>2015-07-08T14:32:37Z</time>
      </trkpt>
      <trkpt lat="46.16332" lon="4.44449">
        <ele>653</ele>
        <time>2015-07-08T14:32:43Z</time>
      </trkpt>
      <trkpt lat="46.16329" lon="4.44455">
        <ele>652</ele>
        <time>2015-07-08T14:32:48Z</time>
      </trkpt>
      <trkpt lat="46.16325" lon="4.44461">
        <ele>652</ele>
        <time>2015-07-08T14:32:52Z</time>
      </trkpt>
      <trkpt lat="46.16322" lon="4.44466">
        <ele>650</ele>
        <time>2015-07-08T14:32:56Z</time>
      </trkpt>
      <trkpt lat="46.16319" lon="4.44471">
        <ele>650</ele>
        <time>2015-07-08T14:33:00Z</time>
      </trkpt>
      <trkpt lat="46.16311" lon="4.44483">
        <ele>648</ele>
        <time>2015-07-08T14:33:10Z</time>
      </trkpt>
      <trkpt lat="46.16309" lon="4.44484">
        <ele>648</ele>
        <time>2015-07-08T14:33:16Z</time>
      </trkpt>
      <trkpt lat="46.16307" lon="4.44486">
        <ele>648</ele>
        <time>2015-07-08T14:33:35Z</time>
      </trkpt>
      <trkpt lat="46.16304" lon="4.44492">
        <ele>648</ele>
        <time>2015-07-08T14:33:41Z</time>
      </trkpt>
      <trkpt lat="46.16288" lon="4.44515">
        <ele>644</ele>
        <time>2015-07-08T14:34:12Z</time>
      </trkpt>
      <trkpt lat="46.16284" lon="4.44525">
        <ele>641</ele>
        <time>2015-07-08T14:34:38Z</time>
      </trkpt>
      <trkpt lat="46.1628" lon="4.44528">
        <ele>641</ele>
        <time>2015-07-08T14:34:54Z</time>
      </trkpt>
      <trkpt lat="46.16275" lon="4.44531">
        <ele>640</ele>
        <time>2015-07-08T14:35:01Z</time>
      </trkpt>
      <trkpt lat="46.1627" lon="4.44533">
        <ele>640</ele>
        <time>2015-07-08T14:35:06Z</time>
      </trkpt>
      <trkpt lat="46.16266" lon="4.44535">
        <ele>639</ele>
        <time>2015-07-08T14:35:12Z</time>
      </trkpt>
      <trkpt lat="46.16262" lon="4.44539">
        <ele>639</ele>
        <time>2015-07-08T14:35:18Z</time>
      </trkpt>
      <trkpt lat="46.16257" lon="4.44541">
        <ele>638</ele>
        <time>2015-07-08T14:35:25Z</time>
      </trkpt>
      <trkpt lat="46.16229" lon="4.44553">
        <ele>636</ele>
        <time>2015-07-08T14:35:57Z</time>
      </trkpt>
      <trkpt lat="46.16205" lon="4.44562">
        <ele>634</ele>
        <time>2015-07-08T14:36:25Z</time>
      </trkpt>
      <trkpt lat="46.16201" lon="4.44565">
        <ele>634</ele>
        <time>2015-07-08T14:36:30Z</time>
      </trkpt>
      <trkpt lat="46.16172" lon="4.44581">
        <ele>631</ele>
        <time>2015-07-08T14:37:03Z</time>
      </trkpt>
      <trkpt lat="46.16167" lon="4.44583">
        <ele>630</ele>
        <time>2015-07-08T14:37:09Z</time>
      </trkpt>
      <trkpt lat="46.16163" lon="4.44588">
        <ele>630</ele>
        <time>2015-07-08T14:37:16Z</time>
      </trkpt>
      <trkpt lat="46.16161" lon="4.44592">
        <ele>629</ele>
        <time>2015-07-08T14:37:26Z</time>
      </trkpt>
      <trkpt lat="46.16156" lon="4.44595">
        <ele>629</ele>
        <time>2015-07-08T14:37:36Z</time>
      </trkpt>
      <trkpt lat="46.16152" lon="4.44609">
        <ele>627</ele>
        <time>2015-07-08T14:37:56Z</time>
      </trkpt>
      <trkpt lat="46.16148" lon="4.44609">
        <ele>627</ele>
        <time>2015-07-08T14:38:06Z</time>
      </trkpt>
      <trkpt lat="46.16144" lon="4.44612">
        <ele>626</ele>
        <time>2015-07-08T14:38:16Z</time>
      </trkpt>
      <trkpt lat="46.16138" lon="4.44612">
        <ele>626</ele>
        <time>2015-07-08T14:38:30Z</time>
      </trkpt>
      <trkpt lat="46.16129" lon="4.44607">
        <ele>624</ele>
        <time>2015-07-08T14:38:43Z</time>
      </trkpt>
      <trkpt lat="46.16128" lon="4.44602">
        <ele>623</ele>
        <time>2015-07-08T14:38:55Z</time>
      </trkpt>
      <trkpt lat="46.16123" lon="4.44601">
        <ele>622</ele>
        <time>2015-07-08T14:39:09Z</time>
      </trkpt>
      <trkpt lat="46.16107" lon="4.44601">
        <ele>619</ele>
        <time>2015-07-08T14:39:52Z</time>
      </trkpt>
      <trkpt lat="46.16097" lon="4.44599">
        <ele>618</ele>
        <time>2015-07-08T14:40:06Z</time>
      </trkpt>
      <trkpt lat="46.16092" lon="4.44601">
        <ele>618</ele>
        <time>2015-07-08T14:40:11Z</time>
      </trkpt>
      <trkpt lat="46.16089" lon="4.44601">
        <ele>617</ele>
        <time>2015-07-08T14:40:18Z</time>
      </trkpt>
      <trkpt lat="46.16084" lon="4.44601">
        <ele>617</ele>
        <time>2015-07-08T14:40:28Z</time>
      </trkpt>
      <trkpt lat="46.16049" lon="4.44596">
        <ele>615</ele>
        <time>2015-07-08T14:41:00Z</time>
      </trkpt>
      <trkpt lat="46.16034" lon="4.44595">
        <ele>614</ele>
        <time>2015-07-08T14:41:15Z</time>
      </trkpt>
      <trkpt lat="46.16032" lon="4.44593">
        <ele>614</ele>
        <time>2015-07-08T14:41:21Z</time>
      </trkpt>
      <trkpt lat="46.1603" lon="4.44591">
        <ele>614</ele>
        <time>2015-07-08T14:41:38Z</time>
      </trkpt>
      <trkpt lat="46.1602" lon="4.44592">
        <ele>616</ele>
        <time>2015-07-08T14:41:56Z</time>
      </trkpt>
      <trkpt lat="46.16015" lon="4.44595">
        <ele>616</ele>
        <time>2015-07-08T14:42:01Z</time>
      </trkpt>
      <trkpt lat="46.16013" lon="4.44601">
        <ele>616</ele>
        <time>2015-07-08T14:42:05Z</time>
      </trkpt>
      <trkpt lat="46.16011" lon="4.44608">
        <ele>614</ele>
        <time>2015-07-08T14:42:10Z</time>
      </trkpt>
      <trkpt lat="46.16009" lon="4.44614">
        <ele>617</ele>
        <time>2015-07-08T14:42:14Z</time>
      </trkpt>
      <trkpt lat="46.16004" lon="4.44627">
        <ele>615</ele>
        <time>2015-07-08T14:42:22Z</time>
      </trkpt>
      <trkpt lat="46.16001" lon="4.44632">
        <ele>615</ele>
        <time>2015-07-08T14:42:26Z</time>
      </trkpt>
      <trkpt lat="46.15997" lon="4.44637">
        <ele>614</ele>
        <time>2015-07-08T14:42:31Z</time>
      </trkpt>
      <trkpt lat="46.15985" lon="4.44651">
        <ele>613</ele>
        <time>2015-07-08T14:42:46Z</time>
      </trkpt>
      <trkpt lat="46.15981" lon="4.44655">
        <ele>612</ele>
        <time>2015-07-08T14:42:51Z</time>
      </trkpt>
      <trkpt lat="46.15977" lon="4.44657">
        <ele>613</ele>
        <time>2015-07-08T14:42:55Z</time>
      </trkpt>
      <trkpt lat="46.15956" lon="4.44661">
        <ele>610</ele>
        <time>2015-07-08T14:43:15Z</time>
      </trkpt>
      <trkpt lat="46.1594" lon="4.44666">
        <ele>610</ele>
        <time>2015-07-08T14:43:58Z</time>
      </trkpt>
      <trkpt lat="46.15936" lon="4.44669">
        <ele>609</ele>
        <time>2015-07-08T14:44:02Z</time>
      </trkpt>
      <trkpt lat="46.15931" lon="4.44671">
        <ele>609</ele>
        <time>2015-07-08T14:44:06Z</time>
      </trkpt>
      <trkpt lat="46.15927" lon="4.44674">
        <ele>610</ele>
        <time>2015-07-08T14:44:10Z</time>
      </trkpt>
      <trkpt lat="46.15923" lon="4.44675">
        <ele>610</ele>
        <time>2015-07-08T14:44:16Z</time>
      </trkpt>
      <trkpt lat="46.15914" lon="4.44684">
        <ele>612</ele>
        <time>2015-07-08T14:44:26Z</time>
      </trkpt>
      <trkpt lat="46.15891" lon="4.44725">
        <ele>612</ele>
        <time>2015-07-08T14:44:58Z</time>
      </trkpt>
      <trkpt lat="46.15884" lon="4.44747">
        <ele>613</ele>
        <time>2015-07-08T14:45:23Z</time>
      </trkpt>
      <trkpt lat="46.15883" lon="4.44754">
        <ele>613</ele>
        <time>2015-07-08T14:45:27Z</time>
      </trkpt>
      <trkpt lat="46.15876" lon="4.44772">
        <ele>611</ele>
        <time>2015-07-08T14:45:40Z</time>
      </trkpt>
      <trkpt lat="46.15874" lon="4.44778">
        <ele>611</ele>
        <time>2015-07-08T14:45:44Z</time>
      </trkpt>
      <trkpt lat="46.15859" lon="4.44816">
        <ele>615</ele>
        <time>2015-07-08T14:46:12Z</time>
      </trkpt>
      <trkpt lat="46.15846" lon="4.44838">
        <ele>614</ele>
        <time>2015-07-08T14:46:31Z</time>
      </trkpt>
      <trkpt lat="46.15841" lon="4.44842">
        <ele>614</ele>
        <time>2015-07-08T14:46:36Z</time>
      </trkpt>
      <trkpt lat="46.15832" lon="4.44849">
        <ele>615</ele>
        <time>2015-07-08T14:46:44Z</time>
      </trkpt>
      <trkpt lat="46.15827" lon="4.44852">
        <ele>616</ele>
        <time>2015-07-08T14:47:12Z</time>
      </trkpt>
      <trkpt lat="46.15823" lon="4.44858">
        <ele>617</ele>
        <time>2015-07-08T14:47:16Z</time>
      </trkpt>
      <trkpt lat="46.1582" lon="4.44863">
        <ele>617</ele>
        <time>2015-07-08T14:47:20Z</time>
      </trkpt>
      <trkpt lat="46.15817" lon="4.44868">
        <ele>616</ele>
        <time>2015-07-08T14:47:24Z</time>
      </trkpt>
      <trkpt lat="46.15795" lon="4.44911">
        <ele>615</ele>
        <time>2015-07-08T14:47:55Z</time>
      </trkpt>
      <trkpt lat="46.15789" lon="4.44923">
        <ele>615</ele>
        <time>2015-07-08T14:48:04Z</time>
      </trkpt>
      <trkpt lat="46.1578" lon="4.44939">
        <ele>613</ele>
        <time>2015-07-08T14:48:18Z</time>
      </trkpt>
      <trkpt lat="46.15777" lon="4.44945">
        <ele>613</ele>
        <time>2015-07-08T14:48:22Z</time>
      </trkpt>
      <trkpt lat="46.15775" lon="4.4495">
        <ele>614</ele>
        <time>2015-07-08T14:48:27Z</time>
      </trkpt>
      <trkpt lat="46.15771" lon="4.44957">
        <ele>614</ele>
        <time>2015-07-08T14:48:32Z</time>
      </trkpt>
      <trkpt lat="46.15768" lon="4.44962">
        <ele>613</ele>
        <time>2015-07-08T14:48:37Z</time>
      </trkpt>
      <trkpt lat="46.15763" lon="4.44975">
        <ele>612</ele>
        <time>2015-07-08T14:48:46Z</time>
      </trkpt>
      <trkpt lat="46.15762" lon="4.44982">
        <ele>612</ele>
        <time>2015-07-08T14:48:52Z</time>
      </trkpt>
      <trkpt lat="46.15761" lon="4.44989">
        <ele>612</ele>
        <time>2015-07-08T14:48:57Z</time>
      </trkpt>
      <trkpt lat="46.15759" lon="4.45002">
        <ele>609</ele>
        <time>2015-07-08T14:49:06Z</time>
      </trkpt>
      <trkpt lat="46.15755" lon="4.45016">
        <ele>610</ele>
        <time>2015-07-08T14:49:15Z</time>
      </trkpt>
      <trkpt lat="46.15739" lon="4.45058">
        <ele>607</ele>
        <time>2015-07-08T14:49:49Z</time>
      </trkpt>
      <trkpt lat="46.15733" lon="4.45071">
        <ele>607</ele>
        <time>2015-07-08T14:49:59Z</time>
      </trkpt>
      <trkpt lat="46.15731" lon="4.45077">
        <ele>607</ele>
        <time>2015-07-08T14:50:04Z</time>
      </trkpt>
      <trkpt lat="46.15728" lon="4.45084">
        <ele>607</ele>
        <time>2015-07-08T14:50:09Z</time>
      </trkpt>
      <trkpt lat="46.15721" lon="4.45098">
        <ele>605</ele>
        <time>2015-07-08T14:50:41Z</time>
      </trkpt>
      <trkpt lat="46.15719" lon="4.45104">
        <ele>605</ele>
        <time>2015-07-08T14:50:45Z</time>
      </trkpt>
      <trkpt lat="46.15705" lon="4.45124">
        <ele>603</ele>
        <time>2015-07-08T14:51:01Z</time>
      </trkpt>
      <trkpt lat="46.157" lon="4.45128">
        <ele>604</ele>
        <time>2015-07-08T14:51:05Z</time>
      </trkpt>
      <trkpt lat="46.15696" lon="4.45132">
        <ele>604</ele>
        <time>2015-07-08T14:51:10Z</time>
      </trkpt>
      <trkpt lat="46.15684" lon="4.45144">
        <ele>604</ele>
        <time>2015-07-08T14:51:24Z</time>
      </trkpt>
      <trkpt lat="46.15665" lon="4.45168">
        <ele>606</ele>
        <time>2015-07-08T14:51:44Z</time>
      </trkpt>
      <trkpt lat="46.1566" lon="4.45176">
        <ele>608</ele>
        <time>2015-07-08T14:51:57Z</time>
      </trkpt>
      <trkpt lat="46.15656" lon="4.45182">
        <ele>608</ele>
        <time>2015-07-08T14:52:02Z</time>
      </trkpt>
      <trkpt lat="46.15652" lon="4.45187">
        <ele>608</ele>
        <time>2015-07-08T14:52:07Z</time>
      </trkpt>
      <trkpt lat="46.15648" lon="4.45191">
        <ele>608</ele>
        <time>2015-07-08T14:52:11Z</time>
      </trkpt>
      <trkpt lat="46.15645" lon="4.45195">
        <ele>609</ele>
        <time>2015-07-08T14:52:15Z</time>
      </trkpt>
      <trkpt lat="46.15638" lon="4.45204">
        <ele>609</ele>
        <time>2015-07-08T14:52:25Z</time>
      </trkpt>
      <trkpt lat="46.15631" lon="4.45215">
        <ele>609</ele>
        <time>2015-07-08T14:52:34Z</time>
      </trkpt>
      <trkpt lat="46.15617" lon="4.45234">
        <ele>610</ele>
        <time>2015-07-08T14:52:51Z</time>
      </trkpt>
      <trkpt lat="46.15613" lon="4.45239">
        <ele>609</ele>
        <time>2015-07-08T14:52:55Z</time>
      </trkpt>
      <trkpt lat="46.1561" lon="4.45244">
        <ele>610</ele>
        <time>2015-07-08T14:52:59Z</time>
      </trkpt>
      <trkpt lat="46.15606" lon="4.45246">
        <ele>612</ele>
        <time>2015-07-08T14:53:08Z</time>
      </trkpt>
      <trkpt lat="46.15602" lon="4.45251">
        <ele>613</ele>
        <time>2015-07-08T14:53:13Z</time>
      </trkpt>
      <trkpt lat="46.15594" lon="4.45258">
        <ele>613</ele>
        <time>2015-07-08T14:53:22Z</time>
      </trkpt>
      <trkpt lat="46.1557" lon="4.45271">
        <ele>610</ele>
        <time>2015-07-08T14:53:45Z</time>
      </trkpt>
      <trkpt lat="46.15559" lon="4.45274">
        <ele>610</ele>
        <time>2015-07-08T14:53:57Z</time>
      </trkpt>
      <trkpt lat="46.15554" lon="4.45276">
        <ele>610</ele>
        <time>2015-07-08T14:54:04Z</time>
      </trkpt>
      <trkpt lat="46.1555" lon="4.45281">
        <ele>609</ele>
        <time>2015-07-08T14:54:09Z</time>
      </trkpt>
      <trkpt lat="46.15526" lon="4.45302">
        <ele>606</ele>
        <time>2015-07-08T14:54:33Z</time>
      </trkpt>
      <trkpt lat="46.15522" lon="4.45303">
        <ele>606</ele>
        <time>2015-07-08T14:54:37Z</time>
      </trkpt>
      <trkpt lat="46.15518" lon="4.45306">
        <ele>606</ele>
        <time>2015-07-08T14:54:44Z</time>
      </trkpt>
      <trkpt lat="46.15513" lon="4.45309">
        <ele>606</ele>
        <time>2015-07-08T14:54:49Z</time>
      </trkpt>
      <trkpt lat="46.15483" lon="4.45317">
        <ele>603</ele>
        <time>2015-07-08T14:55:15Z</time>
      </trkpt>
      <trkpt lat="46.15479" lon="4.4532">
        <ele>602</ele>
        <time>2015-07-08T14:55:22Z</time>
      </trkpt>
      <trkpt lat="46.15472" lon="4.45329">
        <ele>603</ele>
        <time>2015-07-08T14:55:30Z</time>
      </trkpt>
      <trkpt lat="46.15467" lon="4.45333">
        <ele>603</ele>
        <time>2015-07-08T14:55:35Z</time>
      </trkpt>
      <trkpt lat="46.15459" lon="4.45341">
        <ele>603</ele>
        <time>2015-07-08T14:55:44Z</time>
      </trkpt>
      <trkpt lat="46.15455" lon="4.45344">
        <ele>602</ele>
        <time>2015-07-08T14:55:48Z</time>
      </trkpt>
      <trkpt lat="46.15448" lon="4.45354">
        <ele>602</ele>
        <time>2015-07-08T14:55:58Z</time>
      </trkpt>
      <trkpt lat="46.15445" lon="4.45362">
        <ele>601</ele>
        <time>2015-07-08T14:56:03Z</time>
      </trkpt>
      <trkpt lat="46.1544" lon="4.45369">
        <ele>601</ele>
        <time>2015-07-08T14:56:08Z</time>
      </trkpt>
      <trkpt lat="46.15408" lon="4.45394">
        <ele>602</ele>
        <time>2015-07-08T14:56:39Z</time>
      </trkpt>
      <trkpt lat="46.15404" lon="4.45395">
        <ele>601</ele>
        <time>2015-07-08T14:56:44Z</time>
      </trkpt>
      <trkpt lat="46.154" lon="4.45401">
        <ele>600</ele>
        <time>2015-07-08T14:56:49Z</time>
      </trkpt>
      <trkpt lat="46.15393" lon="4.45411">
        <ele>600</ele>
        <time>2015-07-08T14:56:57Z</time>
      </trkpt>
      <trkpt lat="46.15368" lon="4.45448">
        <ele>601</ele>
        <time>2015-07-08T14:57:28Z</time>
      </trkpt>
      <trkpt lat="46.1536" lon="4.45457">
        <ele>601</ele>
        <time>2015-07-08T14:57:37Z</time>
      </trkpt>
      <trkpt lat="46.15352" lon="4.45466">
        <ele>601</ele>
        <time>2015-07-08T14:57:46Z</time>
      </trkpt>
      <trkpt lat="46.15347" lon="4.45471">
        <ele>600</ele>
        <time>2015-07-08T14:57:57Z</time>
      </trkpt>
      <trkpt lat="46.1534" lon="4.45476">
        <ele>600</ele>
        <time>2015-07-08T14:58:03Z</time>
      </trkpt>
      <trkpt lat="46.15329" lon="4.45488">
        <ele>601</ele>
        <time>2015-07-08T14:58:15Z</time>
      </trkpt>
      <trkpt lat="46.15325" lon="4.45494">
        <ele>601</ele>
        <time>2015-07-08T14:58:20Z</time>
      </trkpt>
      <trkpt lat="46.15316" lon="4.45499">
        <ele>601</ele>
        <time>2015-07-08T14:58:30Z</time>
      </trkpt>
      <trkpt lat="46.15311" lon="4.45501">
        <ele>600</ele>
        <time>2015-07-08T14:58:35Z</time>
      </trkpt>
      <trkpt lat="46.15298" lon="4.45515">
        <ele>600</ele>
        <time>2015-07-08T14:58:47Z</time>
      </trkpt>
      <trkpt lat="46.15291" lon="4.45522">
        <ele>601</ele>
        <time>2015-07-08T14:58:53Z</time>
      </trkpt>
      <trkpt lat="46.15286" lon="4.45527">
        <ele>602</ele>
        <time>2015-07-08T14:58:59Z</time>
      </trkpt>
      <trkpt lat="46.1528" lon="4.45529">
        <ele>602</ele>
        <time>2015-07-08T14:59:10Z</time>
      </trkpt>
      <trkpt lat="46.15278" lon="4.45529">
        <ele>603</ele>
        <time>2015-07-08T14:59:16Z</time>
      </trkpt>
      <trkpt lat="46.15273" lon="4.45533">
        <ele>599</ele>
        <time>2015-07-08T14:59:38Z</time>
      </trkpt>
      <trkpt lat="46.15264" lon="4.45543">
        <ele>599</ele>
        <time>2015-07-08T15:00:07Z</time>
      </trkpt>
      <trkpt lat="46.15256" lon="4.45549">
        <ele>599</ele>
        <time>2015-07-08T15:00:16Z</time>
      </trkpt>
      <trkpt lat="46.15223" lon="4.45572">
        <ele>597</ele>
        <time>2015-07-08T15:00:47Z</time>
      </trkpt>
      <trkpt lat="46.15211" lon="4.45587">
        <ele>597</ele>
        <time>2015-07-08T15:01:02Z</time>
      </trkpt>
      <trkpt lat="46.15179" lon="4.45622">
        <ele>597</ele>
        <time>2015-07-08T15:01:35Z</time>
      </trkpt>
      <trkpt lat="46.15157" lon="4.45669">
        <ele>597</ele>
        <time>2015-07-08T15:02:10Z</time>
      </trkpt>
      <trkpt lat="46.15154" lon="4.45674">
        <ele>597</ele>
        <time>2015-07-08T15:02:14Z</time>
      </trkpt>
      <trkpt lat="46.15149" lon="4.45677">
        <ele>596</ele>
        <time>2015-07-08T15:02:19Z</time>
      </trkpt>
      <trkpt lat="46.15144" lon="4.45678">
        <ele>595</ele>
        <time>2015-07-08T15:02:25Z</time>
      </trkpt>
      <trkpt lat="46.15134" lon="4.45682">
        <ele>594</ele>
        <time>2015-07-08T15:02:33Z</time>
      </trkpt>
      <trkpt lat="46.15123" lon="4.45693">
        <ele>593</ele>
        <time>2015-07-08T15:02:43Z</time>
      </trkpt>
      <trkpt lat="46.15118" lon="4.45694">
        <ele>593</ele>
        <time>2015-07-08T15:02:46Z</time>
      </trkpt>
      <trkpt lat="46.15111" lon="4.457">
        <ele>592</ele>
        <time>2015-07-08T15:02:54Z</time>
      </trkpt>
      <trkpt lat="46.15107" lon="4.457">
        <ele>592</ele>
        <time>2015-07-08T15:02:56Z</time>
      </trkpt>
      <trkpt lat="46.15101" lon="4.45703">
        <ele>591</ele>
        <time>2015-07-08T15:03:08Z</time>
      </trkpt>
      <trkpt lat="46.1509" lon="4.45712">
        <ele>590</ele>
        <time>2015-07-08T15:03:19Z</time>
      </trkpt>
      <trkpt lat="46.15085" lon="4.45711">
        <ele>590</ele>
        <time>2015-07-08T15:03:22Z</time>
      </trkpt>
      <trkpt lat="46.15068" lon="4.45722">
        <ele>588</ele>
        <time>2015-07-08T15:03:42Z</time>
      </trkpt>
      <trkpt lat="46.15061" lon="4.45725">
        <ele>588</ele>
        <time>2015-07-08T15:03:48Z</time>
      </trkpt>
      <trkpt lat="46.15057" lon="4.45729">
        <ele>588</ele>
        <time>2015-07-08T15:03:52Z</time>
      </trkpt>
      <trkpt lat="46.15051" lon="4.45731">
        <ele>588</ele>
        <time>2015-07-08T15:03:58Z</time>
      </trkpt>
      <trkpt lat="46.15042" lon="4.45737">
        <ele>588</ele>
        <time>2015-07-08T15:04:07Z</time>
      </trkpt>
      <trkpt lat="46.15028" lon="4.45742">
        <ele>589</ele>
        <time>2015-07-08T15:04:17Z</time>
      </trkpt>
      <trkpt lat="46.15024" lon="4.45746">
        <ele>589</ele>
        <time>2015-07-08T15:04:22Z</time>
      </trkpt>
      <trkpt lat="46.15021" lon="4.45749">
        <ele>588</ele>
        <time>2015-07-08T15:04:31Z</time>
      </trkpt>
      <trkpt lat="46.15019" lon="4.45751">
        <ele>587</ele>
        <time>2015-07-08T15:05:09Z</time>
      </trkpt>
      <trkpt lat="46.15015" lon="4.45753">
        <ele>586</ele>
        <time>2015-07-08T15:05:13Z</time>
      </trkpt>
      <trkpt lat="46.15004" lon="4.45765">
        <ele>584</ele>
        <time>2015-07-08T15:05:22Z</time>
      </trkpt>
      <trkpt lat="46.14999" lon="4.45765">
        <ele>584</ele>
        <time>2015-07-08T15:05:31Z</time>
      </trkpt>
      <trkpt lat="46.14983" lon="4.45774">
        <ele>581</ele>
        <time>2015-07-08T15:05:45Z</time>
      </trkpt>
      <trkpt lat="46.14978" lon="4.45778">
        <ele>581</ele>
        <time>2015-07-08T15:05:49Z</time>
      </trkpt>
      <trkpt lat="46.14973" lon="4.45779">
        <ele>581</ele>
        <time>2015-07-08T15:05:53Z</time>
      </trkpt>
      <trkpt lat="46.14963" lon="4.45779">
        <ele>582</ele>
        <time>2015-07-08T15:06:01Z</time>
      </trkpt>
      <trkpt lat="46.14958" lon="4.45778">
        <ele>583</ele>
        <time>2015-07-08T15:06:05Z</time>
      </trkpt>
      <trkpt lat="46.14951" lon="4.45787">
        <ele>584</ele>
        <time>2015-07-08T15:06:15Z</time>
      </trkpt>
      <trkpt lat="46.14948" lon="4.45789">
        <ele>584</ele>
        <time>2015-07-08T15:06:17Z</time>
      </trkpt>
      <trkpt lat="46.14941" lon="4.45793">
        <ele>583</ele>
        <time>2015-07-08T15:06:22Z</time>
      </trkpt>
      <trkpt lat="46.14938" lon="4.45796">
        <ele>583</ele>
        <time>2015-07-08T15:06:24Z</time>
      </trkpt>
      <trkpt lat="46.14932" lon="4.45793">
        <ele>583</ele>
        <time>2015-07-08T15:06:31Z</time>
      </trkpt>
      <trkpt lat="46.1492" lon="4.45797">
        <ele>583</ele>
        <time>2015-07-08T15:06:42Z</time>
      </trkpt>
      <trkpt lat="46.14915" lon="4.45795">
        <ele>582</ele>
        <time>2015-07-08T15:06:48Z</time>
      </trkpt>
      <trkpt lat="46.14912" lon="4.45789">
        <ele>582</ele>
        <time>2015-07-08T15:06:55Z</time>
      </trkpt>
      <trkpt lat="46.14907" lon="4.45777">
        <ele>581</ele>
        <time>2015-07-08T15:07:05Z</time>
      </trkpt>
      <trkpt lat="46.14907" lon="4.45773">
        <ele>580</ele>
        <time>2015-07-08T15:07:12Z</time>
      </trkpt>
      <trkpt lat="46.14903" lon="4.4577">
        <ele>579</ele>
        <time>2015-07-08T15:07:25Z</time>
      </trkpt>
      <trkpt lat="46.149" lon="4.45764">
        <ele>579</ele>
        <time>2015-07-08T15:07:30Z</time>
      </trkpt>
      <trkpt lat="46.14899" lon="4.45758">
        <ele>579</ele>
        <time>2015-07-08T15:07:37Z</time>
      </trkpt>
      <trkpt lat="46.14889" lon="4.45753">
        <ele>578</ele>
        <time>2015-07-08T15:07:46Z</time>
      </trkpt>
      <trkpt lat="46.14887" lon="4.45751">
        <ele>578</ele>
        <time>2015-07-08T15:07:48Z</time>
      </trkpt>
      <trkpt lat="46.14881" lon="4.45749">
        <ele>578</ele>
        <time>2015-07-08T15:07:52Z</time>
      </trkpt>
      <trkpt lat="46.14877" lon="4.45755">
        <ele>578</ele>
        <time>2015-07-08T15:08:12Z</time>
      </trkpt>
      <trkpt lat="46.14875" lon="4.45769">
        <ele>577</ele>
        <time>2015-07-08T15:08:19Z</time>
      </trkpt>
      <trkpt lat="46.14872" lon="4.45775">
        <ele>577</ele>
        <time>2015-07-08T15:08:22Z</time>
      </trkpt>
      <trkpt lat="46.1487" lon="4.45768">
        <ele>577</ele>
        <time>2015-07-08T15:08:38Z</time>
      </trkpt>
      <trkpt lat="46.14868" lon="4.45762">
        <ele>579</ele>
        <time>2015-07-08T15:08:42Z</time>
      </trkpt>
      <trkpt lat="46.14866" lon="4.45755">
        <ele>580</ele>
        <time>2015-07-08T15:08:47Z</time>
      </trkpt>
      <trkpt lat="46.14864" lon="4.45748">
        <ele>581</ele>
        <time>2015-07-08T15:08:52Z</time>
      </trkpt>
      <trkpt lat="46.1486" lon="4.45744">
        <ele>581</ele>
        <time>2015-07-08T15:08:57Z</time>
      </trkpt>
      <trkpt lat="46.14855" lon="4.45742">
        <ele>581</ele>
        <time>2015-07-08T15:09:03Z</time>
      </trkpt>
      <trkpt lat="46.14839" lon="4.45739">
        <ele>579</ele>
        <time>2015-07-08T15:09:17Z</time>
      </trkpt>
      <trkpt lat="46.14835" lon="4.45739">
        <ele>578</ele>
        <time>2015-07-08T15:09:24Z</time>
      </trkpt>
      <trkpt lat="46.14833" lon="4.45733">
        <ele>577</ele>
        <time>2015-07-08T15:09:32Z</time>
      </trkpt>
      <trkpt lat="46.14836" lon="4.45727">
        <ele>577</ele>
        <time>2015-07-08T15:09:37Z</time>
      </trkpt>
      <trkpt lat="46.14835" lon="4.4572">
        <ele>577</ele>
        <time>2015-07-08T15:09:42Z</time>
      </trkpt>
      <trkpt lat="46.14832" lon="4.45713">
        <ele>577</ele>
        <time>2015-07-08T15:09:54Z</time>
      </trkpt>
      <trkpt lat="46.1483" lon="4.45699">
        <ele>578</ele>
        <time>2015-07-08T15:10:03Z</time>
      </trkpt>
      <trkpt lat="46.1483" lon="4.45692">
        <ele>577</ele>
        <time>2015-07-08T15:10:09Z</time>
      </trkpt>
      <trkpt lat="46.14823" lon="4.4568">
        <ele>576</ele>
        <time>2015-07-08T15:10:19Z</time>
      </trkpt>
      <trkpt lat="46.1482" lon="4.45685">
        <ele>577</ele>
        <time>2015-07-08T15:11:00Z</time>
      </trkpt>
      <trkpt lat="46.14824" lon="4.45692">
        <ele>577</ele>
        <time>2015-07-08T15:11:09Z</time>
      </trkpt>
      <trkpt lat="46.14831" lon="4.45695">
        <ele>578</ele>
        <time>2015-07-08T15:11:22Z</time>
      </trkpt>
      <trkpt lat="46.14826" lon="4.45687">
        <ele>578</ele>
        <time>2015-07-08T15:11:52Z</time>
      </trkpt>
      <trkpt lat="46.14821" lon="4.45679">
        <ele>578</ele>
        <time>2015-07-08T15:12:04Z</time>
      </trkpt>
      <trkpt lat="46.14817" lon="4.45674">
        <ele>577</ele>
        <time>2015-07-08T15:12:08Z</time>
      </trkpt>
      <trkpt lat="46.14801" lon="4.45672">
        <ele>580</ele>
        <time>2015-07-08T15:12:19Z</time>
      </trkpt>
      <trkpt lat="46.14798" lon="4.4568">
        <ele>577</ele>
        <time>2015-07-08T15:12:51Z</time>
      </trkpt>
      <trkpt lat="46.14794" lon="4.45693">
        <ele>576</ele>
        <time>2015-07-08T15:13:01Z</time>
      </trkpt>
      <trkpt lat="46.14796" lon="4.457">
        <ele>575</ele>
        <time>2015-07-08T15:13:21Z</time>
      </trkpt>
      <trkpt lat="46.14798" lon="4.457">
        <ele>576</ele>
        <time>2015-07-08T15:15:23Z</time>
      </trkpt>
    </trkseg>
  </trk>
</gpx>